[[{"header":{"parameterUnit":"m.s-1","parameterCategory":1,"la1":30.6,"la2":28.766,"lo1":-90.7593,"lo2":-88.6598,"dy":0.0162,"dx":0.0183,"nx":116,"ny":114,"refTime":"2023-09-10T18:00:00:Z","depth":0,"parameterNumber":2,"parameterNumberName":"U-component_of_WINDS"},"data":[0.0,0.0,0.0,0.0,0.0,0.0,0.0,0.0,0.0,0.0,0.0,0.0,0.0,0.0,0.0,0.0,0.0,0.0,0.0,0.0,0.0,0.0,0.0,0.0,0.0,0.0,0.0,0.0,0.0,0.0,0.0,0.0,0.0,0.0,0.0,0.0,0.0,0.0,0.0,0.0,0.0,0.0,0.0,0.0,0.0,0.0,0.0,0.0,0.0,0.0,0.0,0.0,0.0,0.0,0.0,0.0,0.0,0.0,0.0,0.0,0.0,0.0,0.0,0.0,0.0,0.0,0.0,0.0,0.0,0.0,0.0,0.0,0.0,0.0,0.0,0.0,0.0,0.0,0.0,0.0,0.0,0.0,0.0,0.0,0.0,0.0,0.0,0.0,0.0,0.0,0.0,0.0,0.0,0.0,0.0,0.0,0.0,0.0,0.0,0.0,0.0,0.0,0.0,0.0,0.0,0.0,0.0,0.0,0.0,0.0,0.0,0.0,0.0,0.0,0.0,0.0,0.0,0.0,0.0,0.0,0.0,0.0,0.0,0.0,0.0,0.0,0.0,0.0,0.0,0.0,0.0,0.0,0.0,0.0,0.0,0.0,0.0,0.0,0.0,0.0,0.0,0.0,0.0,0.0,0.0,0.0,0.0,0.0,0.0,0.0,0.0,0.0,0.0,0.0,0.0,0.0,0.0,0.0,0.0,0.0,0.0,0.0,0.0,0.0,0.0,0.0,0.0,0.0,0.0,0.0,0.0,0.0,0.0,0.0,0.0,0.0,0.0,0.0,0.0,0.0,0.0,0.0,0.0,0.0,0.0,0.0,0.0,0.0,0.0,0.0,0.0,0.0,0.0,0.0,0.0,0.0,0.0,0.0,0.0,0.0,0.0,0.0,0.0,0.0,0.0,0.0,0.0,0.0,0.0,0.0,0.0,0.0,0.0,0.0,0.0,0.0,0.0,0.0,0.0,0.0,0.0,0.0,0.0,0.0,0.0,0.0,0.0,0.0,0.0,0.0,0.0,0.0,0.0,0.0,0.0,0.0,0.0,0.0,0.0,0.0,0.0,0.0,0.0,0.0,0.0,0.0,0.0,0.0,0.0,0.0,0.0,0.0,0.0,0.0,0.0,0.0,0.0,0.0,0.0,0.0,0.0,0.0,0.0,0.0,0.0,0.0,0.0,0.0,0.0,0.0,0.0,0.0,0.0,0.0,0.0,0.0,0.0,0.0,0.0,0.0,0.0,0.0,0.0,0.0,0.0,0.0,0.0,0.0,0.0,0.0,0.0,0.0,0.0,0.0,0.0,0.0,0.0,0.0,0.0,0.0,0.0,0.0,0.0,0.0,0.0,0.0,0.0,0.0,0.0,0.0,0.0,0.0,0.0,0.0,0.0,0.0,0.0,0.0,0.0,0.0,0.0,0.0,0.0,0.0,0.0,0.0,0.0,0.0,0.0,0.0,0.0,0.0,0.0,0.0,0.0,0.0,0.0,0.0,0.0,0.0,0.0,0.0,0.0,0.0,0.0,0.0,0.0,0.0,0.0,0.0,0.0,0.0,0.0,0.0,0.0,0.0,0.0,0.0,0.0,0.0,0.0,0.0,0.0,0.0,0.0,0.0,0.0,0.0,0.0,0.0,0.0,0.0,0.0,0.0,0.0,0.0,0.0,0.0,0.0,0.0,0.0,0.0,0.0,0.0,0.0,0.0,0.0,0.0,0.0,0.0,0.0,0.0,0.0,0.0,0.0,0.0,0.0,0.0,0.0,0.0,0.0,0.0,0.0,0.0,0.0,0.0,0.0,0.0,0.0,0.0,0.0,0.0,0.0,0.0,0.0,0.0,0.0,0.0,0.0,0.0,0.0,0.0,0.0,0.0,0.0,0.0,0.0,0.0,0.0,0.0,0.0,0.0,0.0,0.0,0.0,0.0,0.0,0.0,0.0,0.0,0.0,0.0,0.0,0.0,0.0,0.0,0.0,0.0,0.0,0.0,0.0,0.0,0.0,0.0,0.0,0.0,0.0,0.0,0.0,0.0,0.0,0.0,0.0,0.0,0.0,0.0,0.0,0.0,0.0,0.0,0.0,0.0,0.0,0.0,0.0,0.0,0.0,0.0,0.0,0.0,0.0,0.0,0.0,0.0,0.0,0.0,0.0,0.0,0.0,0.0,0.0,0.0,0.0,0.0,0.0,0.0,0.0,0.0,0.0,0.0,0.0,0.0,0.0,0.0,0.0,0.0,0.0,0.0,0.0,0.0,0.0,0.0,0.0,0.0,0.0,0.0,0.0,0.0,0.0,0.0,0.0,0.0,0.0,0.0,0.0,0.0,0.0,0.0,0.0,0.0,0.0,0.0,0.0,0.0,0.0,0.0,0.0,0.0,0.0,0.0,0.0,0.0,0.0,0.0,0.0,0.0,0.0,0.0,0.0,0.0,0.0,0.0,0.0,0.0,0.0,0.0,0.0,0.0,0.0,0.0,0.0,0.0,0.0,0.0,0.0,0.0,0.0,0.0,0.0,0.0,0.0,0.0,0.0,0.0,0.0,0.0,0.0,0.0,0.0,0.0,0.0,0.0,0.0,0.0,0.0,0.0,0.0,0.0,0.0,0.0,0.0,0.0,0.0,0.0,0.0,0.0,0.0,0.0,0.0,0.0,0.0,0.0,0.0,0.0,0.0,0.0,0.0,0.0,0.0,0.0,0.0,0.0,0.0,0.0,0.0,0.0,0.0,0.0,0.0,0.0,0.0,0.0,0.0,0.0,0.0,0.0,0.0,0.0,0.0,0.0,0.0,0.0,0.0,0.0,0.0,0.0,0.0,0.0,0.0,0.0,0.0,0.0,0.0,0.0,0.0,0.0,0.0,0.0,0.0,0.0,0.0,0.0,0.0,0.0,0.0,0.0,0.0,0.0,0.0,0.0,0.0,0.0,0.0,0.0,0.0,0.0,0.0,0.0,0.0,0.0,0.0,0.0,0.0,0.0,0.0,0.0,0.0,0.0,0.0,0.0,0.0,0.0,0.0,0.0,0.0,0.0,0.0,0.0,0.0,0.0,0.0,0.0,0.0,0.0,0.0,0.0,0.0,0.0,0.0,0.0,0.0,0.0,0.0,0.0,0.0,0.0,0.0,0.0,0.0,0.0,0.0,0.0,0.0,0.0,0.0,0.0,0.0,0.0,0.0,0.0,0.0,0.0,0.0,0.0,0.0,0.0,0.0,0.0,0.0,0.0,0.0,0.0,0.0,0.0,0.0,0.0,0.0,0.0,0.0,0.0,0.0,0.0,0.0,0.0,0.0,0.0,0.0,0.0,0.0,0.0,0.0,0.0,0.0,0.0,0.0,0.0,0.0,0.0,0.0,0.0,0.0,0.0,0.0,0.0,0.0,0.0,0.0,0.0,0.0,0.0,0.0,0.0,0.0,0.0,0.0,0.0,0.0,0.0,0.0,0.0,0.0,0.0,0.0,0.0,0.0,0.0,0.0,0.0,0.0,0.0,0.0,0.0,0.0,0.0,0.0,0.0,0.0,0.0,0.0,0.0,0.0,0.0,0.0,0.0,0.0,0.0,0.0,0.0,0.0,0.0,0.0,0.0,0.0,0.0,0.0,0.0,0.0,0.0,0.0,0.0,0.0,0.0,0.0,0.0,0.0,0.0,0.0,0.0,0.0,0.0,0.0,0.0,0.0,0.0,0.0,0.0,0.0,0.0,0.0,0.0,0.0,0.0,0.0,0.0,0.0,0.0,0.0,0.0,0.0,0.0,0.0,0.0,0.0,0.0,0.0,0.0,0.0,0.0,0.0,0.0,0.0,0.0,0.0,0.0,0.0,0.0,0.0,0.0,0.0,0.0,0.0,0.0,0.0,0.0,0.0,0.0,0.0,0.0,0.0,0.0,0.0,0.0,0.0,0.0,0.0,0.0,0.0,0.0,0.0,0.0,0.0,0.0,0.0,0.0,0.0,0.0,0.0,0.0,0.0,0.0,0.0,0.0,0.0,0.0,0.0,0.0,0.0,0.0,0.0,0.0,0.0,0.0,0.0,0.0,0.0,0.0,0.0,0.0,0.0,0.0,0.0,0.0,0.0,0.0,0.0,0.0,0.0,0.0,0.0,0.0,0.0,0.0,0.0,0.0,0.0,0.0,0.0,0.0,0.0,0.0,0.0,0.0,0.0,0.0,0.0,0.0,0.0,0.0,0.0,0.0,0.0,0.0,0.0,0.0,0.0,0.0,0.0,0.0,0.0,0.0,0.0,0.0,0.0,0.0,0.0,0.0,0.0,0.0,0.0,0.0,0.0,0.0,0.0,0.0,0.0,0.0,0.0,0.0,0.0,0.0,0.0,0.0,0.0,0.0,0.0,0.0,0.0,0.0,0.0,0.0,0.0,0.0,0.0,0.0,0.0,0.0,0.0,0.0,0.0,0.0,0.0,0.0,0.0,0.0,0.0,0.0,0.0,0.0,0.0,0.0,0.0,0.0,0.0,0.0,0.0,0.0,0.0,0.0,0.0,0.0,0.0,0.0,0.0,0.0,0.0,0.0,0.0,0.0,0.0,0.0,0.0,0.0,0.0,0.0,0.0,0.0,0.0,0.0,0.0,0.0,0.0,0.0,0.0,0.0,0.0,0.0,0.0,0.0,0.0,0.0,0.0,0.0,0.0,0.0,0.0,0.0,0.0,0.0,0.0,0.0,0.0,0.0,0.0,0.0,0.0,0.0,0.0,0.0,0.0,0.0,0.0,0.0,0.0,0.0,0.0,0.0,0.0,0.0,0.0,0.0,0.0,0.0,0.0,0.0,0.0,0.0,0.0,0.0,0.0,0.0,0.0,0.0,0.0,0.0,0.0,0.0,0.0,0.0,0.0,0.0,0.0,0.0,0.0,0.0,0.0,0.0,0.0,0.0,0.0,0.0,0.0,0.0,0.0,0.0,0.0,0.0,0.0,0.0,0.0,0.0,0.0,0.0,0.0,0.0,0.0,0.0,0.0,0.0,0.0,0.0,0.0,0.0,0.0,0.0,0.0,0.0,0.0,0.0,0.0,0.0,0.0,0.0,0.0,0.0,0.0,0.0,0.0,0.0,0.0,0.0,0.0,0.0,0.0,0.0,0.0,0.0,0.0,0.0,0.0,0.0,0.0,0.0,0.0,0.0,0.0,0.0,0.0,0.0,0.0,0.0,0.0,0.0,0.0,0.0,0.0,0.0,0.0,0.0,0.0,0.0,0.0,0.0,0.0,0.0,0.0,0.0,0.0,0.0,0.0,0.0,0.0,0.0,0.0,0.0,0.0,0.0,0.0,0.0,0.0,0.0,0.0,0.0,0.0,0.0,0.0,0.0,0.0,0.0,0.0,0.0,0.0,0.0,0.0,0.0,0.0,0.0,0.0,0.0,0.0,0.0,0.0,0.0,0.0,0.0,0.0,0.0,0.0,0.0,0.0,0.0,0.0,0.0,0.0,0.0,0.0,0.0,0.0,0.0,0.0,0.0,0.0,0.0,0.0,0.0,0.0,0.0,0.0,0.0,0.0,0.0,0.0,0.0,0.0,0.0,0.0,0.0,0.0,0.0,0.0,0.0,0.0,0.0,0.0,0.0,0.0,0.0,0.0,0.0,0.0,0.0,0.0,0.0,0.0,0.0,0.0,0.0,0.0,0.0,0.0,0.0,0.0,0.0,0.0,0.0,0.0,0.0,0.0,0.0,0.0,0.0,0.0,0.0,0.0,0.0,0.0,0.0,0.0,0.0,0.0,0.0,0.0,0.0,0.0,0.0,0.0,0.0,0.0,0.0,0.0,0.0,0.0,0.0,0.0,0.0,0.0,0.0,0.0,0.0,0.0,0.0,0.0,0.0,0.0,0.0,0.0,0.0,0.0,0.0,0.0,0.0,0.0,0.0,0.0,0.0,0.0,0.0,0.0,0.0,0.0,0.0,0.0,0.0,0.0,0.0,0.0,0.0,0.0,0.0,0.0,0.0,0.0,0.0,0.0,0.0,0.0,0.0,0.0,0.0,0.0,0.0,0.0,0.0,0.0,0.0,0.0,0.0,0.0,0.0,0.0,0.0,0.0,0.0,0.0,0.0,0.0,0.0,0.0,0.0,0.0,0.0,-1.315,0.0,0.0,0.0,0.0,0.0,0.0,0.0,0.0,0.0,0.0,0.0,0.0,0.0,0.0,0.0,0.0,0.0,0.0,0.0,0.0,0.0,0.0,0.0,0.0,0.0,0.0,0.0,0.0,0.0,0.0,0.0,0.0,0.0,0.0,0.0,0.0,0.0,0.0,0.0,-0.4159,-0.8557,-1.4261,-1.2271,-0.8939,-0.4529,0.0,0.0,0.0,0.0,0.0,0.0,0.0,0.0,0.0,0.0,0.0,0.0,0.0,0.0,0.0,0.0,0.0,0.0,0.0,0.0,0.0,0.0,0.0,0.0,0.0,0.0,0.0,0.0,0.0,0.0,0.0,0.0,0.0,0.0,0.0,0.0,0.0,0.0,0.0,0.0,0.0,0.0,0.0,0.0,0.0,0.0,0.0,0.0,0.0,0.0,0.0,0.0,0.0,0.0,0.0,0.0,0.0,0.0,0.0,0.0,0.0,0.0,0.0,0.0,0.0,0.0,0.0,0.0,0.0,0.0,0.0,-1.7197,0.0,0.0,0.0,0.0,0.0,0.0,0.0,0.0,0.0,0.0,0.0,0.0,0.0,0.0,0.0,0.0,0.0,0.0,0.0,0.0,0.0,0.0,0.0,0.0,0.0,0.0,0.0,0.0,0.0,0.0,0.0,0.0,0.0,0.0,0.0,-0.0362,-0.253,-0.7556,-1.2693,-1.7713,-2.2599,-2.4475,-2.0771,-1.2428,-1.0217,0.0,0.0,0.0,0.0,0.0,0.0,0.0,0.0,0.0,0.0,0.0,0.0,0.0,0.0,0.0,0.0,0.0,0.0,0.0,0.0,0.0,0.0,0.0,0.0,0.0,0.0,0.0,0.0,0.0,0.0,0.0,0.0,0.0,0.0,0.0,0.0,0.0,0.0,0.0,0.0,0.0,0.0,0.0,0.0,0.0,0.0,0.0,0.0,0.0,0.0,0.0,0.0,0.0,0.0,0.0,0.0,0.0,0.0,0.0,0.0,0.0,0.0,0.0,-3.4397,-3.4524,-3.4727,-3.4887,-3.5416,-3.5976,-3.2199,-2.8687,-2.5284,-2.0976,0.0,0.0,0.0,0.0,0.0,0.0,0.0,0.0,0.0,0.0,0.0,0.0,0.0,0.0,0.0,0.0,0.0,0.0,0.0,0.0,0.0,0.0,0.5695,0.4632,0.333,0.2919,0.0,0.0,0.0,0.0,0.0,0.0,-0.4014,-0.5059,-0.9425,-1.7343,-2.3636,-2.7686,-2.957,-2.925,-2.7518,-2.4474,-1.9137,-1.4214,-0.9778,0.0,0.0,0.0,0.0,0.0,0.0,0.0,0.0,0.0,0.0,0.0,0.0,0.0,0.0,0.0,0.0,0.0,0.0,0.0,0.0,0.0,0.0,0.0,0.0,0.0,0.0,0.0,0.0,0.0,0.0,0.0,0.0,0.0,0.0,0.0,0.0,0.0,0.0,0.0,0.0,0.0,1.5488,1.9026,0.0,0.0,0.0,0.0,0.0,0.0,0.0,0.0,0.0,0.0,0.0,0.0,0.0,-3.6371,-3.642,-3.734,-3.7714,-3.7604,-3.8662,-3.9731,-4.0651,-4.0017,-4.0414,-4.1577,-4.0257,0.0,-3.3085,-3.1832,0.0,0.0,0.0,0.0,0.0,0.0,0.0,0.0,0.0,0.0,0.0,0.0,0.0,0.0,0.0,0.0,0.0,0.0,0.0,0.0,0.0,-0.0312,-0.3598,-0.6825,-0.6679,-0.5976,-0.5004,0.0,0.0,0.0,0.0,-0.7284,-1.372,-1.324,-1.6717,-2.4532,-2.8644,-3.1052,-3.1838,-3.0677,-2.9161,-2.7218,-2.274,-1.8652,-1.5061,-1.2279,0.0,0.0,0.0,0.0,0.0,0.0,0.0,0.0,0.0,0.0,0.0,0.0,0.0,0.0,0.0,0.0,0.0,0.0,0.0,0.0,0.0,0.0,0.0,0.0,0.0,0.0,0.0,0.0,0.0,0.0,0.0,0.0,0.0,0.0,0.0,0.0,0.0,0.0,0.0,1.143,1.1694,1.0428,0.8059,0.3726,0.0,0.0,0.0,0.0,0.0,0.0,0.0,0.0,0.0,-3.9192,-3.9008,-3.9064,-3.9462,-3.9645,-3.9576,-3.927,-3.9816,-4.068,-4.1798,-4.146,-4.1815,-4.2668,-4.2291,-4.0829,-3.85,-3.6597,-3.4343,-3.1752,0.0,0.0,0.0,0.0,-2.5228,-2.615,0.0,0.0,0.0,0.0,0.0,0.0,0.0,0.0,0.0,0.0,0.0,0.0,-0.3554,-0.7959,-1.2279,-1.6517,-1.5808,-1.4607,-1.3426,0.0,0.0,0.0,0.0,-1.4602,-2.1732,-2.1072,-2.3496,-2.933,-3.1174,-3.207,-3.203,-3.0753,-2.8891,-2.6566,-2.4109,-2.1547,-1.8879,-1.5614,-1.2582,-0.9418,0.0,0.0,0.0,0.0,0.0,0.0,0.0,0.0,0.0,0.0,0.0,0.0,0.0,0.0,0.0,0.0,0.0,0.0,0.0,0.0,0.0,0.0,0.0,0.0,0.0,0.0,0.0,0.0,0.0,0.0,0.0,0.0,0.0,0.0,0.0,0.0,0.0,0.9811,0.9556,0.2621,0.4541,0.241,0.0,0.0,0.0,0.0,0.0,0.0,-3.8637,-3.901,-3.9854,-4.1477,-4.1285,-4.1343,-4.1795,-4.1181,-4.0621,-4.007,-4.007,-4.0531,-4.1276,-4.1445,-4.1629,-4.1944,-4.225,-4.1841,-4.0873,-3.8884,-3.7404,-3.6059,-3.3228,-3.1621,-3.0813,-3.0198,-3.023,-3.0924,0.0,0.0,0.0,0.0,0.0,0.0,0.0,0.0,0.0,0.0,0.0,-0.4838,-0.9476,-1.4375,-1.8115,-2.016,-2.2331,-2.2865,-2.1145,-2.274,-2.3124,-2.1688,-2.2431,-2.3291,-2.4206,-2.6945,-2.9241,-3.107,-3.1881,-3.1714,-3.0591,-2.9811,-2.7471,-2.3908,-2.3859,-2.263,-2.0434,-1.657,-1.402,-1.2204,-0.7593,0.0,0.0,0.0,0.0,0.0,0.0,0.0,0.0,0.0,0.0,0.0,0.0,0.0,0.0,0.0,0.0,0.0,0.0,0.0,0.0,0.0,0.0,0.0,0.0,0.0,0.0,0.0,0.0,0.0,0.0,0.0,0.0,0.0,0.0,0.0,0.0,0.0,0.0,-0.0439,-0.1832,0.0,0.0,0.0,0.0,-2.7147,-3.3335,-3.8172,-4.081,-4.0653,-4.1538,-4.3767,-4.3023,-4.2359,-4.1837,-4.1192,-4.0642,-4.007,-4.007,-4.001,-3.9909,-4.0418,-4.0324,-3.9811,-4.0971,-4.0455,-3.8885,-3.9448,-3.8969,-3.766,-3.5622,-3.3891,-3.2591,-3.2686,-3.2475,-3.2392,0.0,0.0,0.0,0.0,0.0,0.0,0.0,0.0,0.0,0.0,-0.4417,-0.9281,-1.4624,-1.8803,-2.2358,-2.5187,-2.65,-2.6629,-2.5348,-2.5411,-2.4651,-2.2711,-2.375,-2.4928,-2.617,-2.8132,-2.9509,-3.0236,-3.0719,-3.025,-2.8842,-2.6916,-2.4492,-2.1783,-2.0246,-1.8932,-1.779,-1.7037,-1.5745,-1.378,-0.9651,-0.6705,0.0,0.0,0.0,0.0,0.0,0.0,0.0,0.0,0.0,0.0,0.0,0.0,0.0,0.0,0.0,0.0,0.0,0.0,0.0,0.0,0.0,0.0,0.0,0.0,0.0,0.0,0.0,0.0,0.0,0.0,0.0,0.0,0.0,0.0,0.0,0.0,0.0,-0.9415,-1.1808,0.0,-1.8471,-2.4109,-2.8799,-3.2043,-3.7784,-4.1867,-4.358,-4.3342,-4.3045,-4.28,-4.235,-4.1594,-4.0508,-3.9951,-3.9566,-3.9376,-3.8886,-3.8807,-3.9111,-3.9268,-3.9452,-3.9589,-3.9635,-3.9308,-3.8633,-3.8111,-3.7912,-3.7848,-3.7121,-3.6224,-3.5315,-3.488,-3.4377,-3.3911,0.0,0.0,0.0,0.0,0.0,0.0,0.0,0.0,0.0,-0.268,-0.7253,-1.2068,-1.706,-2.1228,-2.4693,-2.7136,-2.8019,-2.7953,-2.6857,-2.6013,-2.4873,-2.3387,-2.452,-2.5849,-2.736,-2.8366,-2.9077,-2.9495,-2.9398,-2.8373,-2.6448,-2.4097,-2.1487,-1.8672,-1.6609,-1.5048,-1.3942,-1.4939,-1.493,-1.3928,-1.0109,-0.8154,-0.6999,0.0,0.0,0.0,0.0,0.0,0.0,0.0,0.0,0.0,0.0,0.0,0.0,0.0,0.0,0.0,0.0,0.0,0.0,0.0,0.0,0.0,0.0,0.0,0.0,0.0,0.0,0.0,0.0,0.0,0.0,0.0,0.0,0.0,0.0,0.0,-1.3631,-1.7291,-1.9712,-2.2243,-2.5256,-2.8279,-3.1701,-3.5693,-4.0689,-4.3806,-4.4478,-4.417,-4.3232,-4.1549,-4.1181,-4.0515,-3.9417,-3.8922,-3.8645,-3.8625,-3.7885,-3.757,-3.7671,-3.7585,-3.7537,-3.7516,-3.7513,-3.7326,-3.687,-3.6259,-3.6055,-3.6122,-3.6625,-3.6059,-3.4952,-3.4209,-3.3576,-3.292,0.0,0.0,0.0,0.0,0.0,0.0,0.0,0.0,-0.0185,-0.3524,-0.8501,-1.3076,-1.6602,-2.1596,-2.4999,-2.5695,-2.6805,-2.6949,-2.5704,-2.5005,-2.4468,-2.4122,-2.5297,-2.6522,-2.7677,-2.7809,-2.8222,-2.8922,-2.8005,-2.6133,-2.3405,-2.1525,-1.8513,-1.4578,-1.3273,-1.1457,-0.9348,-1.0266,-1.1514,-1.2681,-0.8995,-0.7952,-0.8138,0.0,0.0,0.0,0.0,0.0,0.0,0.0,0.0,0.0,0.0,0.0,0.0,0.0,0.0,0.0,0.0,0.0,0.0,0.0,0.0,0.0,0.0,0.0,0.0,0.0,0.0,0.0,0.0,0.0,0.0,0.0,0.0,0.0,-1.339,-1.3835,-1.6476,-2.3214,-2.4898,-2.6433,-2.8641,-3.0293,-3.3144,-3.7683,-4.1677,-4.3745,-4.3297,-4.2903,-4.1927,-4.0251,-3.9711,-3.9155,-3.8581,-3.8071,-3.7801,-3.7772,-3.7068,-3.6282,-3.552,-3.5322,-3.4541,-3.3448,-3.4633,-3.4449,-3.3347,-3.4066,-3.355,-3.2484,-3.4013,-3.3371,-3.1449,-3.08,-3.0018,-2.9474,0.0,0.0,0.0,0.0,0.0,0.0,0.0,0.2184,-0.0653,-0.4629,-0.8524,-1.2323,-1.604,-1.9042,-2.1304,-2.2392,-2.2527,-2.2328,-2.1783,-2.1248,-2.1301,-2.2058,-2.2942,-2.4008,-2.5296,-2.5362,-2.5305,-2.5111,-2.4555,-2.2832,-2.0012,-1.8094,-1.5753,-1.3188,-1.1599,-0.9596,-0.7436,-0.8341,-0.9352,-1.0268,-0.8996,-0.8568,-0.8382,0.0,0.0,0.0,0.0,0.0,0.0,0.0,0.0,0.0,0.0,0.0,0.0,0.0,0.0,0.0,0.0,0.0,0.0,0.0,0.0,0.0,0.0,0.0,0.0,0.0,0.0,0.0,0.0,0.0,0.0,0.0,-1.7471,-1.8368,-1.5851,-1.6994,-1.9099,-2.1886,-2.4768,-2.7454,-2.9944,-3.1759,-3.4333,-3.816,-4.0809,-4.2296,-4.2433,-4.1241,-3.9806,-3.8167,-3.8121,-3.7335,-3.568,-3.6048,-3.5943,-3.5413,-3.4671,-3.4216,-3.3981,-3.3386,-3.2927,-3.2577,-3.2423,-3.1894,-3.1208,-3.0891,-2.9783,-2.8607,-3.1857,-3.1868,-3.0066,-2.9885,-2.9026,-2.7972,0.0,0.0,0.0,0.0,0.0,0.0,0.0,0.2096,-0.024,-0.3772,-0.6773,-0.9778,-1.2969,-1.4964,-1.6527,-1.7661,-1.7229,-1.7128,-1.7606,-1.7943,-1.8779,-2.0223,-2.0976,-2.194,-2.3191,-2.2508,-2.2283,-2.2558,-2.17,-1.9654,-1.6463,-1.3792,-1.1242,-0.8784,-0.6917,-0.5309,-0.4045,-0.4508,-0.5023,-0.5548,-0.5351,-0.5761,-0.6384,-0.5654,-0.4978,-0.4343,-0.4545,-0.3984,-0.3008,-0.2077,0.0,0.0,0.0,0.0,0.0,0.0,0.0,0.0,0.0,0.0,0.0,0.0,0.0,0.0,0.0,0.0,0.0,0.0,0.0,0.0,0.0,0.0,0.0,0.0,-2.3532,-2.4597,-2.2701,-2.3212,-2.4124,-2.4957,-2.7901,-3.05,-3.2095,-3.3496,-3.5587,-3.8614,-3.9907,-4.0392,-4.0071,-3.9051,-3.7634,-3.5799,-3.5775,-3.5123,-3.3674,-3.4109,-3.41,-3.3634,-3.2849,-3.2461,-3.2442,-3.1376,-3.0942,0.0,-3.0446,-2.9995,-2.9419,-2.8698,-2.7576,0.0,0.0,0.0,0.0,0.0,-2.6439,-2.612,0.0,0.0,0.0,0.0,0.0,0.0,0.0,0.26,0.0837,-0.1506,-0.3754,-0.5987,-0.8203,-0.9692,-1.1013,-1.2086,-1.152,-1.1779,-1.3458,-1.4987,-1.6563,-1.8153,-1.8974,-1.9749,-2.0567,-1.8962,-1.8578,-1.9473,-1.7928,-1.5374,-1.186,-0.845,-0.5375,-0.2648,-0.0739,0.0209,0.0386,0.0544,0.0575,0.0531,0.0646,-0.0864,-0.3154,-0.321,-0.322,-0.3456,-0.4613,-0.5577,-0.6443,-0.7141,0.0,0.0,0.0,0.0,0.0,0.0,0.0,0.0,0.0,0.0,0.0,0.0,0.0,0.0,0.0,0.0,0.0,0.0,0.0,0.0,0.0,0.0,0.0,0.0,-2.8759,-2.9996,-3.1037,-3.0225,-2.9716,-3.0166,-3.2454,-3.4099,-3.4416,-3.5013,-3.632,-3.8583,-3.8621,-3.8072,-3.6967,0.0,0.0,0.0,0.0,-3.2595,-3.2105,-3.2144,-3.2131,-3.2083,-3.1314,-3.0881,-3.0772,-2.936,-2.8685,-2.8602,-2.8482,-2.8106,-2.7492,-2.6848,-2.5843,-2.4771,-2.507,-2.4085,-2.2512,-2.2379,-2.3036,-2.4009,0.0,0.0,0.0,0.0,0.0,0.0,0.0,0.3547,0.2443,0.1156,-0.0144,-0.1495,-0.2857,-0.3811,-0.5062,-0.6894,-0.6827,-0.7706,-1.0013,-1.2266,-1.373,-1.4134,-1.5447,-1.5632,-1.445,-1.3304,-1.1669,-0.9486,-0.756,-0.5137,-0.2238,-0.0239,0.1197,0.2094,0.2981,0.4087,0.5241,0.5282,0.5708,0.6392,0.6382,0.3549,-0.0716,-0.0726,-0.1008,-0.1405,-0.1205,-0.3896,-0.7592,-0.7584,-0.7271,-0.6754,-0.5689,-0.3945,0.0,0.0,0.0,0.0,0.0,0.0,0.0,0.0,0.0,0.0,0.0,0.0,0.0,0.0,0.0,0.0,0.0,0.0,0.0,-2.8539,-3.0468,-3.1777,-3.1486,-3.048,-3.0281,-3.148,-3.3039,-3.4167,-3.4604,-3.4389,-3.4678,-3.5821,-3.544,-3.5156,-3.5171,-3.3451,-3.2249,-3.1826,-3.0698,-2.9939,-2.9679,-2.9844,-2.9836,-2.9659,0.0,0.0,-2.8424,-2.7542,-2.6837,-2.6201,-2.5296,-2.4362,-2.34,-2.297,-2.1541,-1.9834,-2.1754,-2.2312,-2.1822,-2.0881,-2.0941,-2.1549,0.0,0.0,0.0,0.0,0.0,0.0,0.0,0.513,0.4512,0.3708,0.3146,0.2539,0.1761,0.1373,0.0525,-0.0965,-0.2562,-0.4561,-0.7018,-0.8879,-1.0094,-1.0639,-1.0674,-1.0052,-0.8664,-0.6855,-0.5137,-0.3549,0.0177,0.2497,0.3537,0.6976,0.8139,0.7305,0.7539,0.7937,0.8414,0.8249,0.8321,0.844,0.8503,0.6772,0.4087,0.3186,0.2182,0.1106,0.0859,-0.1488,-0.4565,-0.5068,-0.5605,-0.5797,-0.554,-0.5405,-0.4721,0.0,0.0,0.0,0.0,0.0,0.0,0.0,0.0,0.0,0.0,0.0,0.0,0.0,0.0,-2.4857,-2.6345,0.0,-2.9837,-3.1488,-3.1869,-3.1529,-3.025,-2.9642,-2.9738,-3.0878,-3.1572,-3.2298,-3.3157,-3.2492,-3.2426,-3.3427,-3.2572,-3.1899,-3.1659,-3.0383,-2.9359,-2.8699,-2.7757,-2.7073,-2.6779,-2.6867,-2.696,-2.711,-2.7031,-2.6887,-2.6689,-2.5747,-2.5112,-2.4696,-2.3612,-2.2733,-2.1889,-2.0499,-1.8884,-1.7376,-1.8302,-1.8834,-1.907,-1.8731,-1.8995,-1.9527,0.0,0.0,0.0,0.0,0.0,0.0,0.0,0.0,0.0,0.6263,0.6276,0.6265,0.6017,0.6066,0.5637,0.4418,0.1167,-0.1642,-0.3547,-0.5064,-0.6062,-0.647,-0.5541,-0.4317,-0.275,-0.038,0.1341,0.2332,0.7228,0.9433,0.9139,1.3474,1.4422,1.2531,1.23,1.1824,1.1183,1.0855,1.0384,0.9889,0.9868,0.9491,0.8737,0.745,0.5703,0.382,0.3238,0.2132,0.0784,-0.0816,-0.193,-0.2646,-0.2616,-0.3677,-0.4552,-0.2268,-0.1804,0.0,0.0,0.0,0.0,0.0,0.0,0.0,0.0,-2.1379,-2.2192,-2.5617,-2.661,-2.7557,-3.0061,-2.9898,-3.0253,-3.2853,-3.1752,-2.99,-2.8126,-2.7795,-2.7989,-2.8594,-2.9176,-2.9928,-3.0917,-3.0228,-3.0108,-3.1072,-3.0037,-2.9058,-2.8365,-2.7703,-2.6907,-2.5815,-2.5045,-2.4503,-2.4265,-2.4131,-2.4315,-2.482,-2.4709,-2.4728,-2.491,-2.3984,-2.3423,-2.3128,-2.1895,-2.1051,-2.0306,-1.8177,-1.6585,-1.5432,-1.4931,-1.4969,-1.5415,-1.6425,-1.7264,-1.786,0.0,0.0,0.0,0.0,0.0,0.0,0.0,0.0,0.0,0.9022,0.9527,0.987,0.9971,1.0242,0.9674,0.7802,0.4002,0.1686,0.1712,-0.1029,-0.187,-0.0103,-0.0791,0.0376,0.3832,0.525,0.7957,1.2014,1.5037,1.7061,1.8143,1.897,1.8643,1.7302,1.6614,1.5736,1.4694,1.4194,1.3716,1.3273,1.2827,1.199,1.0992,1.1218,0.9503,0.7062,0.8053,0.8138,0.7485,0.5125,0.3314,0.1967,0.2318,0.293,0.3122,0.1136,0.3801,0.5233,-0.4696,-1.4258,-2.2153,-2.5084,-2.5168,-2.6454,0.0,-3.2786,-3.1204,-3.4563,-3.4268,-3.324,-3.2989,-3.13,-2.9806,-2.9097,-2.7893,-2.662,-2.5298,-2.4461,-2.3971,-2.3877,-2.6476,-2.8271,-2.8174,-2.8268,-2.8356,-2.8433,-2.8067,-2.771,-2.7369,-2.6195,-2.5347,-2.5024,-2.3529,-2.29,-2.3328,-2.2869,-2.2897,-2.3398,-2.3424,-2.3087,-2.2506,-2.2353,-2.1666,-2.0491,-1.8555,-1.7096,-1.6016,-1.4716,-1.344,-1.2224,-1.2129,-1.1859,-1.1722,-1.4121,-1.5652,-1.6609,0.0,0.0,0.0,0.0,0.0,0.0,0.0,0.0,0.0,0.0,1.1576,1.1963,1.2246,1.2203,1.1346,0.9401,0.6458,0.469,0.4588,0.2702,0.2521,0.4554,0.5376,0.7022,0.9844,1.1793,1.4179,1.7036,1.8941,2.0304,2.1116,2.0958,2.0551,1.9913,1.8997,1.8233,1.7599,1.718,1.6679,1.6218,1.6174,1.534,1.4274,1.461,1.382,1.2374,1.1082,1.0912,0.0,0.8877,0.8047,0.805,0.8851,0.817,0.7306,0.7854,0.4098,-0.303,-1.5887,-2.0244,-2.2406,-2.7492,-2.8775,-2.95,-3.1936,-3.0693,-2.9799,-3.2788,-3.2572,-3.1653,-3.0863,-2.9554,-2.816,-2.6818,-2.5704,-2.4409,-2.2812,-2.1862,-2.092,-1.9847,-2.0579,-2.2489,-2.5821,-2.5453,-2.5613,-2.709,-2.6104,-2.557,-2.5849,-2.4296,-2.3063,-2.2239,-2.0976,-2.0125,-1.9756,-2.0177,-2.0473,-2.0654,-2.0949,-2.0907,-2.052,-2.0291,-1.9171,-1.7334,-1.61,-1.4484,-1.2646,-1.2175,-1.1137,-1.0007,-1.0378,-1.0402,-1.046,-1.2744,-1.3893,-1.4426,0.0,0.0,0.0,0.0,0.0,0.0,0.0,0.0,0.0,0.0,0.0,0.0,0.0,1.3584,1.2617,1.0833,0.8822,0.7615,0.754,0.669,0.7126,0.9215,1.0801,1.2632,1.4644,1.6787,1.8704,2.0354,2.173,2.2571,2.2952,2.2571,2.2258,2.2006,2.1247,2.0705,2.0351,2.0079,1.9775,1.9404,1.93,1.8603,1.7652,1.8019,1.7651,1.6558,1.3776,1.3425,1.4001,1.2615,1.2522,1.3108,1.3979,1.2879,1.1558,1.2636,0.4323,-0.7621,-1.8513,-2.1015,-2.1922,-2.7744,-3.0233,-3.091,-2.9488,-2.8372,-2.7961,-2.9145,-2.8772,-2.7895,-2.6876,-2.5651,-2.4429,-2.3355,-2.2373,-2.1277,-1.9963,-1.8744,-1.7388,-1.5916,-1.4762,-1.5732,-2.0026,-2.0817,-2.2206,-2.4985,-2.3814,-2.3329,-2.4166,-2.2332,-2.0757,-1.97,-1.8414,-1.7404,-1.6683,-1.7438,-1.7955,-1.8196,-1.8394,-1.8607,-1.8797,-1.8331,-1.7098,-1.5252,-1.4384,-1.2969,-1.1122,-0.9597,-0.8604,-0.8122,-0.8182,-0.8754,-0.9614,-1.114,-1.2043,-1.2638,0.0,0.0,0.0,0.0,0.0,0.0,0.0,0.0,0.0,0.0,0.0,0.0,0.0,1.4712,1.3863,1.2467,1.1084,1.0588,1.1389,1.1067,1.1921,1.4158,1.4856,1.6022,1.7907,1.9235,2.0749,2.2511,2.3914,2.4699,2.4915,2.4699,2.4352,2.3931,2.3943,2.3632,2.3072,2.2949,2.306,2.3234,2.2132,2.1384,2.1008,2.1549,2.0484,1.8448,1.6539,1.6558,1.7392,1.7072,1.6608,1.6189,1.6439,1.7063,1.7051,1.3606,0.5982,-0.2309,-0.6639,-1.439,-2.2279,-2.6444,-2.9373,-3.1067,-3.0416,-2.9691,-2.8464,-2.5958,-2.4354,-2.2937,-2.1654,-1.9575,-1.7934,-1.7657,-1.6925,-1.6361,-1.6441,-1.4643,-1.2969,-1.2001,-1.0007,-0.8826,0.0,-1.3678,-1.8074,-2.1407,-2.0998,-2.1141,-2.2411,-2.0325,-1.8785,-1.8087,-1.6143,-1.5097,-1.5067,-1.5117,-1.5655,-1.666,-1.6018,-1.6283,-1.7247,-1.6741,-1.5961,-1.4954,-1.3402,-1.2689,-1.2243,-0.6765,-0.5333,-0.6544,-0.5101,-0.6289,-0.882,-0.8891,-1.0102,-1.1697,0.0,0.0,0.0,0.0,0.0,0.0,0.0,0.0,0.0,0.0,0.0,0.0,0.0,0.0,0.0,0.0,1.3367,1.3313,1.4272,1.3737,1.4305,1.6198,1.7075,1.8202,1.9781,2.1208,2.2793,2.4517,2.487,2.5706,2.6962,2.6236,2.5983,2.6127,2.6372,2.6266,2.5895,2.6377,2.6472,2.6286,2.6063,2.5298,2.4287,2.4498,2.4163,2.3499,0.0,2.1146,1.9839,1.9416,1.9345,1.9516,1.9721,1.9672,1.8074,1.067,0.4113,-0.2631,-1.1354,-1.6948,-2.1318,-2.517,-2.6822,-2.6986,-2.5185,-2.3806,-2.2198,-1.961,-1.7546,-1.5835,-1.4461,-1.3739,-1.327,-1.2821,-1.3307,-1.3636,-1.3234,-1.176,-1.0045,-0.8296,-0.5656,-0.3906,-0.3616,0.0,0.0,-1.4575,-1.4139,-1.3331,-1.2433,-1.4482,-1.3876,-0.9907,-1.2476,-1.3599,-1.2883,-1.357,-1.4104,-1.4453,-1.0665,-0.847,-0.7693,-0.6596,-0.6202,-0.6251,-0.4845,-0.4121,-0.3676,-0.1377,-0.0814,-0.1314,-0.0948,-0.1635,-0.2874,-0.3389,-0.3958,-0.5149,0.0,0.0,0.0,0.0,0.0,0.0,0.0,0.0,0.0,0.0,0.0,0.0,0.0,0.0,0.0,0.0,0.0,1.5281,1.6169,1.6002,1.6715,1.8584,1.9654,2.084,2.2195,2.348,2.4801,2.6107,2.6105,2.6891,2.8416,2.7813,2.7799,2.8291,2.8828,2.8818,2.8429,2.9204,2.9272,2.8809,2.875,2.8201,2.7326,2.7146,2.6935,0.0,2.6453,2.5068,2.3244,2.2419,2.2473,2.275,2.2236,2.029,1.6573,0.8321,0.2881,-0.2628,-1.2638,-1.6399,-1.8272,-2.168,-2.2138,-2.1214,-1.9103,-1.7233,-1.5285,-1.2917,-1.0982,-0.931,-0.7911,-0.8335,-0.8592,-0.7794,-0.9087,-1.0113,-0.9872,-0.8101,-0.6302,-0.4849,-0.1836,0.0476,0.1375,-0.0864,0.0,-0.8238,-0.799,-0.7148,-0.5976,-0.7875,-0.714,-0.3036,-0.558,-0.6632,-0.5842,-0.6537,-0.6746,-0.6486,-0.3561,-0.1399,-0.0,0.0549,0.0942,0.1281,0.3468,0.4558,0.4806,0.5103,0.5363,0.5353,0.4317,0.404,0.4156,0.3683,0.3792,0.3158,0.0,0.0,0.0,0.0,0.0,0.0,0.0,0.0,0.0,0.0,0.0,0.0,0.0,0.0,0.0,0.0,0.0,0.0,1.7362,1.8027,1.9271,2.1358,2.2537,2.3767,2.5003,2.5922,2.669,2.7255,2.7612,2.8308,2.9328,2.9452,2.9826,3.0378,3.1237,3.1274,3.0732,3.1456,3.1455,3.0903,3.0351,3.013,3.0076,2.9465,2.8852,2.8353,2.8452,2.8095,2.7343,2.5957,2.5518,2.5252,2.3324,1.8729,1.2824,0.6686,0.2355,-0.2176,-0.9994,-1.2496,-1.3525,-1.6019,-1.5519,-1.4061,-1.2379,-1.0244,-0.8066,-0.6043,-0.462,-0.3319,-0.1973,-0.3073,-0.3798,-0.2729,-0.4305,-0.5819,-0.6448,-0.3938,-0.1895,-0.1591,0.1449,0.4254,0.5922,0.6678,0.0,-0.2189,0.0,-0.2411,-0.256,-0.047,0.1383,0.2807,0.4502,0.5508,0.5761,0.5846,0.6106,0.6561,0.5324,0.5063,0.5676,0.4884,0.543,0.7187,1.0845,1.2404,1.2331,1.2173,1.2467,1.2795,1.0349,1.0299,1.1604,1.1572,1.2392,1.2363,0.0,0.0,0.0,0.0,0.0,0.0,0.0,0.0,0.0,0.0,0.0,0.0,0.0,0.0,0.0,0.0,0.0,0.0,2.0294,2.0566,2.139,2.3096,2.3818,2.4574,2.5358,2.6095,2.7026,2.8166,2.8455,2.944,3.107,3.1106,3.1599,3.2455,3.3025,3.3218,3.3152,3.3788,3.3783,3.3316,3.3178,3.275,3.2135,3.1291,3.1205,3.1364,3.0163,2.9702,2.9179,2.6207,2.284,1.9287,1.5891,1.2102,0.8222,0.4583,0.0266,-0.394,-0.6919,-0.9197,-1.0627,-1.0195,-0.9378,-0.8031,-0.5426,-0.3121,-0.091,0.1225,0.2923,0.4216,0.4814,0.3375,0.163,0.0524,-0.0966,-0.2444,-0.3962,-0.2434,-0.0835,0.028,0.2826,0.5173,0.6989,0.8066,0.8207,0.0,0.5673,0.5914,0.8586,1.001,1.2262,1.565,1.672,1.7255,1.7335,1.8435,1.8426,1.7329,1.6157,1.4996,1.3887,1.353,1.2984,1.2404,1.3699,1.3755,1.3009,1.3411,1.362,1.3706,1.3404,1.3612,1.4154,1.4153,1.4367,1.4501,0.0,0.0,0.0,0.0,0.0,0.0,0.0,0.0,0.0,0.0,0.0,0.0,0.0,0.0,0.0,0.0,0.0,0.0,0.0,2.2603,2.3358,2.4825,2.5386,2.6064,2.6889,2.782,2.8537,2.9034,2.9654,3.0762,3.2275,3.2297,3.3004,3.4264,3.455,3.4476,3.4182,3.4941,3.4648,0.0,0.0,3.3971,3.342,3.2572,3.2718,3.3218,3.1743,2.9388,2.6402,2.2539,1.8646,1.4742,1.0831,0.7707,0.4834,0.1734,-0.1204,-0.3603,-0.4758,-0.5867,-0.6235,-0.4358,-0.2862,-0.1278,0.1175,0.34,0.5335,0.6732,0.8109,0.9099,0.9329,0.7043,0.4962,0.4559,0.2417,0.04,-0.0548,0.0629,0.1764,0.2208,0.4484,0.6623,0.8045,0.9486,1.0545,0.0,1.0036,1.0741,1.3851,1.5319,1.7431,2.0414,2.109,2.1545,2.1808,2.3309,2.3344,2.1917,2.1279,2.0135,1.8572,1.8366,1.7509,1.6223,0.0,1.6612,1.5404,1.647,1.6665,1.6396,1.6991,1.7337,1.7465,1.7465,1.7673,1.8008,0.0,0.0,0.0,0.0,0.0,0.0,0.0,0.0,0.0,0.0,0.0,0.0,0.0,0.0,0.0,0.0,0.0,0.0,0.0,0.0,2.5107,2.6527,2.6988,2.7716,2.8755,2.9869,3.0223,2.9751,3.0798,3.1828,3.2833,3.3012,3.3935,3.5446,3.5513,3.5155,3.4573,3.5371,3.4824,3.344,3.407,3.4371,3.4322,0.0,3.3693,3.4251,3.2645,2.8015,2.1987,1.7551,1.4107,1.0995,0.7372,0.4731,0.2311,-0.0845,-0.1744,-0.1964,-0.2713,-0.2261,-0.0994,0.1383,0.3573,0.5617,0.7369,0.9354,1.0946,1.1317,1.1999,1.2539,1.2518,0.9501,0.7438,0.8793,0.5962,0.3585,0.3465,0.4577,0.5136,0.4539,0.6538,0.8319,0.9234,1.0886,1.1969,1.2067,1.2411,1.3546,1.5555,1.7529,1.9328,2.0954,2.1329,2.1809,2.2459,2.3806,2.3993,2.3023,2.2933,2.2286,2.1158,2.0871,2.015,1.9204,0.0,0.0,1.8663,2.0119,2.0371,1.9902,2.0608,2.0934,2.1043,2.1005,2.1378,2.1885,0.0,0.0,0.0,0.0,0.0,0.0,0.0,0.0,0.0,0.0,2.1639,2.1275,0.0,0.0,0.0,0.0,0.0,0.0,0.0,0.0,0.0,2.7987,2.8254,2.8654,2.9175,2.9509,2.9793,3.003,3.0944,3.156,3.1943,3.2673,3.36,3.4602,3.468,3.5048,3.5627,3.5797,3.568,3.5347,3.4778,3.4969,3.5429,3.3853,0.0,0.0,3.112,2.6861,2.2173,1.6704,1.1687,0.7214,0.4577,0.2259,0.0444,-0.0315,0.0,0.0615,0.0915,0.2375,0.4327,0.6411,0.8767,1.103,1.2889,1.4631,1.5954,1.6418,1.6355,1.6134,1.599,1.3718,1.1824,1.1576,1.0507,0.9153,0.7609,0.8237,0.8593,0.8,0.8984,1.0031,1.0841,1.2276,1.3424,0.0,1.5615,1.6743,1.7126,1.9271,2.1498,2.3561,2.3295,2.3499,2.4328,2.4706,2.4819,2.4682,2.4114,2.3757,2.3567,2.287,2.2341,2.1983,2.2062,0.0,2.1431,2.1757,2.2175,2.2625,2.2772,2.322,2.3802,2.3729,2.384,2.3987,0.0,0.0,0.0,0.0,0.0,0.0,0.0,2.2712,2.2825,2.2738,2.2617,2.247,2.2319,2.2972,2.3664,0.0,0.0,0.0,0.0,0.0,0.0,0.0,0.0,0.0,2.9399,3.0074,3.0349,3.0147,0.0,3.1845,3.2397,3.2828,3.3768,3.5065,3.4669,3.4525,3.4547,3.4579,3.4342,3.3964,3.4414,3.4823,3.5123,0.0,0.0,0.0,3.0134,2.6311,2.2359,1.8218,1.3755,0.9182,0.5047,0.3162,0.2406,0.2295,0.3184,0.4465,0.5503,0.723,0.9318,1.1695,1.4094,1.6137,1.7243,1.8398,1.9194,1.8976,1.8504,1.8024,1.7842,1.6052,1.4419,1.4098,1.3211,1.2108,1.079,1.1107,1.1412,1.1007,1.1523,1.2169,1.2868,1.4197,1.523,1.5825,1.7566,1.8578,1.8433,2.0618,2.2451,2.3697,2.3658,2.3876,2.4478,2.4666,2.4535,2.4111,2.4039,2.3788,2.3379,2.3578,2.338,2.2896,2.3706,0.0,2.2647,2.3545,2.3873,2.3859,2.4282,2.4685,2.5014,2.4938,2.4936,2.4971,0.0,0.0,0.0,0.0,0.0,0.0,0.0,2.2876,2.3126,2.323,2.345,2.362,2.368,2.4269,2.4957,0.0,0.0,0.0,0.0,0.0,0.0,0.0,0.0,0.0,0.0,0.0,0.0,3.0535,3.1529,0.0,0.0,0.0,0.0,0.0,3.452,3.3884,3.3292,3.3375,3.3002,0.0,0.0,3.4397,0.0,0.0,0.0,0.0,0.0,2.6221,2.316,2.0437,1.7254,1.3561,0.8717,0.6802,0.6282,0.6245,0.7375,0.8927,1.003,1.1774,1.3918,1.6514,1.8789,2.0497,2.0896,2.1435,2.1541,2.0563,1.989,1.9419,1.9197,1.7714,1.6528,1.6546,1.5756,1.4878,1.4321,1.4479,1.4597,1.435,1.462,1.4874,1.5202,1.6406,1.7297,1.7623,1.9126,1.997,1.9802,2.1714,2.2923,2.3189,2.3588,2.3937,2.4208,2.441,2.4143,2.3475,2.3935,2.3774,2.3141,2.4101,2.4166,2.3595,2.4998,0.0,0.0,2.4978,2.5148,2.4628,2.5258,2.5495,2.5483,2.543,2.541,2.5428,0.0,0.0,0.0,0.0,0.0,0.0,0.0,2.3109,2.3445,2.3699,2.3963,2.4588,2.5855,2.5683,2.5809,0.0,0.0,0.0,0.0,0.0,0.0,0.0,0.0,0.0,0.0,0.0,0.0,3.1645,3.2551,0.0,0.0,0.0,0.0,0.0,0.0,3.3375,3.3297,3.3359,0.0,0.0,0.0,0.0,0.0,0.0,0.0,0.0,0.0,2.665,2.5296,2.2474,2.0668,1.9237,1.7083,1.4171,1.1609,1.1644,1.2689,1.3828,1.3755,1.557,1.7995,2.042,2.2111,2.3375,2.3882,2.3917,2.3407,2.1882,2.1267,2.086,2.0527,1.9404,1.869,1.9149,1.9091,1.9052,1.9342,1.9465,1.9365,1.8777,1.8975,1.8721,1.7712,1.8771,1.9497,1.9383,2.0652,0.0,2.1381,2.2513,2.3165,2.3189,2.3816,2.417,2.419,2.441,2.4458,2.4364,2.4745,2.4851,2.4793,2.5137,2.5249,2.5193,2.5476,0.0,0.0,2.549,2.5513,2.5391,2.5476,2.5504,2.5485,2.5428,2.5449,2.5476,0.0,0.0,0.0,0.0,0.0,0.0,2.2764,2.3102,2.3651,2.4527,2.4506,2.4982,2.6544,2.6479,2.6663,2.745,0.0,0.0,0.0,0.0,0.0,0.0,0.0,0.0,0.0,0.0,3.1946,3.2578,3.2966,0.0,0.0,0.0,0.0,0.0,0.0,3.3365,3.3282,3.2279,0.0,0.0,0.0,0.0,0.0,0.0,0.0,0.0,0.0,0.0,2.6179,2.4523,2.3546,2.2841,2.1932,2.0797,1.9198,1.6001,1.618,1.7519,1.809,2.0233,2.2857,2.5263,2.5953,2.6131,2.6377,2.5392,2.3864,2.2081,2.1648,2.1399,2.0953,2.0598,2.0291,2.0179,2.0511,2.0693,2.0416,2.072,2.0867,2.0604,2.0456,2.0035,1.9184,1.9587,2.0047,2.0413,2.1149,0.0,2.2003,2.2582,2.2996,2.3189,2.3649,2.3996,2.419,2.4266,2.4375,2.4512,2.4771,2.493,2.501,2.529,2.5399,2.5412,2.5499,0.0,0.0,2.5529,2.5512,2.5492,2.5503,2.5492,2.5492,2.5418,2.5421,2.5447,0.0,0.0,0.0,0.0,0.0,2.2764,2.2919,2.323,2.3905,2.5208,2.5169,2.5672,2.7346,2.742,2.7622,2.8327,2.8456,0.0,0.0,0.0,0.0,0.0,0.0,0.0,0.0,0.0,3.2764,3.3448,3.3798,3.4276,0.0,0.0,3.4973,3.5435,0.0,0.0,0.0,0.0,0.0,0.0,0.0,0.0,0.0,0.0,0.0,0.0,0.0,0.0,0.0,0.0,0.0,2.5377,2.4882,2.4822,2.4128,2.0023,1.9982,2.1511,2.2405,2.4461,2.6912,2.9476,2.9317,2.8592,2.8647,2.6825,2.4591,2.2598,2.2211,2.2069,2.1539,2.1485,2.1361,2.0736,2.1208,2.1549,2.1218,2.1575,2.1962,2.224,2.2023,2.1477,2.0462,2.0291,2.0472,2.1119,2.1568,0.0,2.2282,2.2563,2.2848,2.3189,2.3522,2.3858,2.4208,2.419,2.4266,2.4409,2.4607,2.4771,2.4858,2.5099,2.5228,2.529,2.5351,0.0,0.0,2.546,2.5461,2.5466,2.5447,2.5447,2.5447,2.539,2.537,2.537,0.0,0.0,0.0,0.0,0.0,0.0,2.3241,2.3584,2.4281,2.5618,2.6091,2.6917,2.86,2.867,2.8768,2.926,2.8868,0.0,0.0,0.0,0.0,0.0,0.0,0.0,0.0,0.0,3.4217,3.428,3.5301,3.5773,3.5779,3.4976,3.4608,3.4547,0.0,0.0,0.0,0.0,0.0,0.0,0.0,0.0,0.0,0.0,0.0,0.0,0.0,0.0,0.0,0.0,0.0,0.0,0.0,2.556,2.5077,2.3956,2.4731,2.606,2.6652,2.7953,2.9822,3.2634,3.2005,3.0675,3.067,2.851,2.59,2.3806,2.3334,2.3109,2.2491,2.2184,2.1779,2.1091,2.1411,2.1904,2.2515,2.27,2.3166,2.4142,2.4297,2.3608,2.1678,2.1164,2.1166,2.1552,2.2032,0.0,2.231,2.2563,2.2848,2.3189,2.3522,2.3858,2.4208,2.419,2.419,2.4227,2.441,2.4512,2.4512,2.4716,2.4883,0.0,0.0,0.0,0.0,2.5409,2.5409,2.539,2.5322,2.5303,2.5303,2.5303,2.5303,2.5303,0.0,0.0,0.0,0.0,0.0,0.0,0.0,2.3628,2.4484,2.6422,2.646,2.7014,2.8879,2.8785,2.8616,2.8633,2.8765,0.0,0.0,0.0,0.0,0.0,0.0,0.0,0.0,0.0,3.3647,3.4299,3.4061,3.3992,3.4029,3.4413,3.427,3.3619,3.3089,3.2499,0.0,0.0,0.0,0.0,0.0,0.0,0.0,0.0,0.0,0.0,0.0,0.0,0.0,0.0,0.0,0.0,0.0,0.0,0.0,2.6798,2.6639,2.6677,2.7255,2.8962,3.1001,3.2857,3.1755,3.0335,3.0793,2.8427,2.5603,2.3815,2.3471,2.3289,2.2814,2.2802,2.2846,2.2752,2.278,2.2924,2.3162,2.4523,2.5381,2.5203,2.4802,2.4275,2.3568,0.0,2.207,2.2338,0.0,0.0,2.2316,2.2388,2.2669,2.3165,2.3522,2.3858,2.4208,2.419,2.4266,2.441,2.4461,2.4559,2.47,2.4775,2.4864,0.0,0.0,0.0,0.0,2.5322,2.5322,2.5322,2.5303,2.5303,2.5274,2.5152,2.5099,2.5099,0.0,0.0,0.0,0.0,0.0,0.0,0.0,2.3842,2.48,2.6967,2.7075,2.7643,2.9477,2.939,2.9064,2.8854,2.8952,0.0,0.0,0.0,0.0,0.0,0.0,0.0,0.0,3.3412,3.3634,3.4218,3.3787,3.3461,3.3206,3.3485,3.3472,3.3177,3.2509,3.2097,0.0,0.0,0.0,0.0,0.0,0.0,3.2383,0.0,0.0,0.0,0.0,0.0,0.0,0.0,0.0,0.0,0.0,0.0,0.0,0.0,2.7898,2.786,2.8779,3.0248,3.1878,3.3225,3.1916,3.0373,3.0722,2.8314,2.5612,2.4138,2.3679,2.3402,2.311,2.3182,2.327,2.3187,2.3078,2.3137,2.3599,2.4864,2.5867,2.6116,2.5871,2.5514,0.0,2.4106,2.3506,2.3782,0.0,0.0,2.2704,2.2569,2.2669,2.3165,2.3392,2.3735,2.4208,2.419,2.4247,2.4393,2.4393,2.4444,2.4559,2.4559,2.4666,0.0,0.0,0.0,0.0,2.5115,2.5149,2.5192,2.5192,2.5224,2.5274,2.5163,2.5111,2.5111,0.0,0.0,0.0,0.0,0.0,0.0,0.0,2.4211,2.5155,2.7249,2.7798,2.8623,3.0315,3.0252,2.9999,2.9734,0.0,0.0,0.0,0.0,0.0,0.0,0.0,0.0,0.0,3.3499,3.3901,3.3887,3.4021,3.3713,3.2964,3.2292,3.2344,3.2939,3.137,3.1075,0.0,0.0,0.0,0.0,0.0,0.0,0.0,0.0,0.0,0.0,0.0,0.0,0.0,0.0,0.0,0.0,0.0,0.0,0.0,0.0,0.0,0.0,0.0,3.1644,3.2336,3.3484,3.2265,3.0692,3.0422,2.8224,0.0,2.4736,2.3999,2.3583,2.3487,2.3437,2.3264,2.3002,2.2684,2.285,2.3954,2.443,2.5315,2.7129,2.7394,2.7257,2.6773,2.5772,2.5295,2.5661,0.0,0.0,2.341,2.3027,2.29,2.3189,2.3212,2.3544,2.419,2.419,2.419,2.419,2.419,2.419,2.419,2.419,2.4321,0.0,0.0,0.0,0.0,2.4804,2.4864,2.4986,2.4986,2.5088,2.5253,2.5253,2.5243,2.5243,0.0,0.0,0.0,0.0,0.0,0.0,0.0,0.0,0.0,0.0,2.7788,2.8569,3.0298,3.022,2.9961,0.0,0.0,0.0,0.0,0.0,0.0,0.0,0.0,0.0,0.0,3.2187,3.1905,3.1819,3.1336,3.104,3.0917,3.1555,3.1554,3.1061,3.1332,3.1394,0.0,0.0,0.0,0.0,0.0,0.0,0.0,0.0,0.0,0.0,2.6778,2.6811,0.0,0.0,0.0,0.0,0.0,0.0,0.0,0.0,2.8719,2.9169,2.9609,0.0,3.1556,3.1532,3.0942,3.0118,0.0,2.7648,2.6101,2.5592,2.4925,2.4626,2.5248,2.4709,2.4394,2.5188,2.461,2.4322,2.5165,2.7253,2.8879,2.9522,2.9268,2.8519,2.713,2.6871,2.6657,0.0,0.0,2.5186,2.3477,2.3532,2.3493,2.3206,2.3437,2.3795,2.4208,2.419,2.419,2.419,2.419,2.419,2.419,2.419,2.4321,0.0,0.0,0.0,2.4804,2.4804,2.4832,2.4842,2.4842,2.4869,2.4896,2.4741,2.4682,2.4682,0.0,0.0,0.0,0.0,0.0,0.0,0.0,0.0,0.0,0.0,0.0,0.0,0.0,0.0,0.0,0.0,0.0,0.0,0.0,0.0,0.0,0.0,0.0,3.118,3.1939,3.1469,3.117,3.1101,3.0773,3.0466,3.0266,3.0865,3.0907,3.051,3.1272,3.1251,0.0,0.0,0.0,0.0,3.1766,0.0,0.0,0.0,0.0,0.0,2.6002,2.5928,0.0,2.6566,2.6094,2.5337,0.0,0.0,0.0,0.0,2.8422,2.8996,2.8858,2.9642,3.0409,2.9972,2.9501,2.8966,2.8256,2.6927,2.5743,2.5369,2.4722,2.4476,2.517,2.5091,2.5009,2.5256,2.5439,2.5717,2.6089,2.7298,2.8443,2.9303,2.903,2.8786,0.0,2.8356,2.8073,0.0,0.0,2.5862,2.3985,2.3893,2.3676,2.3224,2.3522,2.3858,2.4208,2.419,2.419,2.419,2.419,2.419,2.419,2.419,2.4266,0.0,0.0,0.0,2.451,2.451,2.4575,2.4654,2.4654,2.4716,2.479,2.467,2.4639,2.4639,0.0,0.0,0.0,0.0,0.0,0.0,0.0,0.0,0.0,0.0,0.0,0.0,0.0,0.0,0.0,0.0,0.0,0.0,0.0,0.0,0.0,0.0,0.0,3.0238,3.0875,3.0825,3.0753,3.0697,3.0707,3.0517,3.0189,3.0175,3.0317,3.0597,3.1085,3.0876,0.0,0.0,0.0,0.0,3.0916,0.0,0.0,0.0,0.0,0.0,0.0,0.0,0.0,2.5227,2.4706,2.3773,2.4481,0.0,0.0,0.0,0.0,0.0,2.7981,2.859,2.9216,2.8622,2.8121,2.7657,2.7046,2.595,2.4968,2.4596,2.4136,2.3909,2.4443,2.4898,2.4932,2.4347,2.5543,2.6823,2.7516,2.7197,2.7336,2.8521,2.8444,0.0,3.0068,2.9513,0.0,0.0,0.0,2.6218,2.476,2.4288,2.385,2.3377,2.3576,2.3858,2.4208,2.419,2.419,2.419,2.419,2.419,2.419,2.419,2.419,2.419,0.0,0.0,2.419,2.419,2.4303,2.4444,2.4444,2.4561,2.4716,2.4716,2.4716,2.4716,0.0,0.0,0.0,0.0,0.0,0.0,0.0,0.0,0.0,0.0,0.0,0.0,0.0,0.0,0.0,0.0,0.0,0.0,0.0,0.0,0.0,0.0,2.9495,2.9589,2.9429,2.9423,2.923,2.8912,2.8574,2.8821,2.9619,2.9325,2.9644,3.0424,3.047,3.0544,3.0715,0.0,0.0,0.0,3.0363,0.0,0.0,0.0,0.0,0.0,0.0,0.0,0.0,2.4498,2.3997,2.3171,2.4104,0.0,0.0,0.0,0.0,0.0,2.5694,2.7096,2.8559,2.7328,2.7146,2.6887,2.5239,2.442,2.4014,2.3889,2.3914,2.4084,2.4558,2.4082,2.3606,2.3663,2.5002,2.7271,3.1128,3.1171,3.0811,3.091,0.0,2.9916,2.9419,0.0,0.0,0.0,0.0,2.6996,2.5507,2.506,2.4634,2.4141,2.384,2.3858,2.4208,2.419,2.419,2.419,2.419,2.419,2.419,2.419,2.419,0.0,0.0,2.419,2.419,2.419,2.4209,2.4247,2.4247,2.4247,2.4284,2.4284,2.4284,2.4284,0.0,0.0,0.0,0.0,0.0,0.0,0.0,0.0,0.0,0.0,0.0,0.0,0.0,0.0,0.0,0.0,0.0,0.0,0.0,0.0,0.0,2.8518,2.8433,2.8421,2.8458,2.8359,2.8018,2.7458,2.7429,2.7922,2.8872,2.9543,3.007,3.0462,3.084,3.0939,3.0827,3.1362,3.1117,0.0,0.0,0.0,0.0,0.0,0.0,0.0,0.0,0.0,0.0,0.0,2.3144,2.2466,2.3463,0.0,0.0,0.0,0.0,0.0,2.4447,2.5095,2.5647,2.3657,2.553,2.7206,2.4959,2.4141,2.3708,2.3106,2.2598,2.236,2.2805,2.3185,2.4057,2.6063,2.578,2.65,2.9803,2.9253,2.899,0.0,0.0,2.9085,3.0244,0.0,0.0,0.0,0.0,0.0,2.5693,2.5411,2.5136,2.4706,2.4497,2.4342,2.4253,2.4447,2.4413,2.419,2.419,2.4428,2.4814,2.4392,2.4428,2.4814,0.0,2.419,2.419,2.419,2.419,2.419,2.419,2.419,2.419,2.419,2.419,2.419,0.0,0.0,0.0,0.0,0.0,0.0,0.0,0.0,0.0,0.0,0.0,0.0,0.0,0.0,0.0,0.0,0.0,0.0,0.0,0.0,2.7762,2.7794,2.7203,2.7016,2.7278,2.7157,2.6755,2.6068,2.6274,2.6995,2.814,2.9786,3.053,3.0548,3.108,3.1024,3.0544,3.103,3.0458,0.0,0.0,0.0,0.0,0.0,0.0,0.0,0.0,0.0,0.0,0.0,0.0,0.0,0.0,0.0,0.0,2.3472,2.4095,2.4462,2.3091,2.2957,2.2651,2.0217,2.3006,2.5739,2.3604,2.2867,2.2427,2.1684,2.0908,2.0471,2.0652,2.1842,2.3975,2.7497,2.6394,2.5985,2.8632,2.7891,2.7696,2.9296,2.8338,2.8565,0.0,0.0,0.0,0.0,0.0,0.0,2.593,2.5693,2.5479,2.527,2.4936,2.4644,2.4424,2.4503,2.4389,2.4094,2.417,2.4612,2.5384,2.4557,2.463,2.5366,2.4538,2.419,2.419,2.419,2.419,2.419,2.419,2.419,2.419,2.419,2.419,2.419,0.0,0.0,0.0,0.0,0.0,0.0,0.0,0.0,0.0,0.0,0.0,0.0,0.0,0.0,0.0,0.0,0.0,0.0,0.0,0.0,2.6384,2.7135,2.6007,2.5409,2.5499,2.5584,2.5246,2.4469,2.455,2.5601,2.7599,2.9516,3.0477,3.0589,3.0521,3.019,2.9687,2.9624,2.8764,2.7406,2.6536,0.0,0.0,0.0,0.0,0.0,0.0,0.0,0.0,0.0,0.0,0.0,0.0,0.0,2.1921,2.1801,2.1703,2.1491,2.0896,2.1015,2.0748,1.8537,1.9157,2.0083,1.9258,1.8844,1.8725,1.8886,1.9254,1.9416,1.8906,1.9728,2.164,2.5308,2.5813,2.6991,3.0511,0.0,3.028,3.0201,2.9748,0.0,0.0,0.0,0.0,0.0,0.0,0.0,2.6623,2.5981,2.5734,2.6018,2.4683,2.4234,2.4769,2.41,2.3768,2.3735,2.4054,2.4612,2.5384,2.4557,2.463,2.5366,2.4538,2.419,2.419,2.419,2.419,2.419,2.419,2.419,2.419,2.419,2.419,2.419,0.0,0.0,0.0,0.0,0.0,0.0,0.0,0.0,0.0,0.0,0.0,0.0,0.0,0.0,0.0,0.0,0.0,0.0,0.0,2.5981,2.6179,2.6549,2.5513,2.4642,2.4014,2.4425,2.411,2.3128,2.4857,2.6293,2.7487,2.9517,3.0498,3.0534,3.0477,3.0356,3.0079,2.9076,2.8053,2.7024,2.58,0.0,0.0,0.0,0.0,0.0,0.0,0.0,0.0,0.0,2.0828,2.0404,2.1003,2.0779,2.0412,2.0775,2.0284,1.9552,1.884,1.7864,1.6723,1.5191,1.4598,1.4706,1.6102,1.6702,1.6888,1.6428,1.6511,1.7041,1.8436,1.9462,2.1396,2.5337,2.6345,2.7383,2.9479,3.0237,3.0276,2.9491,2.9507,0.0,0.0,0.0,0.0,0.0,0.0,0.0,2.6691,2.6437,2.6131,2.58,2.5268,2.4842,2.4629,2.4103,2.3901,2.4076,2.4153,2.4612,2.5384,2.4557,2.463,2.5366,2.4538,2.419,2.419,2.419,2.419,2.419,2.419,2.419,2.419,2.419,2.419,2.419,0.0,0.0,0.0,0.0,0.0,0.0,0.0,0.0,0.0,0.0,0.0,0.0,0.0,0.0,0.0,0.0,0.0,0.0,2.4954,2.5324,2.5663,2.59,2.5178,2.435,2.3452,2.3718,2.339,2.2415,2.5137,2.691,2.7792,2.946,3.0085,2.9796,2.978,2.944,2.8771,2.7446,2.6393,2.5467,2.3991,2.2619,0.0,0.0,0.0,0.0,0.0,0.0,0.0,0.0,2.0021,1.9557,2.0035,1.9641,1.9046,1.9068,1.8328,1.7307,1.6578,1.4934,1.3294,1.2434,1.1243,1.0851,1.2563,1.3762,1.4529,1.4663,1.4917,1.5769,1.8158,1.9175,2.1042,2.5214,2.6329,2.7093,2.8487,2.9614,2.9786,2.8422,0.0,0.0,0.0,0.0,0.0,0.0,0.0,0.0,0.0,2.6471,2.6116,2.5625,2.5372,2.5062,2.4658,2.4167,2.4147,2.4653,2.4154,2.4415,2.5384,2.4814,2.4869,2.5384,2.4814,2.4428,2.419,2.419,2.419,2.419,2.419,2.419,2.419,2.419,2.419,2.419,0.0,0.0,0.0,0.0,0.0,0.0,0.0,0.0,0.0,0.0,0.0,0.0,0.0,0.0,0.0,0.0,0.0,0.0,2.4322,2.4353,2.4611,2.5264,2.4917,2.4465,2.3932,2.3588,2.3126,2.2537,2.511,2.7098,2.849,2.9285,2.9146,2.8249,2.817,2.7085,2.5214,2.4337,2.3407,2.2426,2.0719,2.0072,2.0156,0.0,0.0,0.0,0.0,0.0,0.0,0.0,1.9283,1.9315,1.7934,1.7753,1.7816,1.6535,1.5546,1.474,1.402,1.2374,1.0801,1.0516,0.9592,0.8677,0.8313,0.957,1.147,1.3745,1.4918,1.6028,1.8076,1.8584,2.0117,2.4762,2.5538,2.6175,2.7866,2.9088,2.9082,2.7239,0.0,0.0,0.0,0.0,0.0,0.0,0.0,0.0,0.0,2.5998,2.5609,2.5592,2.4864,2.4641,2.4977,2.4261,2.4443,2.55,2.3943,2.3979,2.5383,2.5403,2.5403,2.5403,2.5403,2.4944,2.419,2.419,2.419,2.419,2.419,2.419,2.419,2.419,2.419,2.419,0.0,0.0,0.0,0.0,0.0,0.0,0.0,0.0,0.0,0.0,0.0,0.0,0.0,0.0,0.0,0.0,0.0,0.0,2.4452,2.4392,2.4435,2.4735,2.3967,2.3845,2.4539,2.508,2.4897,2.3915,2.5348,2.6482,2.7304,2.7119,2.6541,2.5605,2.4714,2.3805,2.2859,2.1919,2.1333,2.0976,2.0117,1.9592,1.9271,0.0,0.0,0.0,0.0,0.0,0.0,0.0,0.0,0.0,1.6933,1.5974,1.4955,1.4324,1.3161,1.2052,1.1812,1.0438,0.9052,0.9101,0.8541,0.8249,0.9132,0.9216,0.9681,1.2114,1.462,1.6892,1.8213,1.9609,2.1453,2.4469,2.5327,2.6048,2.7344,2.8464,2.8587,2.7198,0.0,0.0,0.0,0.0,0.0,0.0,0.0,0.0,0.0,2.5998,2.5372,2.4831,2.4103,2.4011,2.4641,2.3925,2.4356,2.5918,2.5174,2.4873,2.4972,2.4454,2.4342,2.4557,2.4557,2.441,2.419,2.419,2.419,2.419,2.419,2.419,2.419,2.419,2.419,2.419,0.0,0.0,0.0,0.0,0.0,0.0,0.0,0.0,0.0,0.0,0.0,0.0,0.0,0.0,0.0,0.0,0.0,0.0,0.0,2.4459,2.4367,2.4503,2.41,2.438,2.5368,2.5905,2.5675,2.4712,2.532,2.5786,2.6095,2.4901,2.3752,2.2583,2.1837,2.0978,2.0131,1.9812,1.9654,1.9557,1.8999,1.876,1.8727,0.0,0.0,0.0,0.0,0.0,0.0,0.0,0.0,0.0,1.5891,1.4606,1.3368,1.233,1.1038,0.9913,0.9821,0.8805,0.7846,0.815,0.7956,0.8058,0.9554,1.0229,1.1048,1.2389,1.5102,1.7465,1.849,1.9894,0.0,2.4364,2.4748,2.5309,2.7132,2.7851,2.7884,0.0,0.0,0.0,0.0,0.0,0.0,0.0,0.0,0.0,0.0,2.5998,2.5406,2.4949,2.4509,2.434,2.4506,2.4052,2.4377,2.5459,2.508,2.481,2.4593,2.4765,2.4538,2.4016,2.4151,2.4373,2.4649,2.4318,2.419,2.419,2.419,2.419,2.419,2.419,2.419,2.419,0.0,0.0,0.0,0.0,0.0,0.0,0.0,0.0,0.0,0.0,0.0,0.0,0.0,0.0,0.0,0.0,0.0,0.0,0.0,0.0,2.4463,2.4576,2.5059,2.5561,2.6045,2.6061,2.5698,2.492,2.5034,2.4997,2.4723,2.2699,2.0952,1.947,1.9371,1.8567,1.7397,1.8046,1.8393,1.8429,1.7841,1.7918,1.8377,1.8105,0.0,0.0,0.0,0.0,0.0,0.0,0.0,0.0,1.4688,1.3468,1.2549,1.0609,0.9225,0.8315,0.8369,0.7688,0.7168,0.7627,0.8004,0.8501,0.9836,1.2415,1.4308,1.4046,1.6001,1.7988,1.8791,1.972,2.1351,2.4381,2.3977,2.4341,2.7035,2.7228,2.7109,0.0,0.0,0.0,0.0,0.0,0.0,0.0,0.0,0.0,0.0,2.5947,2.5507,2.5507,2.5372,2.5017,2.4421,2.4472,2.4506,0.0,2.4287,2.4252,2.4423,2.5792,2.5476,2.3774,2.4147,2.4667,2.5256,2.4575,2.4263,2.419,2.419,2.419,2.419,2.419,2.419,2.419,0.0,0.0,0.0,0.0,0.0,0.0,0.0,0.0,0.0,0.0,0.0,0.0,0.0,0.0,0.0,0.0,0.0,0.0,0.0,0.0,2.5291,2.5059,2.5324,2.5068,2.427,2.5255,2.5317,2.4359,2.4284,2.3599,2.2237,2.0641,1.881,1.6888,1.6974,1.6777,1.6481,1.7316,1.8232,1.9118,1.9004,1.8797,1.8588,1.8775,1.8459,0.0,0.0,0.0,0.0,0.0,0.0,0.0,1.2728,1.1431,1.0462,0.9067,0.8236,0.7753,0.7758,0.7517,0.7326,0.76,0.9344,1.1385,1.2731,1.4111,1.51,1.4663,1.6689,1.8774,1.9626,2.099,2.236,2.3511,2.3758,2.4402,2.6024,2.635,2.6425,0.0,0.0,0.0,0.0,0.0,0.0,0.0,0.0,0.0,2.6691,2.5439,2.4729,2.4729,2.3613,2.3207,2.363,2.4218,2.4506,0.0,2.5338,2.5466,2.4923,2.5147,2.4844,2.413,2.4831,2.4869,2.4483,2.4942,2.4759,2.419,2.419,2.419,2.419,2.419,2.419,2.419,0.0,0.0,0.0,0.0,0.0,0.0,0.0,0.0,0.0,0.0,0.0,0.0,0.0,0.0,0.0,0.0,0.0,0.0,0.0,0.0,2.528,2.4958,2.4752,2.4616,2.457,2.4497,2.3994,2.3008,2.1946,2.0976,2.0099,1.797,1.6192,1.4867,1.5496,1.5788,1.5951,1.7391,1.8449,1.9231,1.923,1.895,1.8513,1.8592,1.8276,1.7785,1.7482,0.0,0.0,0.0,0.0,0.0,0.0,0.0,1.0228,0.9426,0.8738,0.8455,0.9173,0.9129,0.9091,0.9548,1.1293,1.3006,1.3782,1.5091,1.6182,1.6352,1.7572,1.879,1.9238,2.0897,2.2336,2.2634,2.3029,2.392,2.5767,2.5636,2.5616,0.0,0.0,0.0,0.0,0.0,0.0,0.0,0.0,2.6691,2.6691,2.5964,2.5541,2.5541,2.4814,2.4255,2.3917,2.432,2.4137,2.3444,2.4597,2.51,2.502,2.4926,2.4838,2.4777,2.4795,2.4795,2.4777,2.4795,2.4575,2.419,2.419,2.419,2.419,2.419,2.419,2.419,0.0,0.0,0.0,0.0,0.0,0.0,0.0,0.0,0.0,0.0,0.0,0.0,0.0,0.0,0.0,0.0,0.0,0.0,0.0,0.0,0.0,2.4681,2.3996,2.3958,2.4563,2.3245,2.2022,2.0949,1.9061,1.8044,1.7936,1.5654,1.4272,1.3796,1.502,1.5787,1.6249,1.7963,1.8946,1.9344,1.9246,1.8823,1.8266,1.8092,1.7797,1.7384,1.6955,1.6807,1.6539,1.507,0.0,0.0,0.0,0.0,1.0633,1.0218,0.9639,0.9401,1.0687,1.087,1.0973,1.2037,1.3108,1.4064,1.4447,1.5783,1.7265,1.83,1.8487,1.8607,1.9036,2.0559,2.1867,2.2047,2.2302,2.3282,2.5564,2.4956,0.0,0.0,0.0,0.0,0.0,0.0,0.0,0.0,0.0,2.6691,2.6691,2.6454,2.6319,2.6319,2.6065,2.5338,2.412,2.4269,2.363,2.231,2.347,2.4189,2.4531,2.4784,2.5023,2.5164,2.463,2.4704,2.5164,2.4612,2.4318,2.419,2.419,2.419,2.419,2.419,2.419,2.419,0.0,0.0,0.0,0.0,0.0,0.0,0.0,0.0,0.0,0.0,0.0,0.0,0.0,0.0,0.0,0.0,0.0,0.0,2.4965,0.0,0.0,2.457,2.3841,2.2635,2.0868,2.0427,1.9487,1.7961,1.6715,1.5711,1.4988,1.5218,1.5174,1.4875,1.6342,1.7489,1.8323,1.9074,1.9732,2.0262,1.9793,1.8898,1.7783,1.7758,1.6831,1.5598,1.5746,1.506,1.4048,1.3605,1.287,0.0,0.0,0.0,1.0236,1.0033,0.9883,0.9865,1.0459,1.0847,1.1542,1.3228,1.3776,1.4447,1.6734,1.6919,1.7247,1.9358,1.9159,1.9097,2.0622,2.1122,2.1554,2.2302,2.2371,2.2892,2.4423,2.4075,0.0,0.0,0.0,0.0,0.0,0.0,0.0,0.0,2.6436,2.6691,2.6691,2.5473,2.4811,2.4811,2.3545,2.2801,2.2598,2.3224,2.3122,2.231,2.347,2.365,2.3047,2.4313,2.4693,2.4392,2.4999,2.4925,2.441,2.5017,2.4814,2.419,2.419,2.419,2.419,2.419,2.419,2.419,0.0,0.0,0.0,0.0,0.0,0.0,0.0,0.0,0.0,0.0,0.0,0.0,0.0,0.0,0.0,2.2797,2.3106,2.3672,2.4603,2.4717,2.441,2.3642,2.2613,2.1408,1.9959,1.8864,1.7797,1.6794,1.5302,1.4365,1.3938,1.4382,1.4534,1.4614,1.6258,1.7357,1.803,1.8654,1.8979,1.8958,1.8061,1.7223,1.6514,1.5727,1.4908,1.4122,1.3696,1.2824,1.1886,1.1827,1.1646,1.1363,1.0886,0.0,0.0,0.0,1.1939,1.2246,1.2979,1.3306,1.3667,1.469,1.4949,1.5373,1.6977,1.7377,1.7919,1.9331,1.9678,2.0014,2.071,2.1252,2.1587,2.1639,2.2005,2.2686,2.3806,2.345,0.0,0.0,0.0,0.0,0.0,0.0,0.0,0.0,2.6436,2.6522,2.6116,2.5473,2.4915,2.4523,2.3866,2.3325,2.2919,2.3241,2.3038,2.231,2.3238,2.3543,2.3405,2.4676,2.5008,2.459,2.4681,2.4777,2.485,2.4759,2.452,2.419,2.419,2.419,2.419,2.419,2.419,2.419,0.0,0.0,0.0,0.0,0.0,0.0,0.0,0.0,0.0,0.0,0.0,0.0,0.0,0.0,0.0,0.0,2.1921,2.2553,2.3869,2.37,2.3382,2.2921,2.1744,2.0483,1.9202,1.7585,1.6355,1.5568,1.4168,1.3433,1.3256,1.3492,1.3833,1.4261,1.5807,1.6779,1.7325,1.7673,1.7384,1.6621,1.521,1.4161,1.3313,1.231,1.1771,1.1519,1.0841,1.0286,0.9894,1.0092,1.0462,1.0898,1.1249,1.2067,0.0,0.0,0.0,1.4086,1.5071,1.5266,1.5342,1.6178,1.6425,1.6764,1.7681,1.8313,1.8914,1.9706,2.0358,2.081,2.0896,2.1435,2.1801,2.1404,2.1765,2.239,2.3231,2.2765,0.0,0.0,0.0,0.0,0.0,0.0,0.0,0.0,2.6268,2.6184,2.5642,2.5253,2.4797,2.4222,2.4036,2.3663,2.3122,2.3122,2.2852,2.231,2.3054,2.3522,2.3805,2.4963,2.5458,2.535,2.4764,2.4832,2.5348,2.452,2.419,2.419,2.419,2.419,2.419,2.419,2.419,2.419,0.0,0.0,0.0,0.0,0.0,0.0,0.0,0.0,0.0,0.0,0.0,0.0,2.2228,2.1711,2.1154,2.0639,2.0429,2.1011,2.259,2.2331,2.2359,2.2885,2.1936,0.0,1.7504,1.6393,1.5105,1.3525,1.3162,1.2752,1.2385,1.2888,1.353,1.4252,1.5362,1.6298,1.6965,1.6253,1.499,1.3375,1.1438,0.9307,0.7239,0.7063,0.69,0.6773,0.6923,0.74,0.8011,0.8527,0.9276,1.02,1.1449,1.2332,1.3019,0.0,0.0,0.0,1.522,1.5497,1.5828,1.7415,1.8002,1.87,2.0184,2.0229,2.0096,2.0976,2.1171,2.1311,2.1721,2.1889,2.1956,2.2234,2.1813,2.1799,2.2538,2.2152,2.2221,0.0,0.0,0.0,0.0,0.0,0.0,0.0,2.5782,2.5642,2.5609,2.4272,2.3494,2.346,2.2784,2.2412,2.2361,2.2361,2.2344,2.231,2.3054,2.3422,2.3468,2.4855,2.5941,2.6659,2.5736,2.5366,2.5348,2.452,2.419,2.419,2.419,2.419,2.419,2.419,2.419,2.419,0.0,0.0,0.0,0.0,0.0,0.0,0.0,0.0,0.0,0.0,0.0,0.0,0.0,2.0447,1.958,1.9129,2.0035,2.1128,2.227,2.2997,2.3216,2.28,2.1593,1.9497,1.6402,1.5886,1.4606,1.2463,1.3227,1.3279,1.2711,1.3457,1.4054,1.4508,1.4748,1.5222,1.5737,1.4041,1.1844,0.9336,0.6535,0.3981,0.1732,0.0727,0.0913,0.1824,0.2861,0.3848,0.5104,0.7612,0.0,0.0,1.1729,1.2912,1.3784,1.4471,1.4977,1.5322,1.571,1.59,1.6166,1.6868,1.7501,1.8202,1.9203,1.9516,1.9807,2.0642,2.1269,2.1701,2.1874,2.2108,2.2171,2.1868,2.1929,2.2088,2.2034,2.2194,2.2665,0.0,0.0,0.0,0.0,0.0,0.0,0.0,0.0,2.5203,2.4239,2.368,2.3173,2.2716,2.2446,2.231,2.231,2.231,2.231,2.2327,2.3528,2.4103,2.415,2.587,2.6557,2.6387,2.5967,2.5925,2.6062,2.474,2.419,2.419,2.419,2.419,2.419,2.419,2.419,2.419,0.0,0.0,0.0,0.0,0.0,0.0,0.0,0.0,0.0,0.0,0.0,0.0,0.0,0.0,1.8142,1.753,1.8807,2.0262,2.164,2.2886,2.3376,2.2924,2.1627,1.9374,1.6114,1.563,1.4361,1.2253,1.3238,1.3522,1.3173,1.3707,1.4076,1.4383,1.4127,1.4204,1.4371,1.1951,0.8943,0.5534,0.1789,-0.1154,-0.3413,-0.4793,-0.432,-0.2708,-0.1029,0.0924,0.3328,0.0,0.0,0.0,1.2596,1.3846,1.4595,1.517,1.5589,1.596,1.6359,1.6565,1.6738,1.7329,1.7841,1.846,1.9388,1.9962,2.0514,2.1202,2.1846,2.2389,2.2389,2.258,2.2432,2.1606,2.2008,2.2259,2.178,2.23,2.292,0.0,0.0,0.0,0.0,0.0,0.0,0.0,0.0,0.0,2.4188,2.3663,2.3054,2.2327,2.231,2.231,2.231,2.231,2.231,2.2327,2.3528,2.4269,2.4557,2.6199,2.6645,2.6202,2.5958,2.5912,2.5935,2.4701,2.419,2.419,2.419,2.419,2.419,2.419,2.419,2.419,0.0,0.0,0.0,0.0,0.0,0.0,0.0,0.0,0.0,2.0167,0.0,0.0,0.0,0.0,0.0,1.599,1.674,1.8276,2.0678,2.1789,2.2624,2.3232,2.1976,1.975,1.6531,1.5484,1.4294,1.2861,1.3027,1.333,1.3696,1.3497,1.3575,1.3828,1.353,1.3303,1.2908,1.0054,0.644,0.2166,-0.25,-0.5903,-0.8286,-0.9455,-0.879,-0.6847,-0.4683,-0.1271,0.0,0.6373,0.0,0.0,1.4159,1.5017,1.5237,1.5554,1.5811,1.6211,0.0,0.0,0.0,1.8988,1.9441,1.98,2.0894,2.1627,2.2272,2.2631,2.3005,2.3313,2.329,2.3228,2.2799,2.175,2.2076,2.2259,2.1808,2.2314,2.292,0.0,0.0,0.0,0.0,0.0,0.0,0.0,2.4951,2.5028,2.5542,2.4188,2.3071,2.2361,2.2327,2.231,2.231,2.231,2.231,2.231,2.3054,2.3765,2.4506,2.5635,2.6143,2.6103,2.5639,2.5223,2.4834,2.4365,2.419,2.419,2.419,2.419,2.419,2.419,2.419,2.419,0.0,0.0,0.0,0.0,0.0,0.0,1.5222,1.674,1.814,0.0,0.0,0.0,1.7922,1.6029,1.5015,1.5501,1.727,1.9249,2.1377,2.2745,2.31,2.2314,2.1063,1.8692,1.5057,1.4949,1.3925,1.1895,1.3227,1.3847,1.3718,1.4114,1.4268,1.4292,1.3579,1.2474,1.0913,0.8461,0.456,-0.0358,-0.4369,-0.8138,-1.1434,-1.2136,-1.1628,-1.0114,0.0,-0.3411,-0.0779,0.0,0.7588,0.8995,0.0,1.4198,1.4808,1.4903,1.5626,1.6536,1.7013,0.0,0.0,0.0,0.0,0.0,2.0282,2.1668,2.2801,2.2539,2.3548,2.4257,2.342,2.3558,2.3558,2.2963,2.3004,2.2913,2.2399,2.2908,2.3421,0.0,0.0,0.0,0.0,0.0,0.0,0.0,2.5023,2.5226,2.4814,2.39,2.3308,2.3105,2.2581,2.231,2.231,2.231,2.231,2.231,2.3054,2.3511,2.3714,2.4594,2.4675,2.4176,2.4278,2.4093,2.3672,2.3783,2.3976,2.419,2.419,2.419,2.419,2.419,2.419,2.419,0.0,0.0,0.0,0.0,0.0,1.3838,1.4374,1.5565,1.6675,0.0,0.0,0.0,1.5005,1.4093,1.3996,1.5147,1.7205,1.9177,2.0858,2.1766,2.1579,2.0118,1.8641,1.6345,1.3237,1.3405,1.2935,1.1688,1.2913,1.3653,1.3902,1.4057,1.4035,1.3826,1.2802,1.1106,0.8915,0.6455,0.2891,-0.1578,-0.6097,-0.9628,-1.2219,-1.2959,-1.2668,0.0,0.0,0.0,-0.086,0.4957,0.8219,0.0,0.0,1.3765,1.424,1.4816,1.5765,1.6802,1.741,1.8402,1.931,1.9483,0.0,0.0,2.084,2.2076,2.3318,0.0,2.4529,2.4986,2.4068,2.3961,2.3936,2.3809,2.3798,2.3713,2.3519,2.3766,2.4029,0.0,0.0,0.0,0.0,2.4389,2.4775,2.4569,2.5299,2.553,2.4983,2.4255,2.3714,2.341,2.2682,2.231,2.231,2.231,2.231,2.231,2.275,2.3105,2.341,2.3833,2.3799,2.3422,2.3608,2.351,2.323,2.3414,2.3774,2.419,2.419,2.419,2.419,2.419,2.419,2.419,0.0,0.0,1.2521,1.1679,1.1783,1.2289,1.3315,1.3771,1.4451,0.0,1.4875,1.3463,1.1994,1.2473,1.3423,1.4677,1.6501,1.8129,1.9306,1.9373,1.8641,1.704,1.5349,1.3365,1.113,1.1361,1.1553,1.1659,1.2243,1.3025,1.4071,1.3552,1.3112,1.2754,1.1423,0.948,0.6986,0.4349,0.1397,-0.1928,-0.7127,-1.0009,-1.124,-1.226,-1.1957,-1.045,-0.6687,-0.3138,0.0577,0.5364,0.9783,0.0,0.0,0.0,0.0,0.0,1.6055,1.6992,1.7984,1.892,1.9712,2.0159,2.0187,0.0,2.2029,2.2886,2.3734,0.0,2.5591,2.5586,2.4933,2.4532,2.4351,2.4582,2.4693,2.4766,2.4797,2.4749,2.4686,0.0,0.0,0.0,2.3729,2.4326,2.4869,2.5198,2.5762,2.5979,2.5728,2.5017,2.4306,2.3663,2.2852,2.2429,2.2429,2.2344,2.231,2.231,2.231,2.2649,2.3274,2.3274,2.3274,2.3274,2.3274,2.3254,2.3189,2.3189,2.3606,2.419,2.419,2.419,2.419,2.419,2.419,2.419,1.0448,1.0555,1.048,1.0117,1.0529,1.1088,1.1484,1.24,1.305,1.3064,1.2028,1.0934,1.0119,1.0756,1.188,1.3424,1.4529,1.5602,1.6619,1.6209,1.5307,1.3789,1.2583,1.1112,0.9261,0.9892,1.0272,1.0282,1.1405,1.2365,1.3208,1.2812,1.2288,1.1653,1.003,0.7997,0.5619,0.2596,0.0125,-0.1961,-0.5026,-0.7158,-0.8706,-0.9399,-0.9038,-0.7967,-0.5501,-0.357,-0.1392,0.4143,0.8221,1.124,0.0,0.0,0.0,1.4576,0.0,0.0,0.0,0.0,0.0,0.0,0.0,0.0,2.2053,2.3329,2.4312,2.4118,2.5477,2.6352,2.5266,2.5512,2.6061,2.6391,2.6823,2.6679,2.5509,2.5364,2.542,2.542,0.0,0.0,2.4433,2.5808,2.6333,2.5262,2.6052,2.6522,2.6488,2.5795,2.5321,2.5186,2.3883,2.319,2.319,2.2598,2.231,2.231,2.231,2.2395,2.2513,2.2513,2.2513,2.2513,2.2513,2.2771,2.3189,2.3189,2.3606,2.419,2.419,2.419,2.419,2.419,2.419,2.419,0.9138,0.9306,0.9309,0.8937,0.9205,0.961,0.9794,0.9861,0.9844,0.9901,0.8984,0.8306,0.8082,0.8962,1.0132,1.1505,1.2184,1.2789,1.3358,1.2436,1.1245,0.9834,0.8539,0.7388,0.639,0.7593,0.8573,0.916,1.0637,1.165,1.2159,1.1332,1.0466,0.953,0.779,0.5883,0.3811,0.1079,-0.0716,-0.2101,-0.4906,0.0,-0.6865,-0.7255,-0.683,-0.5686,-0.3691,-0.144,0.1219,0.5142,0.7933,0.0,1.1911,1.3056,1.3787,0.0,1.5677,1.7149,0.0,0.0,0.0,2.0337,0.0,0.0,0.0,2.3925,2.5015,2.5151,2.609,2.6637,2.6013,2.5987,2.6314,2.6977,2.7443,2.7414,2.6683,2.6592,2.6587,2.6587,0.0,0.0,2.5151,2.6176,2.664,2.6102,2.6795,2.7097,2.6708,2.5998,2.5609,2.5609,2.4171,2.3393,2.3393,2.3038,2.2665,2.231,2.2682,2.2665,2.231,2.231,2.231,2.231,2.231,2.2544,2.2972,2.3117,2.35,2.3976,2.4133,2.419,2.419,2.419,2.419,2.419,0.7888,0.8072,0.8109,0.7797,0.7961,0.8123,0.8286,0.7532,0.6912,0.6897,0.5927,0.5238,0.5381,0.6005,0.6691,0.7408,0.7499,0.7747,0.8178,0.6783,0.5378,0.4147,0.3396,0.2739,0.209,0.4458,0.6418,0.7781,0.9552,1.0608,1.1003,0.9709,0.8377,0.7074,0.5184,0.3493,0.1812,-0.0468,-0.1631,-0.2183,-0.4965,-0.5758,-0.5421,-0.5431,-0.4778,-0.3671,-0.1731,0.102,0.409,0.631,0.7789,0.9082,1.1481,1.2613,0.0,0.0,0.0,0.0,0.0,0.0,0.0,0.0,0.0,2.1984,0.0,0.0,0.0,2.6043,2.6335,2.6438,2.6411,2.6185,0.0,0.0,0.0,0.0,0.0,2.7771,0.0,2.7423,0.0,0.0,0.0,2.6306,2.6753,2.7283,2.7644,2.7549,2.6945,2.6353,2.5964,2.5828,2.4526,2.3765,2.3613,2.346,2.3105,2.253,2.297,2.2953,2.2513,2.2378,2.231,2.231,2.231,2.2436,2.2721,2.2996,2.33,2.3631,2.4036,2.419,2.419,2.419,2.419,2.419,0.5727,0.5775,0.5689,0.6009,0.6793,0.7269,0.6937,0.6889,0.6351,0.4709,0.2841,0.1468,0.0971,0.006,-0.0786,-0.1618,-0.2761,-0.2845,-0.1504,-0.3123,-0.453,-0.53,-0.3077,-0.2772,-0.4845,0.0,0.3521,0.557,0.7652,0.9023,0.9626,0.8259,0.6629,0.4716,0.2695,0.0931,-0.0621,-0.2341,-0.2805,-0.2376,-0.3521,-0.405,0.0,-0.3474,-0.2876,-0.2018,0.0204,0.1812,0.3222,0.0,0.706,0.8382,0.0,1.2527,1.406,1.3695,0.0,0.0,0.0,0.0,0.0,0.0,2.0732,0.0,0.0,0.0,2.3947,2.4318,0.0,2.572,2.544,0.0,0.0,0.0,0.0,0.0,2.8282,2.8217,2.7815,2.6899,2.7121,0.0,0.0,2.7089,2.7635,2.8837,2.831,2.7827,2.7688,2.7587,2.7266,2.659,2.5778,2.5033,2.4388,2.3714,2.3359,2.3274,2.2699,2.2733,2.3241,2.2598,2.231,2.231,2.231,2.2436,2.2695,2.2746,2.2947,2.3323,2.3937,2.419,2.419,2.419,2.419,2.419,0.3645,0.4381,0.4849,0.5371,0.599,0.6416,0.6366,0.5192,0.387,0.2423,0.1292,0.0549,0.0318,-0.0425,-0.1994,-0.4681,-0.6515,-0.7493,0.0,0.0,-0.9263,-0.7841,-0.6998,-0.6693,-0.6885,-0.3237,0.0058,0.2834,0.5191,0.6791,0.7672,0.6292,0.4528,0.2335,0.0857,-0.0342,-0.1218,-0.2497,-0.2409,0.0,0.0,-0.241,0.0,-0.21,-0.1214,0.0136,0.1614,0.2678,0.3758,0.0,0.7112,0.0,0.0,0.0,0.0,1.3192,0.0,0.0,0.0,0.0,0.0,0.0,0.0,0.0,2.284,0.0,2.4605,0.0,0.0,0.0,0.0,0.0,0.0,0.0,2.8068,0.0,0.0,0.0,2.8222,0.0,0.0,0.0,0.0,0.0,0.0,0.0,2.9182,2.9265,2.8023,2.8286,2.8146,2.7368,2.6623,2.5676,2.4523,2.4201,2.3596,2.2767,2.2885,2.2885,2.275,2.2446,2.231,2.231,2.231,2.236,2.249,2.2634,2.2797,2.2972,2.3649,2.3917,2.3937,2.4132,2.419,2.419,0.0899,0.2512,0.3838,0.4839,0.5496,0.5756,0.5467,0.3425,0.1566,0.039,-0.0688,-0.1363,-0.1428,-0.2754,-0.5006,-0.8477,-1.1308,-1.3016,0.0,0.0,-1.457,-1.2958,-1.1693,-1.1108,-1.1291,-0.7448,-0.3893,-0.0583,0.2273,0.4329,0.5467,0.4494,0.2891,0.0674,-0.0409,-0.1196,-0.1621,-0.2473,-0.207,-0.0859,-0.1294,-0.1134,-0.069,-0.0743,0.02,0.1721,0.2625,0.3353,0.4246,0.6427,0.7241,0.0,1.0284,0.0,1.2582,0.0,0.0,0.0,1.5514,0.0,0.0,0.0,0.0,0.0,0.0,0.0,0.0,0.0,0.0,0.0,0.0,0.0,2.6736,2.7428,0.0,2.8119,0.0,2.7859,0.0,0.0,0.0,0.0,0.0,0.0,0.0,2.8497,3.0315,3.0649,2.8787,2.9247,2.9042,2.7823,2.7283,2.6285,2.4814,2.4608,2.3951,2.2902,2.3038,2.2919,2.2598,2.2395,2.231,2.231,2.231,2.231,2.231,2.25,2.2599,2.2652,2.33,2.371,2.3916,2.4127,2.419,2.4226,-0.283,-0.0358,0.2163,0.4121,0.523,0.5397,0.3853,0.1902,0.0137,-0.1339,-0.3747,0.0,0.0,0.0,0.0,0.0,0.0,-2.1558,-2.0601,0.0,-2.2366,0.0,0.0,-1.6792,0.0,-1.3695,-0.8324,-0.4912,-0.1057,0.1558,0.3041,0.3195,0.2099,0.007,-0.1074,-0.1767,-0.2189,-0.2792,-0.2265,-0.0902,-0.1217,-0.0276,0.1141,0.0,0.1252,0.2565,0.3299,0.0,0.0,0.6534,0.7398,0.0,0.0,0.0,0.0,0.0,0.0,0.0,0.0,0.0,0.0,1.8435,0.0,0.0,0.0,0.0,2.4532,0.0,0.0,0.0,0.0,0.0,2.6247,2.6688,2.6741,0.0,0.0,0.0,0.0,0.0,0.0,0.0,0.0,0.0,0.0,3.0631,3.1628,3.1637,3.0199,3.0771,3.0108,2.7857,2.7772,2.708,2.5592,2.4847,2.4489,2.4421,2.3004,2.2699,2.3342,2.2632,2.231,2.231,2.231,2.231,2.231,2.231,2.2293,2.2377,2.2982,2.3691,2.4373,2.4229,2.419,2.43,-0.351,-0.1828,0.0191,0.2685,0.3708,0.3449,0.1468,-0.0692,0.0,0.0,-0.5355,0.0,0.0,-0.8309,-1.1125,0.0,0.0,-2.1377,-2.27,-2.3365,0.0,0.0,0.0,-1.9346,0.0,0.0,-1.2496,-0.7693,-0.4651,-0.167,0.1198,0.1672,0.102,-0.07,-0.1509,-0.177,-0.1435,-0.1356,-0.0597,0.0587,0.0,0.1824,0.2541,0.0,0.0,0.345,0.4221,0.4513,0.0,0.6696,0.7293,0.7526,0.9295,1.0746,1.1819,1.2027,1.3078,0.0,0.0,0.0,1.7646,1.8489,0.0,0.0,0.0,0.0,0.0,0.0,0.0,0.0,0.0,2.5892,2.6269,2.7063,2.7036,2.712,0.0,0.0,0.0,0.0,0.0,0.0,0.0,0.0,0.0,2.9577,3.1653,3.2459,3.114,3.1624,3.1343,3.0091,2.9093,2.7858,2.6336,2.5592,2.4729,2.3765,2.3274,2.2902,2.2665,2.2412,2.231,2.231,2.231,2.231,2.231,2.231,2.231,2.2372,2.3309,2.3962,2.4437,2.485,2.4979,2.4962,-0.4537,-0.3149,-0.1369,0.151,0.205,0.1344,0.0,0.0,0.0,0.0,-0.6639,0.0,-0.6659,0.0,-1.0514,0.0,-1.7073,-2.0064,-2.216,-2.3021,0.0,-2.3682,-2.2237,-2.2223,0.0,0.0,0.0,0.0,-0.8687,-0.4842,-0.0735,0.0469,0.0339,-0.083,-0.1433,-0.1095,-0.0147,-0.0074,0.066,0.1855,0.0,0.3259,0.0,0.0,0.4105,0.3958,0.0,0.4967,0.5426,0.6768,0.7384,0.7846,0.9538,1.0654,1.1434,1.1978,1.2788,1.3809,1.5233,1.644,0.0,1.8574,2.0499,0.0,2.2247,0.0,0.0,0.0,0.0,0.0,0.0,0.0,2.5959,2.6723,2.6801,2.6868,0.0,2.7,0.0,0.0,2.8823,2.9744,0.0,3.1353,3.1678,3.0692,3.2176,3.2738,0.0,0.0,3.2001,3.1224,2.9753,2.8383,2.7114,2.6099,2.5135,2.4188,2.3917,2.3528,2.3088,2.3088,2.3088,2.3088,2.3088,2.2936,2.2699,2.2699,2.2547,2.2406,2.3467,2.4104,2.4508,2.5321,2.5886,2.6135,-0.5915,-0.4472,-0.2661,0.0259,0.0206,0.0,0.0,0.0,-0.6401,0.0,-0.7763,-0.793,-0.7385,-0.9524,-1.1163,-1.1561,-1.5148,-1.7962,-1.9317,-2.0457,0.0,0.0,-2.3668,-2.5171,-2.9423,0.0,0.0,0.0,-1.2923,-0.7675,-0.2619,-0.0537,0.0202,-0.0405,-0.0641,0.0,0.1331,0.1006,0.1643,0.2917,0.372,0.3946,0.3895,0.4658,0.4607,0.42,0.4455,0.511,0.5988,0.6842,0.7725,0.8667,1.0172,1.124,1.2011,1.2641,1.3411,1.4292,1.5389,1.6244,1.7153,1.8675,0.0,0.0,0.0,0.0,2.3291,0.0,0.0,0.0,0.0,0.0,0.0,2.5863,2.6047,2.6198,2.6456,2.6497,2.6752,2.744,2.812,2.965,3.2435,3.1667,3.1746,3.3545,3.297,3.2558,0.0,0.0,3.2067,3.1343,2.9871,2.8704,2.7892,2.6437,2.5676,2.5592,2.4881,2.4557,2.4506,2.4472,2.4455,2.4455,2.4421,2.3985,2.3342,2.3342,2.2936,2.2406,2.344,2.4156,2.4644,2.5668,2.6749,2.7622,-0.6861,-0.6108,-0.5541,0.0,-0.3973,-0.4171,0.0,0.0,0.0,0.0,-0.9591,-0.9245,-0.8073,-0.873,-0.9236,-0.9172,-1.1669,0.0,0.0,0.0,0.0,-2.2141,-2.2481,-2.4476,-2.8407,-2.5515,-2.2229,-1.872,0.0,-0.7865,-0.241,-0.0537,0.0679,0.1178,0.1003,0.1447,0.2516,0.2749,0.3602,0.4733,0.497,0.4674,0.0,0.0,0.5311,0.482,0.5127,0.574,0.6504,0.7274,0.8009,0.8803,0.9734,1.0834,1.1866,1.2019,1.2926,1.4104,1.5232,1.6036,1.686,1.8473,2.0042,2.1222,0.0,0.0,0.0,0.0,0.0,0.0,0.0,0.0,0.0,2.6165,2.6103,2.5649,2.4919,2.5162,0.0,2.649,2.7273,2.8275,2.9453,3.0386,3.0943,3.1014,3.1566,3.2349,0.0,0.0,0.0,3.2823,3.1393,3.0006,2.8687,2.7723,2.6691,2.5609,2.5423,2.5033,2.4489,2.3917,2.3663,2.3646,2.3105,2.2767,2.2581,2.2581,2.2479,2.2378,2.3221,2.4629,2.6215,2.6377,2.664,2.6796,-0.8128,-0.7906,-0.7828,-0.7646,0.0,0.0,-0.7492,-0.8637,0.0,-1.017,-1.0065,0.0,-0.8096,-0.8365,-0.8289,-0.7479,-0.8926,0.0,-1.2639,0.0,0.0,-1.8575,-2.1023,-2.4159,-2.8129,-2.6941,0.0,-2.0457,0.0,-0.9667,-0.2933,-0.0937,0.0613,0.1609,0.1581,0.2252,0.3336,0.4013,0.47,0.5254,0.5322,0.5226,0.0,0.5726,0.6052,0.6184,0.6401,0.674,0.7182,0.7919,0.8593,0.937,1.0356,1.1216,1.1864,1.2187,1.3006,1.4063,1.5207,1.595,1.675,1.8175,1.9545,2.0456,2.0118,2.1043,2.1902,0.0,0.0,0.0,0.0,0.0,0.0,2.5333,2.4941,2.4505,0.0,0.0,0.0,0.0,2.6697,2.7363,2.7697,2.9053,3.0064,3.0335,3.0357,0.0,0.0,0.0,0.0,3.2417,3.1965,3.0801,2.9045,2.8552,2.7571,2.6082,2.6082,2.5693,2.4966,2.4543,2.4188,2.3849,2.3427,2.3071,2.2784,2.2784,2.2598,2.2406,2.3423,2.5048,2.6766,2.665,2.7053,2.7548,-0.9672,-0.9701,-0.9854,0.0,0.0,0.0,0.0,-0.9546,0.0,-1.0329,0.0,-0.898,-0.7668,-0.7946,-0.7576,-0.6126,0.0,-0.7704,-0.8814,-1.0746,-1.2738,-1.4877,-1.9364,-2.3886,-2.821,-2.8634,-2.6652,0.0,0.0,-1.1634,-0.3274,-0.1141,0.0479,0.1696,0.1881,0.2696,0.3984,0.4871,0.5161,0.5067,0.5413,0.5751,0.6053,0.6229,0.6912,0.7723,0.783,0.783,0.7931,0.8639,0.9325,1.0167,1.1416,1.1913,1.2169,1.2803,1.3515,1.423,1.5261,1.594,1.6662,1.7793,1.8967,1.9727,1.921,2.0038,2.0899,2.093,2.1307,2.2053,0.0,0.0,0.0,2.4094,0.0,0.0,0.0,0.0,0.0,0.0,0.0,0.0,2.6726,2.7839,2.9085,3.0295,0.0,0.0,0.0,0.0,0.0,3.1632,3.2152,0.0,2.9296,0.0,2.8264,2.6843,2.6742,2.6302,2.5609,2.5507,2.505,2.4371,2.4239,2.3833,2.3257,2.3257,2.2885,2.2445,2.3866,2.525,2.6481,2.6577,2.7493,2.8594,-1.1073,-1.1612,-1.1944,0.0,0.0,-1.1325,-1.1072,-1.1076,-1.0839,-1.0232,-0.9532,-0.8583,-0.731,-0.6511,-0.5759,-0.5006,-0.551,0.0,0.0,0.0,0.0,-1.3449,-1.7701,-2.2492,-2.7651,-2.7294,-2.513,0.0,0.0,-1.0013,-0.1377,-0.0069,0.1706,0.3797,0.367,0.4006,0.4718,0.495,0.0,0.5396,0.6152,0.6311,0.6173,0.7472,0.7875,0.7777,0.8374,0.8586,0.8692,0.9399,1.0056,1.0762,1.1566,1.255,1.3474,1.3589,1.4411,1.5332,1.5516,1.6009,1.6629,1.7307,1.8336,1.9331,1.9649,2.0684,2.1555,2.1566,2.2381,2.329,2.3806,0.0,0.0,0.0,0.0,0.0,0.0,0.0,0.0,0.0,0.0,2.6736,2.5766,2.6973,2.7915,2.805,0.0,0.0,0.0,0.0,0.0,0.0,3.3482,0.0,0.0,0.0,2.8518,2.7621,2.6996,2.6302,2.5592,2.4966,2.4272,2.3562,2.2953,2.2615,2.2496,2.2496,2.2429,2.2445,2.3866,2.4559,2.4953,2.6162,2.6778,2.7016,-1.2226,-1.2457,-1.2337,-1.1054,0.0,0.0,0.0,-1.0633,-1.0863,-1.0542,-0.9017,-0.7751,-0.7071,-0.6108,-0.5254,-0.4678,-0.4831,-0.5234,-0.58,-0.7042,-0.8856,-1.1356,-1.5293,-1.966,-2.4383,-2.5322,-2.397,-2.0213,0.0,0.0,-0.2472,-0.056,0.1221,0.2869,0.3595,0.428,0.0,0.0,0.0,0.5975,0.6306,0.6782,0.7284,0.7918,0.8213,0.8368,0.9047,0.9309,0.9413,1.0115,1.0762,1.1516,1.2492,1.3283,1.3862,1.419,1.4915,1.5588,1.5588,1.6051,1.6637,1.7146,1.7958,1.8764,1.9292,2.0339,2.133,2.1626,2.2659,2.3603,2.402,2.4714,0.0,0.0,0.0,0.0,0.0,0.0,2.5937,0.0,0.0,0.0,0.0,0.0,0.0,0.0,0.0,0.0,0.0,0.0,0.0,0.0,0.0,0.0,0.0,0.0,0.0,2.7772,2.6674,2.5744,2.5,2.4255,2.3528,2.2818,2.2462,2.231,2.231,2.231,2.231,2.2496,2.4313,2.5009,2.5162,2.6217,2.6612,2.6612,-1.263,-1.2508,0.0,0.0,-1.1133,0.0,-0.9218,-0.9464,-0.9869,-1.0091,-0.8233,-0.6847,-0.6606,-0.5836,-0.5058,-0.4574,-0.4519,-0.4732,-0.5269,-0.5797,-0.7185,-0.9621,-1.2976,-1.6668,-2.0787,-2.2871,-2.2064,0.0,0.0,0.0,0.0,-0.1365,0.044,0.0,0.0,0.0,0.0,0.0,0.6065,0.662,0.6711,0.7426,0.8387,0.8244,0.8543,0.9061,0.9614,0.9961,1.032,1.0813,1.1458,1.2199,1.3426,1.4003,1.4272,1.4732,1.5332,1.5776,1.5776,1.6139,1.6637,1.7146,1.7752,1.8336,1.899,1.9991,2.0995,2.1685,2.2727,2.373,2.4317,2.459,0.0,0.0,0.0,0.0,0.0,0.0,0.0,0.0,0.0,0.0,2.4533,0.0,0.0,0.0,0.0,0.0,0.0,0.0,0.0,0.0,0.0,3.2584,3.0396,0.0,2.9134,0.0,2.6556,2.5372,2.4489,2.3883,2.3139,2.231,2.231,2.231,2.231,2.231,2.2395,2.2717,2.4594,2.5443,2.5643,2.6162,2.6447,2.6594,0.0,0.0,0.0,0.0,0.0,0.0,-0.887,-0.7901,-0.7451,-0.7928,-0.6998,-0.6108,-0.569,-0.5022,-0.457,-0.4519,-0.4519,-0.4515,-0.457,-0.5349,-0.692,-0.9348,-1.1502,-1.4455,-1.8325,-1.9641,-1.837,0.0,0.0,0.0,0.0,0.0,0.0,0.0,0.0,0.0,0.0,0.6082,0.6557,0.6997,0.8122,0.8517,0.8446,0.8883,0.9362,0.971,0.9762,1.0568,1.1616,1.1665,1.2141,1.2822,1.3569,1.4549,1.5443,1.5499,1.5964,1.6423,1.6423,1.6479,1.6637,1.7146,1.7707,1.842,1.953,2.0264,2.0998,2.2018,2.302,2.3963,2.491,2.4102,2.3342,0.0,0.0,0.0,0.0,0.0,2.8246,2.6877,0.0,0.0,2.2996,2.3538,2.3714,0.0,2.3405,0.0,0.0,0.0,0.0,3.231,0.0,3.102,3.1273,2.9279,0.0,2.8856,2.7317,2.5845,2.4506,2.4438,2.363,2.231,2.231,2.231,2.231,2.231,2.2699,2.3379,2.4199,2.4931,2.5496,2.5503,2.597,2.6502,0.0,0.0,0.0,0.0,0.0,0.0,0.0,-0.686,-0.6642,-0.598,-0.5577,-0.5324,-0.5458,-0.4893,-0.4519,-0.4519,-0.4519,-0.4519,-0.4519,-0.4887,-0.5822,-0.7385,-0.9089,-1.1416,-1.4521,-1.5416,-1.4836,0.0,0.0,0.0,0.0,0.0,0.0,0.0,0.0,0.4665,0.5641,0.6508,0.718,0.7707,0.8342,0.8806,0.915,0.8987,0.9316,0.9865,1.0261,1.1015,1.1913,1.2745,1.3178,1.3511,1.4143,1.4915,1.5676,1.6051,1.6293,1.6522,1.6522,1.6752,1.7118,1.7666,1.8185,1.8798,1.9595,2.0258,2.0881,2.1563,2.2767,2.372,2.3703,2.3047,2.2436,0.0,0.0,0.0,0.0,0.0,0.0,2.645,0.0,2.5263,2.3367,2.314,2.3079,2.3003,0.0,0.0,0.0,0.0,0.0,3.1566,0.0,3.118,3.1374,2.8904,2.7882,2.846,2.6512,2.543,2.5118,2.4239,2.3274,2.231,2.231,2.231,2.231,2.231,2.2479,2.2869,2.3971,2.4885,2.56,2.598,2.6631,2.72,-0.94,0.0,-0.8693,0.0,-0.7571,-0.7167,-0.5418,-0.5435,-0.522,-0.4195,-0.3975,-0.4289,-0.5124,-0.4787,-0.4519,-0.4519,-0.4519,-0.4536,-0.4584,-0.4629,-0.5181,-0.6233,-0.734,0.0,-1.1088,-1.1753,-1.1605,-1.0721,-0.894,0.0,0.0,0.0,0.0,0.0,0.3917,0.5078,0.6226,0.7095,0.7891,0.8569,0.8731,0.9143,0.9677,0.9234,0.951,1.0167,1.0864,1.1657,1.255,1.3474,1.405,1.4411,1.4824,1.5377,1.5964,1.638,1.6522,1.6522,1.668,1.6993,1.7463,1.8185,1.8612,1.9043,1.9566,2.0158,2.0792,2.1557,2.254,2.3172,2.2764,2.2073,2.1481,2.1332,0.0,0.0,0.0,2.4813,0.0,2.5541,2.5128,2.4378,2.3222,2.2842,2.2679,0.0,0.0,0.0,0.0,0.0,0.0,0.0,0.0,0.0,0.0,2.8286,2.7377,2.8079,2.6089,2.5295,2.5558,2.4069,2.3122,2.2632,2.2632,2.2513,2.2344,2.2784,2.2818,2.2768,2.4156,2.524,2.6017,2.6431,2.7255,2.8007,-0.8526,-0.7922,-0.7326,-0.6493,-0.5152,-0.4261,-0.4186,-0.3253,-0.2521,-0.2519,-0.2325,-0.2788,-0.4349,-0.4519,-0.4519,-0.4519,-0.4519,-0.4584,-0.4677,-0.4691,-0.5233,0.0,0.0,-0.7578,-0.8624,-0.9137,-0.8841,-0.7859,0.0,0.0,-0.3754,0.0,0.1455,0.2503,0.3864,0.5533,0.7314,0.7933,0.87,0.9501,0.9605,0.9679,0.9735,0.9756,1.0218,1.0864,1.1566,1.2648,1.3768,1.3768,1.4584,1.5588,1.5588,1.6008,1.6479,1.6522,1.6522,1.6637,1.7146,1.7312,1.7544,1.8612,1.8893,1.9043,1.9566,2.0,2.0771,2.236,2.2475,2.2387,2.2644,2.1342,2.0469,2.1162,0.0,0.0,0.0,0.0,0.0,2.4185,2.534,2.5095,2.204,2.2919,0.0,0.0,0.0,0.0,0.0,0.0,0.0,2.9282,2.887,0.0,2.9546,2.7454,2.6972,2.8079,2.6652,2.5844,2.5558,2.4069,2.3393,2.3376,2.3376,2.297,2.2412,2.3866,2.4036,2.3532,2.4944,2.6003,2.6766,2.665,2.7622,2.8755,-0.6067,-0.5315,-0.459,-0.408,-0.3619,-0.3219,-0.3041,-0.2756,-0.2421,-0.2317,-0.2261,-0.2397,-0.2899,-0.34,-0.368,0.0,-0.3735,-0.3697,0.0,-0.3297,-0.3221,-0.3722,-0.387,-0.4169,-0.4705,-0.4873,-0.4814,-0.4599,0.0,0.0,0.0,0.1581,0.3104,0.3846,0.4955,0.5992,0.7106,0.7879,0.8514,0.9068,0.9504,0.9559,0.9395,0.9669,1.0218,1.0864,1.1566,1.2648,1.3862,1.4283,1.496,1.5676,1.6095,1.6337,1.6522,1.6522,1.6522,1.6637,1.7146,1.7585,1.8027,1.8727,1.9169,1.9551,2.0019,2.0682,2.1324,2.1831,2.2124,2.2144,2.163,2.0794,2.0196,2.0203,2.0023,0.0,0.0,0.0,2.3667,2.3583,2.346,2.298,0.0,2.2143,0.0,0.0,0.0,0.0,0.0,0.0,0.0,0.0,2.916,0.0,2.9574,2.7097,2.6421,2.746,2.6105,2.5494,2.5575,2.4577,2.3866,2.3393,2.3393,2.3274,2.3088,2.3562,2.3613,2.3418,2.3544,2.4233,2.5248,2.5989,2.7082,2.8191,-0.433,-0.3749,-0.3118,-0.2947,-0.2561,-0.2223,-0.2085,-0.1797,-0.1511,-0.1376,-0.1351,-0.1397,-0.1397,-0.2009,0.0,-0.2899,-0.2899,-0.2914,-0.3008,-0.249,-0.233,-0.2556,-0.2572,-0.2667,-0.2927,0.0,0.0,-0.3123,-0.2212,-0.0746,0.128,0.3004,0.4019,0.4449,0.5701,0.6634,0.7405,0.8113,0.8775,0.9327,0.944,0.9406,0.926,0.9933,1.0415,1.0914,1.1882,1.3044,1.419,1.456,1.5242,1.6008,1.638,1.6522,1.6522,1.6522,1.6637,1.6909,1.7463,1.7987,1.8535,1.908,1.9573,2.007,2.0682,2.1228,2.1658,2.1823,2.2106,2.202,2.1166,2.0553,2.01,1.9732,1.9778,2.0254,2.1501,0.0,0.0,0.0,0.0,0.0,0.0,2.058,2.0422,0.0,0.0,0.0,0.0,0.0,0.0,2.8441,2.8915,0.0,2.9205,2.7051,2.6291,2.6871,2.5949,2.5678,2.5998,2.5253,2.4661,2.4239,2.4239,2.4069,2.3816,2.4103,2.39,2.3405,2.3502,2.392,2.4537,2.5655,2.6609,2.7383,-0.3297,-0.2954,0.0,0.0,-0.1769,0.0,-0.1033,-0.0376,0.0183,0.0177,0.0114,0.0056,0.0056,-0.0559,-0.1284,-0.2009,0.0,0.0,0.0,-0.217,-0.2173,-0.2486,-0.2504,-0.2576,-0.2714,-0.2787,-0.2751,-0.2679,-0.0793,0.1095,0.2999,0.3873,0.4334,0.448,0.6168,0.7387,0.8292,0.8622,0.9272,1.0007,0.9402,0.9225,0.9336,1.0387,1.0813,1.1074,1.2412,1.3658,1.4698,1.4698,1.5522,1.6522,1.6522,1.6522,1.6522,1.6522,1.6879,1.7435,1.7947,1.8496,1.9043,1.9566,2.0035,2.0567,2.143,2.1628,2.1764,2.2209,2.231,2.202,2.1166,2.0602,2.0135,1.9803,2.0043,2.0438,2.0926,0.0,0.0,0.0,0.0,0.0,0.0,1.841,1.8471,0.0,0.0,0.0,0.0,0.0,2.6672,2.7865,2.8106,2.8315,2.8532,2.7245,2.6546,2.6373,2.6128,2.6262,2.6674,2.5947,2.5609,2.5609,2.5609,2.5169,2.4557,2.5236,2.4678,2.3473,2.4437,2.4619,2.4424,2.5494,2.6164,2.6429,0.0,0.0,-0.0475,0.0203,0.0463,0.0778,0.1605,0.1718,0.1715,0.1879,0.1312,0.0838,0.0838,0.0168,-0.0336,-0.0504,-0.1062,-0.1401,-0.1413,-0.083,-0.0552,-0.0622,-0.0655,-0.0675,-0.0679,-0.007,0.0633,0.1336,0.2478,0.332,0.3909,0.4706,0.5515,0.6302,0.6601,0.7483,0.8657,0.8786,0.9057,0.9376,0.9236,0.9363,0.9716,1.0498,1.1116,1.1665,1.2559,1.3658,1.4698,1.4698,1.5522,1.6522,1.6522,1.6522,1.6522,1.6522,1.6879,1.7435,1.7947,1.8496,1.9043,1.9566,2.0277,2.0959,2.1491,2.1899,2.218,2.2282,2.231,2.202,2.1166,2.091,2.0667,2.0212,2.055,2.0846,2.0991,2.1374,0.0,0.0,1.8979,1.8138,1.7317,1.6536,1.6317,0.0,0.0,0.0,0.0,2.3264,2.4983,2.7193,2.7513,2.7754,2.7829,2.6991,2.6489,2.6265,2.6091,2.6262,2.6674,2.5947,2.5609,2.5609,2.5609,2.5169,2.4523,2.4678,2.4205,2.3359,2.3056,2.3154,2.3584,2.4455,2.5154,2.5731,-0.0343,0.0134,0.0791,0.1711,0.1818,0.1911,0.2413,0.2426,0.2371,0.2359,0.1919,0.1619,0.1619,0.1229,0.1007,0.1008,0.0,-0.062,-0.0572,-0.024,0.0186,0.0566,0.0591,0.0806,0.1208,0.1701,0.2412,0.3418,0.3799,0.4279,0.4812,0.5225,0.5929,0.6802,0.7001,0.7729,0.8778,0.8913,0.9055,0.9176,0.9044,0.9358,0.9865,1.0517,1.1216,1.1913,1.2618,1.3658,1.4698,1.4698,1.5522,1.6522,1.6522,1.6522,1.6552,1.6795,1.7229,1.7787,1.8341,1.8855,1.9427,2.0139,2.0632,2.115,2.1764,2.2106,2.231,2.231,2.2135,2.1781,2.1134,2.0829,2.0583,2.0348,1.9921,1.9775,2.0162,1.9436,0.0,1.773,1.6791,1.5988,1.545,1.5381,1.5607,1.6005,0.0,0.0,2.1373,2.2791,2.4634,2.69,2.6945,2.7129,2.7575,2.6617,2.6153,2.619,2.5805,2.6016,2.6674,2.6285,2.6099,2.6099,2.6099,2.5879,2.5473,2.5135,2.4763,2.4323,2.3596,2.3378,2.3586,2.4141,2.4472,2.4707,0.1332,0.1369,0.1534,0.2491,0.2672,0.2622,0.2617,0.2695,0.2738,0.2603,0.2462,0.2343,0.2343,0.2287,0.2178,0.2183,0.1064,0.034,0.035,0.0363,0.0686,0.1469,0.1516,0.1876,0.2678,0.2811,0.3385,0.437,0.4268,0.4678,0.5552,0.5621,0.6063,0.6863,0.7458,0.8142,0.8896,0.9099,0.9157,0.9097,0.8911,0.9263,1.0012,1.0568,1.1266,1.208,1.2803,1.3742,1.4698,1.4789,1.5567,1.6522,1.6522,1.6522,1.6637,1.7229,1.7747,1.8224,1.8727,1.9281,1.9925,2.0764,2.0991,2.1229,2.2106,2.231,2.231,2.231,2.1928,2.1491,2.1055,2.0616,2.0261,2.01,1.8958,1.8257,1.8811,0.0,1.5775,1.5314,1.4524,1.3867,1.369,1.4622,1.5447,1.595,1.9253,2.1239,0.0,2.2986,2.4748,2.6644,2.6287,2.6578,2.7575,2.6273,2.5787,2.6211,2.5543,2.5672,2.659,2.6657,2.6691,2.6691,2.6691,2.664,2.6488,2.5862,2.5541,2.5372,2.4729,2.4325,2.4108,2.4251,2.4135,2.3916,0.2254,0.2148,0.2352,0.3279,0.3329,0.3527,0.4381,0.4329,0.4219,0.4295,0.3632,0.3123,0.313,0.2573,0.2181,0.2176,0.2009,0.1847,0.186,0.2026,0.2157,0.229,0.241,0.2544,0.2678,0.3411,0.4292,0.5192,0.5169,0.5239,0.5463,0.6152,0.6832,0.7428,0.8258,0.8801,0.9134,0.9167,0.9044,0.8871,0.8824,0.9562,1.0661,1.0762,1.1584,1.2813,1.3457,1.4097,1.4789,1.5276,1.5908,1.6522,1.6522,1.6522,1.668,1.7706,1.8027,1.8224,1.8727,1.9281,1.9925,2.0764,2.0991,2.1229,2.2106,2.231,2.231,2.231,2.1928,2.1491,2.1055,2.0616,2.001,1.9161,1.8755,1.8129,1.7061,0.0,1.5174,1.388,1.2958,1.2731,1.3364,1.3743,1.4612,1.6387,1.877,2.0508,2.134,2.2549,2.3927,2.5375,2.5456,2.6193,2.7575,2.6273,2.5864,2.6383,2.5568,2.5524,2.612,2.6505,2.6691,2.6691,2.6691,2.6353,2.5761,2.5659,2.5236,2.4675,2.4557,2.4633,2.4774,2.4444,2.445,2.459,0.3013,0.2938,0.3113,0.4014,0.4142,0.4216,0.4616,0.4958,0.5193,0.5121,0.51,0.5105,0.5054,0.444,0.4042,0.4155,0.3733,0.3492,0.3522,0.2885,0.2724,0.3203,0.3338,0.3613,0.4148,0.4553,0.4957,0.5428,0.5428,0.5577,0.5811,0.625,0.6966,0.7985,0.821,0.8661,0.9176,0.9017,0.9138,0.9361,0.9361,1.0167,1.1366,1.1366,1.199,1.2968,1.36,1.419,1.4789,1.541,1.6008,1.6522,1.6522,1.6522,1.6637,1.7422,1.8302,1.9006,1.9244,1.953,1.9925,2.0764,2.0991,2.1229,2.2106,2.231,2.2237,2.1974,2.1568,2.115,2.0715,2.0024,1.9376,1.8774,1.7338,0.0,0.0,1.4221,1.3175,1.289,1.2586,1.2742,1.3679,1.4286,1.5195,1.6513,1.8851,2.0508,2.0969,2.2308,2.3599,2.4616,2.555,2.6165,2.6527,2.5914,2.55,2.5335,2.5251,2.5486,2.6013,2.6487,2.6691,2.6691,2.6691,2.6505,2.6184,2.6184,2.5981,2.5642,2.5236,2.5178,2.5223,2.4378,2.4249,2.4462,0.3719,0.373,0.3935,0.4747,0.4862,0.4933,0.4974,0.5561,0.5936,0.5782,0.6253,0.6583,0.6578,0.6072,0.5835,0.5961,0.5398,0.5083,0.5262,0.4171,0.3663,0.4026,0.4259,0.4686,0.5362,0.5325,0.5436,0.5567,0.5632,0.5868,0.6436,0.6666,0.735,0.8259,0.8238,0.8515,0.9125,0.9058,0.9316,0.9814,0.9969,1.0762,1.1814,1.1814,1.2236,1.3027,1.3732,1.4329,1.4789,1.5555,1.6107,1.6522,1.6522,1.6522,1.6637,1.7312,1.8535,1.969,1.969,1.969,1.9925,2.0764,2.0991,2.1229,2.2106,2.2209,2.2032,2.1688,2.1102,2.0534,1.9997,1.9156,1.8285,1.7558,0.0,0.0,0.0,1.2627,1.1841,1.2314,1.2555,1.3174,1.4309,1.5062,1.5945,1.6952,1.9175,2.043,2.0495,2.1934,2.3198,2.4296,2.5767,2.636,2.6078,2.5764,2.5304,2.466,2.5013,2.5411,2.5835,2.6436,2.6691,2.6691,2.6691,2.6691,2.6691,2.6691,2.6691,2.664,2.6082,2.5862,2.5725,2.4775,2.447,2.4509,0.4564,0.4525,0.4639,0.5344,0.5454,0.5668,0.6317,0.6495,0.6554,0.6534,0.6588,0.6573,0.6602,0.6538,0.6548,0.6524,0.6475,0.6559,0.6887,0.6729,0.6063,0.4841,0.5155,0.5362,0.5428,0.522,0.5459,0.6148,0.6278,0.6555,0.7031,0.8138,0.8349,0.7948,0.8732,0.8976,0.8891,0.9472,0.9762,0.9865,1.0466,1.1166,1.1814,1.1814,1.2236,1.3065,1.4201,1.4663,1.488,1.6064,1.6466,1.6522,1.6522,1.6522,1.671,1.7747,1.8817,1.969,1.969,1.969,1.9925,2.0764,2.0991,2.1229,2.2106,2.1957,2.1658,2.1628,2.0602,1.9489,1.8848,1.7979,1.6629,1.443,0.0,0.0,1.1894,1.2274,1.2685,1.2439,1.271,1.3627,1.524,1.545,1.6279,1.8243,1.9282,1.995,2.0194,2.1129,2.248,2.4447,2.581,2.6782,2.7425,2.6213,2.5555,2.5528,2.5284,2.5221,2.5297,2.628,2.6691,2.6691,2.6691,2.6691,2.6691,2.6691,2.6691,2.6691,2.664,2.6623,2.6538,2.6121,2.5697,2.5358,0.5892,0.5821,0.5878,0.615,0.6204,0.6258,0.6534,0.6966,0.7289,0.7289,0.767,0.799,0.7972,0.7558,0.7289,0.7411,0.6911,0.6683,0.6961,0.7072,0.6894,0.6285,0.6229,0.6347,0.6685,0.6101,0.6307,0.7319,0.7129,0.7389,0.7892,0.8491,0.8681,0.8473,0.9466,0.9707,0.9465,1.0167,1.0661,1.1065,1.1316,1.1832,1.2501,1.2501,1.289,1.3552,1.4387,1.4926,1.5377,1.6194,1.6522,1.6522,1.6522,1.6522,1.671,1.7787,1.8612,1.9281,1.9603,1.969,1.9854,2.0431,2.055,2.0715,2.1354,2.1354,2.107,2.0469,1.9943,1.9214,1.7954,1.7152,1.6164,1.4499,0.0,1.3292,1.213,1.249,1.2955,1.3124,1.3705,1.4582,1.5771,1.5856,1.6455,1.7968,1.8844,1.9602,2.018,2.1006,2.2418,2.4431,2.5015,2.5839,2.6961,2.6063,2.5405,2.4986,2.4813,2.4855,2.5221,2.5944,2.6436,2.6691,2.6691,2.6691,2.6691,2.6691,2.6691,2.6691,2.6691,2.642,2.593,2.5326,2.4856,2.4436,0.6789,0.6804,0.6915,0.6939,0.7025,0.716,0.7246,0.7723,0.8049,0.8049,0.848,0.8804,0.8804,0.8336,0.8074,0.8178,0.7724,0.7538,0.7734,0.8099,0.8057,0.7414,0.72,0.7297,0.7671,0.7033,0.7191,0.8239,0.8074,0.8249,0.8838,0.9107,0.9201,0.9312,1.0002,1.0227,1.0167,1.0813,1.1366,1.1814,1.203,1.2452,1.2881,1.2881,1.3152,1.36,1.4433,1.4971,1.5466,1.6238,1.6522,1.6522,1.6522,1.6637,1.6909,1.7827,1.8496,1.9006,1.9566,1.969,1.9782,2.0177,2.0314,2.0416,2.0894,2.0781,2.04,1.9713,1.898,1.8026,1.6673,1.5731,1.483,1.3697,1.3188,1.2729,1.2229,1.2704,1.3267,1.3682,1.4353,1.5117,1.6047,1.6125,1.6598,1.7853,1.8522,1.9217,2.0033,2.0841,2.2159,2.4207,2.4401,2.5194,2.6587,2.6138,2.5585,2.4926,2.4774,2.4811,2.4973,2.5689,2.6191,2.647,2.6624,2.6691,2.6691,2.6691,2.6691,2.6691,2.6691,2.6251,2.5541,2.5033,2.4445,2.3838,0.7188,0.7327,0.757,0.7703,0.7995,0.8361,0.8745,0.8811,0.8811,0.8804,0.8804,0.8804,0.8804,0.8811,0.8811,0.8811,0.9042,0.9329,0.9658,1.0262,0.9818,0.8104,0.804,0.7991,0.8021,0.7797,0.8051,0.8795,0.893,0.9228,0.9686,0.998,1.0203,1.0307,1.0307,1.0484,1.0864,1.1516,1.1814,1.1864,1.2618,1.2881,1.2881,1.2881,1.2929,1.3065,1.4247,1.4709,1.4892,1.6107,1.6522,1.6522,1.6522,1.6879,1.7435,1.7947,1.8496,1.9006,1.9566,1.969,1.9782,2.0193,2.0314,2.0416,2.0862,2.0249,1.957,1.957,1.755,1.5567,1.4916,1.3552,1.2238,1.1352,1.179,1.2129,1.1868,1.2802,1.3662,1.4029,1.4521,1.5117,1.6037,1.6115,1.6697,1.82,1.8315,1.8765,1.9733,2.0351,2.1628,2.3636,2.4246,2.5194,2.6587,2.6587,2.6258,2.56,2.5435,2.5029,2.443,2.5503,2.6013,2.6049,2.6521,2.6691,2.6691,2.6691,2.6691,2.6691,2.6691,2.6251,2.5592,2.5592,2.4889,2.388,0.8577,0.8627,0.8689,0.8747,0.8848,0.8929,0.907,0.9057,0.9038,0.8831,0.8804,0.8804,0.8804,0.8985,0.9057,0.9057,0.9349,0.9679,0.9959,1.012,1.0141,0.9818,0.9244,0.9017,0.9215,0.8749,0.9013,1.0039,0.9839,1.0013,1.0415,1.0666,1.0751,1.0685,1.1372,1.1645,1.1566,1.2246,1.2559,1.2608,1.2822,1.2881,1.2881,1.2881,1.343,1.4201,1.456,1.5242,1.602,1.638,1.6522,1.6522,1.6522,1.6879,1.7435,1.7947,1.8496,1.9006,1.9566,1.969,1.9726,1.9839,1.9874,1.9823,1.9564,1.9043,1.8223,1.7159,1.5996,1.4767,1.344,1.3033,1.2696,1.1993,1.2339,1.2676,1.2589,1.288,1.333,1.4,1.4248,1.4668,1.5527,1.5605,1.6229,1.769,1.879,1.9478,1.9759,2.0351,2.1628,2.3636,2.4246,2.5194,2.6587,2.6138,2.557,2.4911,2.4384,2.4246,2.443,2.5144,2.5652,2.6049,2.6521,2.6691,2.6691,2.6691,2.6691,2.6691,2.6691,2.5913,2.4814,2.4814,2.3943,2.2794,0.9408,0.9489,0.9629,0.9816,0.984,0.9751,0.9713,0.9535,0.9437,0.9489,0.9295,0.9443,1.0021,0.9838,0.9695,0.9841,0.9853,0.998,1.0274,1.0575,1.0795,1.0841,1.0474,1.0233,1.004,0.9691,1.0043,1.1045,1.0856,1.0965,1.1399,1.1542,1.1559,1.1413,1.2026,1.228,1.2236,1.2715,1.2881,1.2881,1.2881,1.2881,1.2929,1.3152,1.3695,1.4422,1.4869,1.5511,1.6194,1.6423,1.6522,1.6522,1.6522,1.671,1.7105,1.7867,1.8341,1.8688,1.9244,1.9369,1.9332,1.9132,1.9244,1.9281,1.8968,1.8314,1.7394,1.6073,1.5141,1.4104,1.2568,1.2423,1.2382,1.2008,1.2334,1.2686,1.2852,1.2881,1.3135,1.3809,1.398,1.4404,1.5098,1.5591,1.6472,1.7895,1.915,1.9798,1.9798,2.0351,2.1524,2.3239,2.3848,2.4674,2.5809,2.542,2.5016,2.4582,2.4208,2.4023,2.4116,2.4871,2.5373,2.5726,2.6401,2.6691,2.6691,2.6691,2.6691,2.6657,2.637,2.5541,2.4472,2.4154,2.3308,2.2321,1.0023,1.0144,1.0455,1.0972,1.0953,1.0828,1.0726,1.0298,1.0212,1.059,1.0249,1.0532,1.1944,1.1154,1.0669,1.0994,1.0628,1.052,1.0793,1.1488,1.1777,1.1459,1.174,1.1585,1.0863,1.0744,1.1108,1.1896,1.1896,1.2079,1.2431,1.2431,1.2436,1.2348,1.2348,1.2568,1.2881,1.2881,1.2881,1.2881,1.2881,1.2881,1.2968,1.3505,1.3779,1.4003,1.5141,1.5588,1.5764,1.6324,1.6522,1.6522,1.6522,1.6522,1.671,1.7747,1.8027,1.8145,1.8688,1.8817,1.8688,1.8224,1.8419,1.8765,1.8765,1.7972,1.6952,1.5868,1.4761,1.3546,1.2135,1.1713,1.1616,1.1655,1.2002,1.2422,1.2832,1.2881,1.3047,1.3506,1.3896,1.4326,1.4795,1.5915,1.7191,1.8608,1.9359,1.9798,1.9798,2.0351,2.1342,2.2732,2.334,2.3985,2.4672,2.4672,2.4612,2.4492,2.4492,2.4208,2.3638,2.4657,2.5144,2.5182,2.621,2.6624,2.6657,2.6623,2.659,2.6522,2.5795,2.505,2.4337,2.3646,2.2936,2.231,1.1994,1.2017,1.2081,1.2225,1.2208,1.2192,1.2132,1.2044,1.1952,1.1761,1.1647,1.1724,1.2066,1.2122,1.215,1.2233,1.2318,1.2405,1.2476,1.2657,1.2719,1.2613,1.2724,1.2676,1.2469,1.1866,1.1958,1.2757,1.2757,1.273,1.277,1.277,1.2797,1.2761,1.2761,1.2812,1.2881,1.2881,1.2881,1.2881,1.2881,1.2881,1.2929,1.3065,1.3695,1.4514,1.4789,1.5511,1.6337,1.6479,1.6522,1.6522,1.6522,1.6522,1.6637,1.7271,1.7463,1.7585,1.8145,1.8263,1.8263,1.8145,1.7867,1.7666,1.7666,1.7157,1.6255,1.4784,1.3643,1.2682,1.1814,1.1624,1.1724,1.2031,1.2451,1.2773,1.2871,1.2881,1.3164,1.3854,1.4029,1.4434,1.5195,1.6522,1.7731,1.8608,1.9359,1.9798,1.9798,2.0351,2.1576,2.3442,2.4,2.4646,2.5359,2.539,2.4866,2.3819,2.3819,2.3744,2.3638,2.4266,2.4576,2.4617,2.5672,2.6156,2.6142,2.5933,2.5845,2.5778,2.5017,2.4272,2.3613,2.346,2.2936,2.231,1.2621,1.2601,1.2739,1.329,1.3199,1.3077,1.316,1.296,1.2851,1.2917,1.2711,1.2863,1.3589,1.3327,1.3025,1.2786,1.2899,1.3005,1.3005,1.3375,1.3578,1.357,1.3596,1.3733,1.4123,1.3391,1.3174,1.3545,1.3373,1.3341,1.3467,1.328,1.3077,1.2881,1.2881,1.2881,1.2881,1.2881,1.2881,1.2881,1.2881,1.2881,1.2968,1.3525,1.4165,1.4801,1.5332,1.5976,1.6522,1.6522,1.6522,1.6522,1.6522,1.6522,1.6595,1.7146,1.7312,1.7353,1.7626,1.7706,1.7666,1.7394,1.7105,1.6993,1.7229,1.6883,1.6052,1.4416,1.4055,1.3519,1.1887,1.2198,1.2534,1.2263,1.2598,1.2881,1.2881,1.2881,1.3125,1.376,1.3961,1.4735,1.6321,1.7457,1.8447,1.915,1.9579,1.9798,1.9798,2.0087,2.1017,2.2699,2.3031,2.3638,2.4657,2.4657,2.4298,2.3595,2.3595,2.3595,2.3638,2.4158,2.4389,2.4471,2.5524,2.6013,2.5983,2.5698,2.5609,2.549,2.4391,2.3731,2.3359,2.3004,2.25,2.1974,1.3095,1.3094,1.3332,1.4227,1.4127,1.3965,1.405,1.3745,1.3611,1.4041,1.3745,1.3974,1.5264,1.4492,1.3795,1.3458,1.3407,1.3425,1.3425,1.401,1.4433,1.4424,1.4423,1.4743,1.541,1.4756,1.4392,1.4392,1.3999,1.3932,1.4068,1.3711,1.3281,1.2881,1.2881,1.2881,1.2881,1.2881,1.2881,1.2881,1.2881,1.2881,1.3017,1.4107,1.4606,1.4835,1.5964,1.6423,1.6522,1.6522,1.6522,1.6522,1.6522,1.6522,1.6595,1.7034,1.7146,1.7146,1.7146,1.7146,1.7076,1.6595,1.6522,1.6637,1.7076,1.6837,1.6071,1.4664,1.4958,1.4771,1.2409,1.302,1.3522,1.2476,1.2732,1.3017,1.2929,1.2881,1.3066,1.3555,1.4159,1.5396,1.7722,1.8468,1.9226,2.0022,2.0087,2.0087,2.0087,2.0087,2.0668,2.198,2.2111,2.2701,2.3774,2.3879,2.3834,2.3595,2.3595,2.3595,2.3595,2.4074,2.4266,2.4307,2.5297,2.5762,2.5822,2.5581,2.5459,2.5287,2.3934,2.3325,2.3139,2.253,2.1974,2.1491,1.5013,1.4994,1.51,1.5235,1.5187,1.5177,1.5187,1.5109,1.5109,1.5187,1.5109,1.5177,1.541,1.5225,1.5108,1.5069,1.5059,1.505,1.505,1.5177,1.5235,1.5255,1.5225,1.5294,1.541,1.5294,1.5235,1.5235,1.481,1.445,1.4068,1.3711,1.3281,1.2881,1.2881,1.2881,1.2881,1.2881,1.2881,1.2881,1.2881,1.2881,1.2968,1.3647,1.4236,1.4789,1.5466,1.6051,1.6522,1.6522,1.6522,1.6522,1.6522,1.6522,1.6522,1.6595,1.6595,1.6595,1.6595,1.6595,1.6595,1.6522,1.6522,1.6522,1.6595,1.6552,1.6312,1.5548,1.5238,1.4759,1.3712,1.3824,1.3804,1.2926,1.3283,1.3515,1.2968,1.2881,1.3174,1.3902,1.53,1.7011,1.9136,1.9416,2.0006,2.1174,2.1255,2.1255,2.1255,2.1255,2.1885,2.3289,2.3875,2.4248,2.4448,2.5061,2.4762,2.3595,2.3595,2.3595,2.3595,2.3681,2.3724,2.3752,2.4348,2.4855,2.5287,2.5013,2.4813,2.456,2.3714,2.3004,2.2446,2.2344,2.1781,2.1118,1.541,1.541,1.541,1.541,1.541,1.541,1.541,1.541,1.541,1.541,1.541,1.541,1.541,1.541,1.541,1.541,1.541,1.541,1.541,1.541,1.541,1.541,1.541,1.541,1.541,1.541,1.541,1.541,1.499,1.4687,1.4482,1.3818,1.3408,1.3223,1.2988,1.2881,1.2881,1.2881,1.2881,1.2881,1.2881,1.3104,1.3467,1.4061,1.4687,1.5276,1.5876,1.6281,1.6522,1.6522,1.6522,1.6522,1.6522,1.6522,1.6522,1.6522,1.6522,1.6522,1.6522,1.6522,1.6522,1.6522,1.6522,1.6522,1.6522,1.6522,1.6324,1.572,1.5726,1.5512,1.447,1.4394,1.4236,1.3532,1.3334,1.319,1.2929,1.2881,1.3333,1.4582,1.6125,1.7779,1.942,1.9976,2.0551,2.1443,2.1493,2.1493,2.1493,2.1493,2.213,2.3551,2.3851,2.4376,2.5135,2.5465,2.5315,2.4717,2.4717,2.4328,2.3595,2.3595,2.3595,2.3638,2.4158,2.4552,2.4729,2.4489,2.4503,2.4514,2.3144,2.2177,2.1615,2.184,2.1368,2.0649]},{"header":{"parameterUnit":"m.s-1","parameterCategory":1,"la1":30.6,"la2":28.766,"lo1":-90.7593,"lo2":-88.6598,"dy":0.0162,"dx":0.0183,"nx":116,"ny":114,"refTime":"2023-09-10T18:00:00:Z","depth":0,"parameterNumber":3,"parameterNumberName":"V-component_of_WINDS"},"data":[0.0,0.0,0.0,0.0,0.0,0.0,0.0,0.0,0.0,0.0,0.0,0.0,0.0,0.0,0.0,0.0,0.0,0.0,0.0,0.0,0.0,0.0,0.0,0.0,0.0,0.0,0.0,0.0,0.0,0.0,0.0,0.0,0.0,0.0,0.0,0.0,0.0,0.0,0.0,0.0,0.0,0.0,0.0,0.0,0.0,0.0,0.0,0.0,0.0,0.0,0.0,0.0,0.0,0.0,0.0,0.0,0.0,0.0,0.0,0.0,0.0,0.0,0.0,0.0,0.0,0.0,0.0,0.0,0.0,0.0,0.0,0.0,0.0,0.0,0.0,0.0,0.0,0.0,0.0,0.0,0.0,0.0,0.0,0.0,0.0,0.0,0.0,0.0,0.0,0.0,0.0,0.0,0.0,0.0,0.0,0.0,0.0,0.0,0.0,0.0,0.0,0.0,0.0,0.0,0.0,0.0,0.0,0.0,0.0,0.0,0.0,0.0,0.0,0.0,0.0,0.0,0.0,0.0,0.0,0.0,0.0,0.0,0.0,0.0,0.0,0.0,0.0,0.0,0.0,0.0,0.0,0.0,0.0,0.0,0.0,0.0,0.0,0.0,0.0,0.0,0.0,0.0,0.0,0.0,0.0,0.0,0.0,0.0,0.0,0.0,0.0,0.0,0.0,0.0,0.0,0.0,0.0,0.0,0.0,0.0,0.0,0.0,0.0,0.0,0.0,0.0,0.0,0.0,0.0,0.0,0.0,0.0,0.0,0.0,0.0,0.0,0.0,0.0,0.0,0.0,0.0,0.0,0.0,0.0,0.0,0.0,0.0,0.0,0.0,0.0,0.0,0.0,0.0,0.0,0.0,0.0,0.0,0.0,0.0,0.0,0.0,0.0,0.0,0.0,0.0,0.0,0.0,0.0,0.0,0.0,0.0,0.0,0.0,0.0,0.0,0.0,0.0,0.0,0.0,0.0,0.0,0.0,0.0,0.0,0.0,0.0,0.0,0.0,0.0,0.0,0.0,0.0,0.0,0.0,0.0,0.0,0.0,0.0,0.0,0.0,0.0,0.0,0.0,0.0,0.0,0.0,0.0,0.0,0.0,0.0,0.0,0.0,0.0,0.0,0.0,0.0,0.0,0.0,0.0,0.0,0.0,0.0,0.0,0.0,0.0,0.0,0.0,0.0,0.0,0.0,0.0,0.0,0.0,0.0,0.0,0.0,0.0,0.0,0.0,0.0,0.0,0.0,0.0,0.0,0.0,0.0,0.0,0.0,0.0,0.0,0.0,0.0,0.0,0.0,0.0,0.0,0.0,0.0,0.0,0.0,0.0,0.0,0.0,0.0,0.0,0.0,0.0,0.0,0.0,0.0,0.0,0.0,0.0,0.0,0.0,0.0,0.0,0.0,0.0,0.0,0.0,0.0,0.0,0.0,0.0,0.0,0.0,0.0,0.0,0.0,0.0,0.0,0.0,0.0,0.0,0.0,0.0,0.0,0.0,0.0,0.0,0.0,0.0,0.0,0.0,0.0,0.0,0.0,0.0,0.0,0.0,0.0,0.0,0.0,0.0,0.0,0.0,0.0,0.0,0.0,0.0,0.0,0.0,0.0,0.0,0.0,0.0,0.0,0.0,0.0,0.0,0.0,0.0,0.0,0.0,0.0,0.0,0.0,0.0,0.0,0.0,0.0,0.0,0.0,0.0,0.0,0.0,0.0,0.0,0.0,0.0,0.0,0.0,0.0,0.0,0.0,0.0,0.0,0.0,0.0,0.0,0.0,0.0,0.0,0.0,0.0,0.0,0.0,0.0,0.0,0.0,0.0,0.0,0.0,0.0,0.0,0.0,0.0,0.0,0.0,0.0,0.0,0.0,0.0,0.0,0.0,0.0,0.0,0.0,0.0,0.0,0.0,0.0,0.0,0.0,0.0,0.0,0.0,0.0,0.0,0.0,0.0,0.0,0.0,0.0,0.0,0.0,0.0,0.0,0.0,0.0,0.0,0.0,0.0,0.0,0.0,0.0,0.0,0.0,0.0,0.0,0.0,0.0,0.0,0.0,0.0,0.0,0.0,0.0,0.0,0.0,0.0,0.0,0.0,0.0,0.0,0.0,0.0,0.0,0.0,0.0,0.0,0.0,0.0,0.0,0.0,0.0,0.0,0.0,0.0,0.0,0.0,0.0,0.0,0.0,0.0,0.0,0.0,0.0,0.0,0.0,0.0,0.0,0.0,0.0,0.0,0.0,0.0,0.0,0.0,0.0,0.0,0.0,0.0,0.0,0.0,0.0,0.0,0.0,0.0,0.0,0.0,0.0,0.0,0.0,0.0,0.0,0.0,0.0,0.0,0.0,0.0,0.0,0.0,0.0,0.0,0.0,0.0,0.0,0.0,0.0,0.0,0.0,0.0,0.0,0.0,0.0,0.0,0.0,0.0,0.0,0.0,0.0,0.0,0.0,0.0,0.0,0.0,0.0,0.0,0.0,0.0,0.0,0.0,0.0,0.0,0.0,0.0,0.0,0.0,0.0,0.0,0.0,0.0,0.0,0.0,0.0,0.0,0.0,0.0,0.0,0.0,0.0,0.0,0.0,0.0,0.0,0.0,0.0,0.0,0.0,0.0,0.0,0.0,0.0,0.0,0.0,0.0,0.0,0.0,0.0,0.0,0.0,0.0,0.0,0.0,0.0,0.0,0.0,0.0,0.0,0.0,0.0,0.0,0.0,0.0,0.0,0.0,0.0,0.0,0.0,0.0,0.0,0.0,0.0,0.0,0.0,0.0,0.0,0.0,0.0,0.0,0.0,0.0,0.0,0.0,0.0,0.0,0.0,0.0,0.0,0.0,0.0,0.0,0.0,0.0,0.0,0.0,0.0,0.0,0.0,0.0,0.0,0.0,0.0,0.0,0.0,0.0,0.0,0.0,0.0,0.0,0.0,0.0,0.0,0.0,0.0,0.0,0.0,0.0,0.0,0.0,0.0,0.0,0.0,0.0,0.0,0.0,0.0,0.0,0.0,0.0,0.0,0.0,0.0,0.0,0.0,0.0,0.0,0.0,0.0,0.0,0.0,0.0,0.0,0.0,0.0,0.0,0.0,0.0,0.0,0.0,0.0,0.0,0.0,0.0,0.0,0.0,0.0,0.0,0.0,0.0,0.0,0.0,0.0,0.0,0.0,0.0,0.0,0.0,0.0,0.0,0.0,0.0,0.0,0.0,0.0,0.0,0.0,0.0,0.0,0.0,0.0,0.0,0.0,0.0,0.0,0.0,0.0,0.0,0.0,0.0,0.0,0.0,0.0,0.0,0.0,0.0,0.0,0.0,0.0,0.0,0.0,0.0,0.0,0.0,0.0,0.0,0.0,0.0,0.0,0.0,0.0,0.0,0.0,0.0,0.0,0.0,0.0,0.0,0.0,0.0,0.0,0.0,0.0,0.0,0.0,0.0,0.0,0.0,0.0,0.0,0.0,0.0,0.0,0.0,0.0,0.0,0.0,0.0,0.0,0.0,0.0,0.0,0.0,0.0,0.0,0.0,0.0,0.0,0.0,0.0,0.0,0.0,0.0,0.0,0.0,0.0,0.0,0.0,0.0,0.0,0.0,0.0,0.0,0.0,0.0,0.0,0.0,0.0,0.0,0.0,0.0,0.0,0.0,0.0,0.0,0.0,0.0,0.0,0.0,0.0,0.0,0.0,0.0,0.0,0.0,0.0,0.0,0.0,0.0,0.0,0.0,0.0,0.0,0.0,0.0,0.0,0.0,0.0,0.0,0.0,0.0,0.0,0.0,0.0,0.0,0.0,0.0,0.0,0.0,0.0,0.0,0.0,0.0,0.0,0.0,0.0,0.0,0.0,0.0,0.0,0.0,0.0,0.0,0.0,0.0,0.0,0.0,0.0,0.0,0.0,0.0,0.0,0.0,0.0,0.0,0.0,0.0,0.0,0.0,0.0,0.0,0.0,0.0,0.0,0.0,0.0,0.0,0.0,0.0,0.0,0.0,0.0,0.0,0.0,0.0,0.0,0.0,0.0,0.0,0.0,0.0,0.0,0.0,0.0,0.0,0.0,0.0,0.0,0.0,0.0,0.0,0.0,0.0,0.0,0.0,0.0,0.0,0.0,0.0,0.0,0.0,0.0,0.0,0.0,0.0,0.0,0.0,0.0,0.0,0.0,0.0,0.0,0.0,0.0,0.0,0.0,0.0,0.0,0.0,0.0,0.0,0.0,0.0,0.0,0.0,0.0,0.0,0.0,0.0,0.0,0.0,0.0,0.0,0.0,0.0,0.0,0.0,0.0,0.0,0.0,0.0,0.0,0.0,0.0,0.0,0.0,0.0,0.0,0.0,0.0,0.0,0.0,0.0,0.0,0.0,0.0,0.0,0.0,0.0,0.0,0.0,0.0,0.0,0.0,0.0,0.0,0.0,0.0,0.0,0.0,0.0,0.0,0.0,0.0,0.0,0.0,0.0,0.0,0.0,0.0,0.0,0.0,0.0,0.0,0.0,0.0,0.0,0.0,0.0,0.0,0.0,0.0,0.0,0.0,0.0,0.0,0.0,0.0,0.0,0.0,0.0,0.0,0.0,0.0,0.0,0.0,0.0,0.0,0.0,0.0,0.0,0.0,0.0,0.0,0.0,0.0,0.0,0.0,0.0,0.0,0.0,0.0,0.0,0.0,0.0,0.0,0.0,0.0,0.0,0.0,0.0,0.0,0.0,0.0,0.0,0.0,0.0,0.0,0.0,0.0,0.0,0.0,0.0,0.0,0.0,0.0,0.0,0.0,0.0,0.0,0.0,0.0,0.0,0.0,0.0,0.0,0.0,0.0,0.0,0.0,0.0,0.0,0.0,0.0,0.0,0.0,0.0,0.0,0.0,0.0,0.0,0.0,0.0,0.0,0.0,0.0,0.0,0.0,0.0,0.0,0.0,0.0,0.0,0.0,0.0,0.0,0.0,0.0,0.0,0.0,0.0,0.0,0.0,0.0,0.0,0.0,0.0,0.0,0.0,0.0,0.0,0.0,0.0,0.0,0.0,0.0,0.0,0.0,0.0,0.0,0.0,0.0,0.0,0.0,0.0,0.0,0.0,0.0,0.0,0.0,0.0,0.0,0.0,0.0,0.0,0.0,0.0,0.0,0.0,0.0,0.0,0.0,0.0,0.0,0.0,0.0,0.0,0.0,0.0,0.0,0.0,0.0,0.0,0.0,0.0,0.0,0.0,0.0,0.0,0.0,0.0,0.0,0.0,0.0,0.0,0.0,0.0,0.0,0.0,0.0,0.0,0.0,0.0,0.0,0.0,0.0,0.0,0.0,0.0,0.0,0.0,0.0,0.0,0.0,0.0,0.0,0.0,0.0,0.0,0.0,0.0,0.0,0.0,0.0,0.0,0.0,0.0,0.0,0.0,0.0,0.0,0.0,0.0,0.0,0.0,0.0,0.0,0.0,0.0,0.0,0.0,0.0,0.0,0.0,0.0,0.0,0.0,0.0,0.0,0.0,0.0,0.0,0.0,0.0,0.0,0.0,0.0,0.0,0.0,0.0,0.0,0.0,0.0,0.0,0.0,0.0,0.0,0.0,0.0,0.0,0.0,0.0,0.0,0.0,0.0,0.0,0.0,0.0,0.0,0.0,0.0,0.0,0.0,0.0,0.0,0.0,0.0,0.0,0.0,0.0,0.0,0.0,0.0,0.0,0.0,0.0,0.0,0.0,0.0,0.0,0.0,0.0,0.0,0.0,0.0,0.0,0.0,0.0,0.0,0.0,0.0,0.0,0.0,0.0,0.0,0.0,0.0,0.0,0.0,0.0,0.0,0.0,0.0,0.0,0.0,0.0,0.0,0.0,0.0,0.0,0.0,0.0,0.0,0.0,0.0,0.0,0.0,0.0,0.0,0.0,0.0,0.0,0.0,0.0,0.0,0.0,0.0,0.0,0.0,0.0,0.0,0.0,0.0,0.0,0.0,0.0,0.0,0.0,0.0,0.0,0.0,0.0,0.0,0.0,0.0,0.0,0.0,0.0,0.0,0.0,0.0,0.0,0.0,0.0,0.0,0.0,0.0,0.0,0.0,0.0,0.0,0.0,0.0,0.0,0.0,0.0,0.0,0.0,-1.9495,0.0,0.0,0.0,0.0,0.0,0.0,0.0,0.0,0.0,0.0,0.0,0.0,0.0,0.0,0.0,0.0,0.0,0.0,0.0,0.0,0.0,0.0,0.0,0.0,0.0,0.0,0.0,0.0,0.0,0.0,0.0,0.0,0.0,0.0,0.0,0.0,0.0,0.0,0.0,-1.0558,-1.1356,-1.0409,-1.5496,-1.917,-2.1541,0.0,0.0,0.0,0.0,0.0,0.0,0.0,0.0,0.0,0.0,0.0,0.0,0.0,0.0,0.0,0.0,0.0,0.0,0.0,0.0,0.0,0.0,0.0,0.0,0.0,0.0,0.0,0.0,0.0,0.0,0.0,0.0,0.0,0.0,0.0,0.0,0.0,0.0,0.0,0.0,0.0,0.0,0.0,0.0,0.0,0.0,0.0,0.0,0.0,0.0,0.0,0.0,0.0,0.0,0.0,0.0,0.0,0.0,0.0,0.0,0.0,0.0,0.0,0.0,0.0,0.0,0.0,0.0,0.0,0.0,0.0,-1.8361,0.0,0.0,0.0,0.0,0.0,0.0,0.0,0.0,0.0,0.0,0.0,0.0,0.0,0.0,0.0,0.0,0.0,0.0,0.0,0.0,0.0,0.0,0.0,0.0,0.0,0.0,0.0,0.0,0.0,0.0,0.0,0.0,0.0,0.0,0.0,-0.7217,-0.7453,-0.4451,-0.5486,-0.7202,-0.9593,-1.2538,-1.6083,-1.9986,-2.1786,0.0,0.0,0.0,0.0,0.0,0.0,0.0,0.0,0.0,0.0,0.0,0.0,0.0,0.0,0.0,0.0,0.0,0.0,0.0,0.0,0.0,0.0,0.0,0.0,0.0,0.0,0.0,0.0,0.0,0.0,0.0,0.0,0.0,0.0,0.0,0.0,0.0,0.0,0.0,0.0,0.0,0.0,0.0,0.0,0.0,0.0,0.0,0.0,0.0,0.0,0.0,0.0,0.0,0.0,0.0,0.0,0.0,0.0,0.0,0.0,0.0,0.0,0.0,-1.9759,-1.9732,-1.9052,-1.855,-1.8339,-1.8232,-1.5014,-1.6562,-2.131,-2.0256,0.0,0.0,0.0,0.0,0.0,0.0,0.0,0.0,0.0,0.0,0.0,0.0,0.0,0.0,0.0,0.0,0.0,0.0,0.0,0.0,0.0,0.0,1.375,1.527,1.3481,1.1188,0.0,0.0,0.0,0.0,0.0,0.0,-0.1421,-0.2995,-0.2481,0.0114,0.0877,-0.1269,-0.6016,-0.8873,-1.3126,-1.8442,-2.2209,-2.4495,-2.564,0.0,0.0,0.0,0.0,0.0,0.0,0.0,0.0,0.0,0.0,0.0,0.0,0.0,0.0,0.0,0.0,0.0,0.0,0.0,0.0,0.0,0.0,0.0,0.0,0.0,0.0,0.0,0.0,0.0,0.0,0.0,0.0,0.0,0.0,0.0,0.0,0.0,0.0,0.0,0.0,0.0,-0.0778,-0.2716,0.0,0.0,0.0,0.0,0.0,0.0,0.0,0.0,0.0,0.0,0.0,0.0,0.0,-1.279,-1.5272,-1.7017,-1.8906,-2.0952,-2.2097,-2.146,-1.939,-1.9087,-1.7993,-1.6273,-1.6778,0.0,-1.9489,-1.8844,0.0,0.0,0.0,0.0,0.0,0.0,0.0,0.0,0.0,0.0,0.0,0.0,0.0,0.0,0.0,0.0,0.0,0.0,0.0,0.0,0.0,1.4313,1.4844,1.4553,1.1116,0.9114,0.9461,0.0,0.0,0.0,0.0,0.242,0.2265,0.026,0.084,0.416,0.2884,0.0406,-0.3136,-0.7507,-1.2528,-1.8186,-2.2641,-2.5438,-2.6756,-2.7906,0.0,0.0,0.0,0.0,0.0,0.0,0.0,0.0,0.0,0.0,0.0,0.0,0.0,0.0,0.0,0.0,0.0,0.0,0.0,0.0,0.0,0.0,0.0,0.0,0.0,0.0,0.0,0.0,0.0,0.0,0.0,0.0,0.0,0.0,0.0,0.0,0.0,0.0,0.0,0.7783,0.0766,0.3489,-1.1092,-2.0603,0.0,0.0,0.0,0.0,0.0,0.0,0.0,0.0,0.0,-1.0318,-1.2674,-1.5191,-1.7776,-1.9229,-2.0712,-2.2331,-2.2872,-2.2087,-2.0161,-1.9554,-1.8399,-1.6915,-1.7734,-1.8499,-1.93,-1.8647,-1.8939,-1.9841,0.0,0.0,0.0,0.0,-2.2418,-2.204,0.0,0.0,0.0,0.0,0.0,0.0,0.0,0.0,0.0,0.0,0.0,0.0,1.5095,1.5454,1.5163,1.3921,0.964,0.7972,1.0255,0.0,0.0,0.0,0.0,0.4674,0.6334,0.4383,0.4514,0.6839,0.3966,0.112,-0.1959,-0.7525,-1.3091,-1.8688,-2.3282,-2.6255,-2.7858,-2.9059,-2.9286,-2.8771,0.0,0.0,0.0,0.0,0.0,0.0,0.0,0.0,0.0,0.0,0.0,0.0,0.0,0.0,0.0,0.0,0.0,0.0,0.0,0.0,0.0,0.0,0.0,0.0,0.0,0.0,0.0,0.0,0.0,0.0,0.0,0.0,0.0,0.0,0.0,0.0,0.0,0.8718,0.1706,0.6964,-1.0697,-2.1152,0.0,0.0,0.0,0.0,0.0,0.0,-0.7685,-0.9276,-1.0865,-1.2089,-1.4417,-1.6808,-1.9157,-2.0532,-2.1826,-2.3135,-2.3135,-2.2236,-2.0692,-1.9768,-1.8862,-1.7804,-1.7934,-1.8629,-1.9605,-1.9493,-1.9679,-2.0194,-2.0462,-2.1228,-2.2285,-2.2756,-2.278,-2.2365,0.0,0.0,0.0,0.0,0.0,0.0,0.0,0.0,0.0,0.0,0.0,1.7447,1.8011,1.5756,1.4217,1.4182,1.1625,1.0061,1.0199,0.8446,0.8189,1.0056,0.9234,0.9351,1.0651,1.0411,0.936,0.7459,0.5335,0.1662,-0.3418,-0.9043,-1.4607,-1.9972,-2.4173,-2.721,-2.9182,-3.0518,-3.0764,-3.0016,-2.7851,0.0,0.0,0.0,0.0,0.0,0.0,0.0,0.0,0.0,0.0,0.0,0.0,0.0,0.0,0.0,0.0,0.0,0.0,0.0,0.0,0.0,0.0,0.0,0.0,0.0,0.0,0.0,0.0,0.0,0.0,0.0,0.0,0.0,0.0,0.0,0.0,0.0,0.0,0.1903,-1.8601,0.0,0.0,0.0,0.0,-1.857,-1.3215,-1.005,-0.9892,-1.1274,-1.2502,-1.3695,-1.513,-1.6579,-1.83,-1.9979,-2.1496,-2.3135,-2.3135,-2.2292,-2.0665,-1.9604,-1.8803,-1.8143,-1.7497,-1.833,-2.0135,-2.153,-2.1712,-2.1091,-2.1298,-2.2752,-2.4448,-2.2887,-2.3486,-2.4743,0.0,0.0,0.0,0.0,0.0,0.0,0.0,0.0,0.0,1.8574,1.9326,1.9029,1.7048,1.489,1.2521,0.9921,0.7349,0.6209,0.697,0.6101,0.7069,1.059,1.0327,1.0453,1.1176,1.0309,0.9163,0.7819,0.4934,0.1189,-0.3414,-0.8745,-1.4141,-1.9357,-2.3496,-2.7038,-3.0051,-3.2041,-3.2825,-3.2661,-3.1565,-3.0242,0.0,0.0,0.0,0.0,0.0,0.0,0.0,0.0,0.0,0.0,0.0,0.0,0.0,0.0,0.0,0.0,0.0,0.0,0.0,0.0,0.0,0.0,0.0,0.0,0.0,0.0,0.0,0.0,0.0,0.0,0.0,0.0,0.0,0.0,0.0,0.0,0.0,0.3427,-1.9175,0.0,-2.7001,-2.4749,-2.2399,-1.9064,-1.3939,-1.0342,-0.8866,-1.0306,-1.1635,-1.2576,-1.4686,-1.7123,-1.9866,-2.1131,-2.2045,-2.2619,-2.2451,-2.14,-1.9606,-1.9685,-1.9135,-1.8251,-1.8799,-1.9385,-2.0111,-2.1125,-2.1559,-2.1632,-2.1757,-2.2635,-2.382,-2.3973,-2.4183,-2.43,0.0,0.0,0.0,0.0,0.0,0.0,0.0,0.0,0.0,2.0017,2.0202,1.9313,1.6692,1.4318,1.1515,0.8103,0.6084,0.5118,0.5342,0.547,0.7074,1.0474,1.1239,1.1712,1.1968,1.096,0.9799,0.8458,0.4788,0.0557,-0.4189,-0.9858,-1.5045,-1.9762,-2.361,-2.7009,-3.007,-3.2406,-3.3931,-3.4691,-3.3855,-3.3012,-3.1897,0.0,0.0,0.0,0.0,0.0,0.0,0.0,0.0,0.0,0.0,0.0,0.0,0.0,0.0,0.0,0.0,0.0,0.0,0.0,0.0,0.0,0.0,0.0,0.0,0.0,0.0,0.0,0.0,0.0,0.0,0.0,0.0,0.0,0.0,0.0,-0.0238,0.4111,-1.9035,-3.2822,-2.6383,-2.5686,-2.378,-1.9279,-1.481,-1.1431,-0.9251,-1.0706,-1.1989,-1.3001,-1.5397,-1.7617,-1.9868,-2.1353,-2.2087,-2.1964,-2.1763,-2.0933,-1.9506,-1.9461,-1.9126,-1.8603,-1.9217,-1.9534,-1.9811,-2.0514,-2.1027,-2.149,-2.179,-2.2862,-2.4247,-2.4855,-2.4958,-2.4694,0.0,0.0,0.0,0.0,0.0,0.0,0.0,0.0,2.1249,2.0778,1.9667,1.8502,1.7418,1.4294,1.1459,0.9352,0.858,0.741,0.5698,0.7111,0.8665,1.0053,1.2202,1.3296,1.3201,1.2967,1.169,0.9397,0.4938,-0.0114,-0.5835,-1.2365,-1.7491,-2.1311,-2.4574,-2.7155,-2.9204,-3.1597,-3.3919,-3.5809,-3.4471,-3.4445,-3.4904,0.0,0.0,0.0,0.0,0.0,0.0,0.0,0.0,0.0,0.0,0.0,0.0,0.0,0.0,0.0,0.0,0.0,0.0,0.0,0.0,0.0,0.0,0.0,0.0,0.0,0.0,0.0,0.0,0.0,0.0,0.0,0.0,0.0,3.098,1.4389,0.272,0.3366,-1.8592,-3.1642,-2.6245,-2.7157,-2.5432,-1.9097,-1.5686,-1.3166,-1.1601,-1.2709,-1.3927,-1.5149,-1.7164,-1.8258,-1.8196,-2.0671,-2.1714,-2.137,-2.1186,-2.0947,-2.0508,-1.8979,-1.8657,-1.9214,-1.8609,-1.8704,-1.935,-1.9668,-2.0159,-2.0694,-2.1565,-2.3475,-2.5809,-2.5277,-2.5752,-2.5962,0.0,0.0,0.0,0.0,0.0,0.0,0.0,2.0784,2.1377,2.11,2.1097,2.0713,1.9632,1.7525,1.5337,1.3322,1.2295,1.1071,0.9415,1.0478,1.1565,1.2416,1.3581,1.4001,1.3663,1.3414,1.1867,0.8954,0.4996,-0.005,-0.6023,-1.1583,-1.6527,-2.0801,-2.3265,-2.5667,-2.7994,-3.0076,-3.2347,-3.4664,-3.6083,-3.6388,-3.595,0.0,0.0,0.0,0.0,0.0,0.0,0.0,0.0,0.0,0.0,0.0,0.0,0.0,0.0,0.0,0.0,0.0,0.0,0.0,0.0,0.0,0.0,0.0,0.0,0.0,0.0,0.0,0.0,0.0,0.0,0.0,3.026,3.1183,3.162,1.8627,0.7523,0.3271,-1.4444,-2.6397,-2.6492,-2.5489,-2.2617,-1.729,-1.4652,-1.3032,-1.2368,-1.1923,-1.2551,-1.4365,-1.7979,-1.9643,-1.8971,-2.0292,-2.0752,-2.0343,-2.022,-1.9954,-1.9619,-1.8889,-1.8629,-1.8809,-1.8251,-1.8507,-1.9124,-1.893,-1.9901,-2.146,-2.1086,-2.2522,-2.4785,-2.4636,-2.4356,-2.3576,0.0,0.0,0.0,0.0,0.0,0.0,0.0,2.1284,2.201,2.1666,2.2152,2.2221,2.1373,1.9414,1.7569,1.6112,1.5513,1.45,1.285,1.3768,1.454,1.4896,1.5521,1.5722,1.5423,1.4969,1.3389,1.0639,0.4811,-0.0729,-0.5992,-1.2528,-1.7478,-2.0948,-2.2802,-2.471,-2.6668,-2.8869,-3.0844,-3.2716,-3.528,-3.6897,-3.7646,-3.6735,-3.6577,-3.6697,-3.5728,-3.4969,-3.438,-3.396,0.0,0.0,0.0,0.0,0.0,0.0,0.0,0.0,0.0,0.0,0.0,0.0,0.0,0.0,0.0,0.0,0.0,0.0,0.0,0.0,0.0,0.0,0.0,0.0,3.0392,3.0647,3.0678,2.0718,1.093,0.4344,-0.9675,-1.9807,-2.2369,-2.1649,-1.9022,-1.4341,-1.3256,-1.2445,-1.1396,-1.2219,-1.3143,-1.4102,-1.6587,-1.8479,-1.9836,-1.9594,-1.949,-1.9517,-1.9157,-1.8931,-1.873,-1.8115,-1.7774,0.0,-1.7578,-1.7845,-1.8562,-1.8637,-1.9761,0.0,0.0,0.0,0.0,0.0,-2.3702,-2.2407,0.0,0.0,0.0,0.0,0.0,0.0,0.0,2.1563,2.2563,2.2234,2.2739,2.2943,2.2538,2.0435,1.8697,1.7834,1.7996,1.7546,1.6039,1.6939,1.7454,1.7302,1.7771,1.7938,1.7721,1.7149,1.5658,1.3321,0.493,-0.1311,-0.553,-1.3789,-1.8899,-2.1183,-2.2586,-2.3905,-2.5251,-2.769,-2.9291,-3.0425,-3.2904,-3.6005,-3.8994,-3.7637,-3.7753,-3.8537,-3.7569,-3.732,-3.7497,-3.8066,0.0,0.0,0.0,0.0,0.0,0.0,0.0,0.0,0.0,0.0,0.0,0.0,0.0,0.0,0.0,0.0,0.0,0.0,0.0,0.0,0.0,0.0,0.0,0.0,3.0572,3.0657,2.869,2.1361,1.3542,0.6412,-0.4273,-1.2243,-1.5233,-1.6234,-1.4952,-1.07,-1.1624,-1.1549,-0.956,0.0,0.0,0.0,0.0,-1.6608,-2.0849,-1.9314,-1.8644,-1.8804,-1.8262,-1.7919,-1.7677,-1.7037,-1.6645,-1.6514,-1.6527,-1.6971,-1.7768,-1.8452,-1.974,-2.125,-2.1411,-2.2656,-2.4353,-2.421,-2.3339,-2.1904,0.0,0.0,0.0,0.0,0.0,0.0,0.0,2.0377,2.103,2.206,2.2031,2.2078,2.2456,2.1342,1.9934,1.8316,1.8757,1.9194,1.9339,1.9535,1.9427,1.9014,1.9333,1.9133,1.8329,1.8651,1.7219,1.3933,0.7269,0.1353,-0.3895,-1.0954,-1.6108,-1.9517,-2.0882,-2.2324,-2.3885,-2.5673,-2.744,-2.9131,-3.0352,-3.3072,-3.6438,-3.6965,-3.8483,-4.0229,-3.9435,-3.9555,-3.9989,-3.9473,-3.8757,-3.782,-3.6433,-3.5308,0.0,0.0,0.0,0.0,0.0,0.0,0.0,0.0,0.0,0.0,0.0,0.0,0.0,0.0,0.0,0.0,0.0,0.0,0.0,2.8664,2.8412,2.7868,2.7011,2.2145,1.627,0.9926,0.2093,-0.4119,-0.7513,-1.0024,-1.0355,-0.7614,-0.9828,-1.0665,-0.9096,-1.1436,-1.3194,-1.4087,-1.6151,-1.8982,-2.2568,-2.2285,-2.0794,-1.8175,0.0,0.0,-1.5918,-1.6467,-1.6125,-1.5204,-1.5501,-1.6202,-1.7236,-1.8027,-1.9567,-2.1456,-2.2625,-2.3307,-2.3607,-2.2589,-2.178,-2.09,0.0,0.0,0.0,0.0,0.0,0.0,0.0,2.0017,2.0565,2.1301,2.1371,2.1452,2.1765,2.0951,2.0052,1.9214,1.9796,2.0575,2.1439,2.1437,2.1282,2.0993,2.1063,2.0609,1.9574,1.9225,1.7341,1.3849,0.6755,0.1015,-0.3506,-1.049,-1.5227,-1.7966,-1.9512,-2.0949,-2.2356,-2.4302,-2.5801,-2.6972,-2.7811,-2.9626,-3.2124,-3.4678,-3.7006,-3.8969,-3.9385,-4.009,-4.0859,-4.1272,-4.1183,-4.0604,-3.8806,-3.7858,-3.6473,0.0,0.0,0.0,0.0,0.0,0.0,0.0,0.0,0.0,0.0,0.0,0.0,0.0,0.0,2.5628,2.6576,0.0,2.8314,2.8602,2.7703,2.681,2.6528,2.2745,1.778,1.1776,0.5851,0.0634,-0.3485,-0.5583,-0.6376,-0.5444,-0.7296,-0.8175,-0.7601,-1.0019,-1.2462,-1.4702,-1.6025,-1.8261,-2.1397,-1.9971,-1.8185,-1.6049,-1.6483,-1.6155,-1.51,-1.5624,-1.554,-1.4986,-1.5777,-1.6593,-1.7567,-1.9199,-2.079,-2.224,-2.2601,-2.2949,-2.3134,-2.2323,-2.1659,-2.0941,0.0,0.0,0.0,0.0,0.0,0.0,0.0,0.0,0.0,2.0326,2.0527,2.0653,2.0645,1.9999,1.9657,1.9926,2.0553,2.1461,2.2713,2.2844,2.2822,2.275,2.2431,2.1704,2.0539,1.9332,1.7037,1.3571,0.6092,0.0618,-0.2969,-1.0062,-1.4359,-1.6184,-1.8065,-1.9486,-2.0597,-2.2758,-2.4024,-2.4632,-2.5375,-2.6434,-2.7923,-3.1333,-3.4077,-3.6343,-3.7968,-3.9043,-3.9934,-4.1574,-4.2104,-4.1772,-3.9914,-3.9085,-3.7754,-3.244,-3.0591,0.0,0.0,0.0,0.0,0.0,0.0,0.0,0.0,2.4271,2.4539,2.5841,2.6726,2.7437,2.7788,2.8249,2.8584,2.8685,2.748,2.6453,2.6113,2.2811,1.8613,1.3638,0.8712,0.4007,-0.027,-0.1981,-0.2965,-0.3334,-0.4489,-0.5583,-0.6418,-0.9471,-1.2404,-1.5206,-1.5499,-1.6762,-1.9129,-1.6819,-1.5268,-1.4547,-1.4774,-1.4932,-1.4894,-1.5206,-1.5284,-1.5236,-1.6574,-1.7664,-1.8689,-2.0636,-2.2009,-2.2879,-2.2346,-2.2508,-2.2962,-2.2299,-2.1606,-2.0911,0.0,0.0,0.0,0.0,0.0,0.0,0.0,0.0,0.0,1.9348,1.9213,1.9061,1.9052,1.8864,1.8986,1.9682,2.0352,2.1418,2.3042,2.3571,2.3755,2.3574,2.2642,2.152,2.0186,1.9258,1.7064,1.3519,0.7786,0.3008,-0.0871,-0.7425,-1.1593,-1.3701,-1.6114,-1.7553,-1.8309,-2.0271,-2.1738,-2.276,-2.326,-2.4314,-2.5739,-2.6916,-2.9688,-3.3223,-3.4883,-3.5605,-3.5987,-3.7661,-3.7883,-3.7527,-3.7898,-3.7229,-3.5684,-3.2519,-2.9876,-2.4885,-1.0737,0.2482,1.3377,1.7975,1.94,2.0483,0.0,2.4482,2.4932,2.5692,2.7136,2.8265,2.7927,2.8807,2.9162,2.8098,2.7291,2.6274,2.486,2.1929,1.9153,1.711,1.165,0.6983,0.4399,0.1358,-0.0433,-0.0496,-0.2086,-0.4203,-0.6887,-1.0917,-1.3691,-1.474,-1.5796,-1.6562,-1.6871,-1.6539,-1.6332,-1.6232,-1.4144,-1.3872,-1.5252,-1.6018,-1.6032,-1.5582,-1.7531,-1.9324,-2.0872,-2.1311,-2.1932,-2.2632,-2.2573,-2.2782,-2.3006,-2.164,-2.0584,-1.9794,0.0,0.0,0.0,0.0,0.0,0.0,0.0,0.0,0.0,0.0,1.7657,1.7326,1.7818,1.8437,1.8976,1.9275,2.0798,2.2066,2.2805,2.3714,2.3989,2.3429,2.2612,2.1294,1.9425,1.7818,1.5139,1.1276,0.7604,0.3398,-0.1245,-0.6059,-0.9583,-1.2024,-1.4057,-1.5642,-1.6921,-1.8749,-1.9966,-2.0665,-2.1561,-2.2636,-2.3756,-2.4557,-2.5855,-2.7629,-3.0448,-3.169,0.0,-3.3128,-3.3199,-3.2897,-3.3034,-3.2766,-3.1648,-2.8082,-2.4167,-1.787,-0.3595,0.5996,1.3067,1.7768,1.9684,2.1335,2.4951,2.5984,2.6713,2.8252,2.8944,2.926,2.9417,2.8665,2.816,2.8509,2.6386,2.4947,2.5558,2.2247,2.0202,2.1283,1.6516,1.1274,0.6558,0.3974,0.1903,0.0118,-0.0684,-0.314,-0.7841,-1.3816,-1.6603,-1.5572,-1.6168,-1.6516,-1.6504,-1.6485,-1.6801,-1.7408,-1.5786,-1.5051,-1.5184,-1.536,-1.6015,-1.7109,-1.8767,-2.04,-2.1904,-2.2192,-2.2709,-2.3293,-2.3173,-2.3226,-2.3221,-2.2073,-2.1393,-2.0989,0.0,0.0,0.0,0.0,0.0,0.0,0.0,0.0,0.0,0.0,0.0,0.0,0.0,1.8108,1.8794,1.9049,2.0783,2.1959,2.2212,2.2951,2.3126,2.2524,2.1546,2.002,1.7923,1.5791,1.2855,0.9169,0.6747,0.3172,-0.1605,-0.4849,-0.7827,-1.0437,-1.2144,-1.3835,-1.5475,-1.7149,-1.82,-1.8903,-2.0161,-2.112,-2.1896,-2.2552,-2.2694,-2.3,-2.6606,-2.7678,-2.7478,-2.7842,-2.7477,-2.6876,-2.6853,-2.6553,-2.5362,-2.1345,-1.4832,-0.6743,0.3431,0.8975,1.3042,1.7846,2.0106,2.215,2.5975,2.7161,2.8083,3.0312,3.0452,3.0309,3.0646,2.8993,2.7856,2.8713,2.5737,2.3839,2.5323,2.3147,2.2056,2.3708,2.1279,1.732,1.1796,0.9378,0.6525,0.2571,0.0832,-0.2041,-0.6702,-1.3154,-1.6291,-1.5392,-1.6149,-1.6588,-1.6683,-1.6694,-1.7114,-1.7959,-1.7531,-1.6901,-1.6125,-1.6361,-1.7399,-1.9089,-2.0447,-2.1692,-2.2803,-2.3169,-2.3639,-2.4098,-2.3933,-2.373,-2.35,-2.2968,-2.253,-2.2112,0.0,0.0,0.0,0.0,0.0,0.0,0.0,0.0,0.0,0.0,0.0,0.0,0.0,1.7689,1.8313,1.9198,1.9894,2.0558,2.1196,2.1036,2.0857,2.0794,1.8929,1.7106,1.5362,1.322,1.0687,0.7751,0.5466,0.2487,-0.1142,-0.3471,-0.6072,-0.8829,-1.0473,-1.2041,-1.359,-1.5046,-1.6373,-1.7588,-1.8986,-1.9767,-2.0111,-2.0449,-2.0395,-2.0578,-2.4064,-2.3647,-2.1478,-2.1559,-2.0328,-1.8871,-1.9504,-1.8458,-1.6251,-1.2413,-0.1519,0.971,1.1616,1.5636,1.9798,2.1993,2.2034,2.2468,2.5978,2.7326,2.8464,3.0663,3.1312,3.1426,3.1069,2.9999,2.8982,2.8257,2.557,2.3474,2.3155,2.4491,2.4912,2.3302,2.5405,2.5632,0.0,1.9176,1.4767,0.8432,0.2998,-0.0692,-0.2207,-0.6653,-1.0466,-1.3383,-1.5589,-1.6841,-1.7181,-1.7162,-1.7311,-1.7632,-1.8837,-1.915,-1.874,-2.0219,-2.1085,-2.1455,-2.2752,-2.3491,-2.3771,-2.4189,-2.4564,-2.4856,-2.4793,-2.4317,-2.3747,-2.4262,-2.3656,-2.247,0.0,0.0,0.0,0.0,0.0,0.0,0.0,0.0,0.0,0.0,0.0,0.0,0.0,0.0,0.0,0.0,2.0196,2.0697,2.0478,2.0559,2.0241,1.9476,1.8072,1.6533,1.4771,1.2368,1.0029,0.7848,0.649,0.4129,0.0765,-0.2989,-0.5227,-0.6212,-0.9016,-1.0746,-1.1801,-1.3877,-1.536,-1.6425,-1.7663,-1.838,-1.872,-1.8798,-1.7879,-1.653,0.0,-1.6745,-1.6647,-1.7636,-1.5805,-1.2979,-1.2263,-1.0961,-0.7953,0.084,0.8294,1.437,1.7568,2.0377,2.2366,2.2367,2.2908,2.4086,2.6424,2.775,2.8929,3.0488,3.0239,2.9782,3.0149,2.8805,2.7666,2.7812,2.5837,2.3858,2.2693,2.3206,2.3956,2.4616,2.7191,2.7359,2.3493,0.0,0.0,1.7447,1.3418,0.9292,0.515,-0.2881,-0.9671,-1.4756,-1.725,-1.8631,-1.8921,-1.8677,-1.9592,-2.1631,-2.1045,-2.1097,-2.1725,-2.2266,-2.2946,-2.3742,-2.355,-2.337,-2.3207,-2.3358,-2.3306,-2.3146,-2.2851,-2.2675,-2.2591,-2.2678,-2.2447,-2.2083,0.0,0.0,0.0,0.0,0.0,0.0,0.0,0.0,0.0,0.0,0.0,0.0,0.0,0.0,0.0,0.0,0.0,1.9736,1.9016,1.8902,1.8564,1.7869,1.6565,1.5211,1.3869,1.1516,0.9458,0.7795,0.663,0.4621,0.1862,-0.1458,-0.3721,-0.5116,-0.7254,-0.8948,-1.0347,-1.2022,-1.334,-1.4442,-1.5529,-1.6036,-1.6257,-1.591,-1.4777,0.0,-1.1161,-1.032,-1.041,-1.192,-1.0124,-0.6955,-0.5185,-0.182,0.3072,1.1093,1.6131,1.963,2.2224,2.3638,2.4138,2.3046,2.374,2.5058,2.6414,2.7578,2.8747,3.0248,2.9569,2.8868,2.9525,2.8595,2.7886,2.8342,2.6204,2.4118,2.3117,2.3362,2.4152,2.554,2.7106,2.7242,2.5177,2.4731,0.0,2.1461,1.929,1.5329,0.9114,0.0499,-0.6805,-1.2407,-1.6091,-1.7976,-1.7981,-1.7719,-1.8662,-2.0728,-1.9938,-2.001,-2.0781,-2.095,-2.1581,-2.2561,-2.2211,-2.1914,-2.1681,-2.1673,-2.1509,-2.127,-2.0986,-2.0783,-2.066,-2.0889,-2.071,-2.052,0.0,0.0,0.0,0.0,0.0,0.0,0.0,0.0,0.0,0.0,0.0,0.0,0.0,0.0,0.0,0.0,0.0,0.0,1.6913,1.6232,1.5956,1.6021,1.4496,1.3242,1.2534,1.0605,0.893,0.7623,0.5932,0.4168,0.2244,0.1093,-0.1498,-0.5084,-0.5157,-0.6647,-0.903,-0.9542,-1.0448,-1.1708,-1.2572,-1.2945,-1.2922,-1.2055,-1.122,-1.004,-0.7226,-0.4765,-0.3115,-0.4519,-0.3077,-0.0275,0.2092,0.8684,1.5978,1.8122,2.1944,2.5513,2.5536,2.548,2.5171,2.4202,2.4595,2.5367,2.61,2.6863,2.79,2.9704,2.9168,2.8577,2.9132,2.9233,2.9345,2.9699,2.6805,2.4474,2.4275,2.4866,2.5496,2.6006,2.5525,2.5764,2.7275,2.6536,0.0,2.0823,0.0,1.7432,1.0171,0.376,-0.1844,-0.6574,-1.2121,-1.483,-1.444,-1.4469,-1.4742,-1.5271,-1.591,-1.618,-1.614,-1.6621,-1.7354,-1.8245,-1.8975,-1.9285,-1.9262,-1.9201,-1.9198,-1.9239,-1.9161,-1.8676,-1.8127,-1.8977,-1.8546,-1.7904,0.0,0.0,0.0,0.0,0.0,0.0,0.0,0.0,0.0,0.0,0.0,0.0,0.0,0.0,0.0,0.0,0.0,0.0,1.6215,1.5996,1.5684,1.5142,1.417,1.3066,1.1892,1.0279,0.8847,0.7547,0.6373,0.5456,0.4713,0.2995,0.1172,-0.0637,-0.2309,-0.4152,-0.6219,-0.7028,-0.7955,-0.9005,-0.9986,-1.0248,-1.0055,-0.9941,-0.8507,-0.631,-0.4441,-0.1622,0.1083,0.0457,0.5431,1.211,1.3693,1.6581,1.9849,2.2527,2.4354,2.5597,2.605,2.5792,2.5342,2.5077,2.5082,2.5278,2.5803,2.5887,2.6058,2.673,2.6165,2.5889,2.6956,2.6997,2.7647,2.9995,2.9496,2.794,2.5376,2.5274,2.5494,2.5643,2.5803,2.5715,2.5201,2.539,2.4708,0.0,2.2136,2.0289,1.6581,0.8817,0.2217,-0.2689,-0.7488,-1.0266,-1.0885,-1.1408,-1.2254,-1.3478,-1.4484,-1.4046,-1.2394,-1.3009,-1.417,-1.5664,-1.604,-1.6248,-1.6281,-1.6053,-1.5876,-1.5698,-1.5624,-1.5728,-1.5928,-1.6138,-1.6026,-1.5826,0.0,0.0,0.0,0.0,0.0,0.0,0.0,0.0,0.0,0.0,0.0,0.0,0.0,0.0,0.0,0.0,0.0,0.0,0.0,1.5318,1.4881,1.4189,1.3286,1.2362,1.1483,1.0194,0.8998,0.778,0.6914,0.6329,0.6128,0.4827,0.3251,0.1496,-0.0151,-0.1958,-0.3819,-0.4833,-0.572,0.0,0.0,-0.7298,-0.7256,-0.7296,-0.5769,-0.3272,-0.097,0.4065,0.9806,1.1984,1.5577,1.9387,2.0807,2.2382,2.403,2.5605,2.6261,2.6475,2.6311,2.5927,2.5479,2.5034,2.4639,2.4381,2.4464,2.4196,2.4064,2.4482,2.4061,2.4018,2.5287,2.5834,2.6453,2.7614,2.9883,3.0564,2.7905,2.6203,2.5231,2.5236,2.5111,2.4936,2.4761,2.4392,2.3825,0.0,2.2149,2.0633,1.8298,1.2797,0.722,0.1741,-0.1336,-0.3896,-0.5997,-0.6355,-0.7081,-0.8194,-0.8543,-0.8599,-0.8464,-0.8859,-0.9706,-1.084,0.0,-1.2125,-1.2198,-1.2187,-1.2052,-1.1858,-1.1897,-1.2083,-1.2343,-1.2343,-1.249,-1.2726,0.0,0.0,0.0,0.0,0.0,0.0,0.0,0.0,0.0,0.0,0.0,0.0,0.0,0.0,0.0,0.0,0.0,0.0,0.0,0.0,1.3846,1.3154,1.2228,1.148,1.1038,1.0139,0.9096,0.7972,0.7252,0.6765,0.6531,0.6118,0.4694,0.2401,0.1551,0.023,-0.1585,-0.2629,-0.3507,-0.4106,-0.4108,-0.4373,-0.4747,0.0,-0.3022,-0.0673,0.3503,1.0894,1.9538,2.4834,2.532,2.3987,2.5499,2.6832,2.7814,2.7663,2.7523,2.7234,2.6365,2.5839,2.5293,2.4355,2.3559,2.2955,2.268,2.217,2.1954,2.2576,2.2332,2.2504,2.4046,2.5077,2.552,2.5003,2.9302,3.2085,3.0409,2.7354,2.5244,2.5101,2.419,2.3989,2.5031,2.3478,2.2392,2.234,2.1069,1.9436,1.7505,1.544,1.1671,0.586,0.468,0.2678,-0.0294,-0.0364,-0.0733,-0.1408,-0.0851,-0.1852,-0.4257,-0.4484,-0.4838,-0.5371,0.0,0.0,-0.8018,-0.8385,-0.8542,-0.8499,-0.8431,-0.8458,-0.8502,-0.8594,-0.902,-0.9573,0.0,0.0,0.0,0.0,0.0,0.0,0.0,0.0,0.0,0.0,1.3653,1.4283,0.0,0.0,0.0,0.0,0.0,0.0,0.0,0.0,0.0,1.2242,1.1559,1.0642,0.9691,0.9163,0.8262,0.6933,0.6789,0.6421,0.5776,0.5688,0.5097,0.4095,0.3569,0.2758,0.1633,0.0547,-0.0467,-0.1312,-0.1366,-0.2215,-0.3333,-0.2219,0.0,0.0,0.9962,1.6461,2.227,2.7125,2.9109,2.9763,3.1091,3.0404,2.9059,2.8865,2.7226,2.5618,2.6195,2.524,2.3928,2.3314,2.2115,2.1188,2.1558,2.0512,1.9702,2.0457,2.0106,2.0558,2.3374,2.3405,2.4243,2.8121,3.03,3.0899,2.916,2.8033,2.7047,2.6168,2.4852,2.4068,2.4207,2.2493,2.1275,0.0,1.9197,1.7876,1.7427,1.4989,1.1612,0.7372,0.6406,0.5696,0.5227,0.4635,0.3986,0.3304,0.3282,0.2288,0.0566,-0.0249,-0.1366,-0.2699,-0.389,0.0,-0.5893,-0.686,-0.7527,-0.7901,-0.6745,-0.6603,-0.705,-0.7425,-0.8092,-0.879,0.0,0.0,0.0,0.0,0.0,0.0,0.0,1.2076,1.1819,1.19,1.1963,1.252,1.3744,1.4285,1.4501,0.0,0.0,0.0,0.0,0.0,0.0,0.0,0.0,0.0,0.8988,0.8199,0.7286,0.6408,0.0,0.5544,0.5204,0.4979,0.4896,0.4928,0.4027,0.3553,0.3327,0.2191,0.0974,-0.0148,0.015,-0.0304,-0.0996,0.0,0.0,0.0,1.5024,2.0189,2.4941,2.8874,3.0713,3.1502,3.2323,3.1404,2.9747,2.8364,2.6902,2.5649,2.5347,2.4604,2.3808,2.3457,2.2123,2.0654,1.9662,1.8559,1.7821,1.8166,1.8343,1.9244,2.1741,2.2401,2.3302,2.5302,2.7542,2.9232,2.9848,2.8561,2.7216,2.6411,2.4711,2.3501,2.3215,2.145,2.012,1.963,1.7953,1.6875,1.6743,1.4104,1.1563,0.9334,0.8552,0.8047,0.7777,0.7015,0.646,0.6068,0.4891,0.3874,0.3026,0.2686,0.1328,-0.08,-0.145,0.0,-0.3587,-0.5058,-0.5293,-0.4692,-0.4118,-0.4076,-0.4242,-0.3727,-0.4117,-0.491,0.0,0.0,0.0,0.0,0.0,0.0,0.0,1.1719,1.1217,1.0956,1.0379,1.0764,1.2791,1.3383,1.3834,0.0,0.0,0.0,0.0,0.0,0.0,0.0,0.0,0.0,0.0,0.0,0.0,0.5866,0.5064,0.0,0.0,0.0,0.0,0.0,0.3781,0.3487,0.3867,0.2847,0.173,0.0,0.0,0.1577,0.0,0.0,0.0,0.0,0.0,2.2198,2.6293,2.9323,3.0496,3.082,3.1167,3.0681,2.9555,2.7323,2.6371,2.5742,2.4364,2.3876,2.3627,2.3151,2.1709,1.988,1.7847,1.6597,1.6233,1.7485,1.8305,1.925,2.0768,2.2071,2.2853,2.267,2.5092,2.7836,3.0194,2.8725,2.7166,2.6567,2.4574,2.3014,2.2328,2.0441,1.8959,1.817,1.6699,1.5743,1.561,1.3047,1.1366,1.0813,1.0012,0.9309,0.8811,0.8049,0.767,0.7514,0.5636,0.4621,0.4498,0.4467,0.3182,0.0927,0.0273,0.0,0.0,-0.224,-0.209,-0.1398,-0.1324,-0.128,-0.1113,-0.0055,0.0111,-0.0277,0.0,0.0,0.0,0.0,0.0,0.0,0.0,1.1209,1.0438,0.9695,0.9079,0.9193,1.025,1.1368,1.2172,0.0,0.0,0.0,0.0,0.0,0.0,0.0,0.0,0.0,0.0,0.0,0.0,0.5083,0.4575,0.0,0.0,0.0,0.0,0.0,0.0,0.2847,0.306,0.2552,0.0,0.0,0.0,0.0,0.0,0.0,0.0,0.0,0.0,2.1774,2.475,2.7263,2.7931,2.7731,2.7877,2.7962,2.7684,2.6308,2.545,2.4692,2.3587,2.2975,2.2321,2.0871,1.922,1.7694,1.68,1.4873,1.484,2.0494,2.1736,2.1886,2.2012,2.252,2.3392,2.4843,2.6157,2.7336,2.8275,2.819,2.7785,2.7194,2.4953,2.3016,2.1872,1.9694,1.7866,1.6701,1.5005,0.0,1.4018,1.2033,1.0864,1.0813,0.9562,0.8857,0.8804,0.8049,0.7711,0.7682,0.6112,0.5396,0.5383,0.4772,0.3886,0.2648,0.0778,0.0,0.0,0.2623,0.2176,-0.0055,0.1279,0.1783,0.1782,0.1444,0.245,0.3694,0.0,0.0,0.0,0.0,0.0,0.0,1.1977,1.1267,1.0407,0.9354,0.8378,0.7997,0.8561,0.9247,1.0436,1.2438,0.0,0.0,0.0,0.0,0.0,0.0,0.0,0.0,0.0,0.0,0.5418,0.4796,0.4121,0.0,0.0,0.0,0.0,0.0,0.0,0.2479,0.2546,0.2328,0.0,0.0,0.0,0.0,0.0,0.0,0.0,0.0,0.0,0.0,2.4306,2.5841,2.5922,2.5479,2.5678,2.5682,2.5592,2.5607,2.4914,2.4112,2.4006,2.3481,2.2857,2.235,2.0552,1.7876,1.3877,1.4808,1.7659,2.1417,2.232,2.2451,2.2469,2.2478,2.2834,2.3836,2.4552,2.544,2.6727,2.6641,2.6352,2.6136,2.4164,2.2251,2.0753,1.9164,1.7427,1.5522,1.44,0.0,1.3286,1.207,1.1216,1.0813,0.9917,0.9211,0.8804,0.8533,0.8156,0.767,0.6637,0.5928,0.5487,0.4802,0.4307,0.3855,0.3074,0.0,0.0,0.2627,0.2963,0.2792,0.3357,0.3583,0.3583,0.3403,0.3799,0.4373,0.0,0.0,0.0,0.0,0.0,1.1977,1.1678,1.0956,0.9963,0.8618,0.7455,0.6819,0.7136,0.754,0.8908,1.1589,1.1787,0.0,0.0,0.0,0.0,0.0,0.0,0.0,0.0,0.0,0.5263,0.4924,0.4075,0.3678,0.0,0.0,0.2446,0.2556,0.0,0.0,0.0,0.0,0.0,0.0,0.0,0.0,0.0,0.0,0.0,0.0,0.0,0.0,0.0,0.0,0.0,2.3561,2.4028,2.3865,2.371,2.4726,2.4457,2.3891,2.4132,2.3111,2.1793,2.0831,1.8319,1.5203,1.1939,1.5254,1.9473,2.1073,2.1732,2.2069,2.2208,2.2152,2.2217,2.2828,2.3349,2.425,2.5969,2.5826,2.5601,2.5697,2.4139,2.224,2.0196,1.827,1.643,1.4582,1.3873,0.0,1.2929,1.2187,1.1516,1.0813,1.0167,0.9458,0.8811,0.8804,0.8533,0.799,0.7289,0.6637,0.614,0.5449,0.5018,0.4802,0.4584,0.0,0.0,0.2901,0.3522,0.449,0.4487,0.4487,0.4487,0.4477,0.4473,0.4473,0.0,0.0,0.0,0.0,0.0,0.0,1.1023,1.0072,0.8838,0.7165,0.6024,0.5537,0.5884,0.6487,0.7641,0.9366,1.0793,0.0,0.0,0.0,0.0,0.0,0.0,0.0,0.0,0.0,0.5573,0.5429,0.4491,0.3997,0.3761,0.2676,0.2344,0.2643,0.0,0.0,0.0,0.0,0.0,0.0,0.0,0.0,0.0,0.0,0.0,0.0,0.0,0.0,0.0,0.0,0.0,0.0,0.0,2.2515,2.2089,2.3439,2.3987,2.4089,2.358,2.1256,1.8096,1.453,1.0399,0.8148,1.1773,1.5885,1.9078,1.9451,2.0105,2.0716,2.1158,2.1423,2.1779,2.242,2.3163,2.4326,2.613,2.6229,2.6184,2.6462,2.5381,2.3403,2.0482,1.691,1.4479,1.3862,1.3238,0.0,1.2881,1.2187,1.1516,1.0813,1.0167,0.9458,0.8811,0.8804,0.8804,0.8758,0.8049,0.767,0.767,0.6912,0.6204,0.0,0.0,0.0,0.0,0.448,0.448,0.4477,0.4522,0.4519,0.4519,0.4519,0.4519,0.4519,0.0,0.0,0.0,0.0,0.0,0.0,0.0,0.9969,0.8851,0.7265,0.5987,0.5251,0.5157,0.6053,0.7135,0.8482,1.0045,0.0,0.0,0.0,0.0,0.0,0.0,0.0,0.0,0.0,0.5782,0.5432,0.4635,0.4098,0.3952,0.3086,0.2923,0.3385,0.3186,0.3201,0.0,0.0,0.0,0.0,0.0,0.0,0.0,0.0,0.0,0.0,0.0,0.0,0.0,0.0,0.0,0.0,0.0,0.0,0.0,2.2786,2.2551,2.2385,2.3484,2.0946,1.7273,1.4117,1.0779,0.913,1.2208,1.4719,1.6946,1.869,1.952,2.0424,2.1839,2.202,2.2256,2.3153,2.3589,2.4262,2.5611,2.5841,2.5827,2.5646,2.3433,2.1195,1.9342,0.0,1.5742,1.43,0.0,0.0,1.2949,1.2666,1.199,1.0864,1.0167,0.9458,0.8811,0.8804,0.8533,0.8049,0.783,0.745,0.6966,0.6696,0.6199,0.0,0.0,0.0,0.0,0.4522,0.4522,0.4522,0.4519,0.4519,0.457,0.5003,0.5164,0.5164,0.0,0.0,0.0,0.0,0.0,0.0,0.0,0.9392,0.8238,0.6724,0.5447,0.4626,0.4537,0.5513,0.6777,0.807,0.9617,0.0,0.0,0.0,0.0,0.0,0.0,0.0,0.0,0.6419,0.6082,0.5803,0.4899,0.4257,0.393,0.3151,0.3076,0.3487,0.3489,0.3657,0.0,0.0,0.0,0.0,0.0,0.0,1.3331,0.0,0.0,0.0,0.0,0.0,0.0,0.0,0.0,0.0,0.0,0.0,0.0,0.0,2.2092,2.1474,2.1686,1.955,1.6507,1.3593,1.1617,1.083,1.2491,1.4427,1.6395,1.8272,1.9606,2.0887,2.2123,2.2583,2.2967,2.3492,2.3898,2.4812,2.6557,2.678,2.6553,2.6116,2.2989,2.0477,0.0,1.7594,1.6005,1.4645,0.0,0.0,1.3175,1.2704,1.199,1.0864,1.0415,0.971,0.8811,0.8804,0.8586,0.8103,0.8103,0.7883,0.745,0.745,0.7015,0.0,0.0,0.0,0.0,0.5281,0.5117,0.4897,0.4897,0.4732,0.457,0.4948,0.5109,0.5109,0.0,0.0,0.0,0.0,0.0,0.0,0.0,0.8396,0.7154,0.5668,0.4527,0.3895,0.4058,0.513,0.6445,0.8037,0.0,0.0,0.0,0.0,0.0,0.0,0.0,0.0,0.0,0.6587,0.636,0.6434,0.5312,0.4438,0.3975,0.3109,0.2972,0.3317,0.3297,0.3816,0.0,0.0,0.0,0.0,0.0,0.0,0.0,0.0,0.0,0.0,0.0,0.0,0.0,0.0,0.0,0.0,0.0,0.0,0.0,0.0,0.0,0.0,0.0,1.7361,1.5947,1.3105,1.2628,1.287,1.2757,1.4771,0.0,1.8221,2.0137,2.1705,2.2094,2.3132,2.3881,2.3509,2.4326,2.5941,2.8547,2.8604,2.8115,2.7367,2.3919,2.1105,1.9901,1.7465,1.5653,1.489,0.0,0.0,1.3516,1.2438,1.1543,1.0813,1.0762,1.0115,0.8804,0.8804,0.8804,0.8804,0.8804,0.8804,0.8804,0.8804,0.8374,0.0,0.0,0.0,0.0,0.6588,0.6199,0.5597,0.5597,0.5218,0.468,0.468,0.4736,0.4736,0.0,0.0,0.0,0.0,0.0,0.0,0.0,0.0,0.0,0.0,0.4588,0.427,0.4461,0.5533,0.6711,0.0,0.0,0.0,0.0,0.0,0.0,0.0,0.0,0.0,0.0,0.7136,0.7146,0.7346,0.6447,0.5823,0.5521,0.4505,0.4224,0.4642,0.4543,0.5043,0.0,0.0,0.0,0.0,0.0,0.0,0.0,0.0,0.0,0.0,2.2172,2.2101,0.0,0.0,0.0,0.0,0.0,0.0,0.0,0.0,2.2438,2.1192,1.8954,0.0,1.6867,1.4872,1.4101,1.3884,0.0,1.4856,1.6389,1.8339,1.9299,2.0391,2.2337,2.3757,2.4716,2.4861,2.6162,2.7612,2.8822,2.9226,2.8628,2.6466,2.4887,2.2786,1.9711,1.8728,1.7477,0.0,0.0,1.4541,1.3555,1.2777,1.1841,1.0821,1.0312,0.9614,0.8811,0.8804,0.8804,0.8804,0.8804,0.8804,0.8804,0.8804,0.8374,0.0,0.0,0.0,0.6588,0.6588,0.648,0.6367,0.6367,0.6258,0.615,0.6745,0.6961,0.6961,0.0,0.0,0.0,0.0,0.0,0.0,0.0,0.0,0.0,0.0,0.0,0.0,0.0,0.0,0.0,0.0,0.0,0.0,0.0,0.0,0.0,0.0,0.0,0.6984,0.7521,0.7555,0.7627,0.7826,0.7104,0.6406,0.5609,0.4889,0.4619,0.4628,0.5303,0.6075,0.0,0.0,0.0,0.0,1.3239,0.0,0.0,0.0,0.0,0.0,2.2603,2.2539,0.0,2.1131,2.0022,1.9179,0.0,0.0,0.0,0.0,2.2406,2.1164,1.9282,1.8793,1.8181,1.5769,1.5194,1.5079,1.4709,1.5312,1.6479,1.8347,1.9841,2.1559,2.4095,2.6325,2.7654,2.7322,2.8502,2.9584,3.0011,2.9531,2.8567,2.6969,2.5014,2.2795,0.0,1.9397,1.8057,0.0,0.0,1.4932,1.3848,1.2973,1.1999,1.083,1.0167,0.9458,0.8811,0.8804,0.8804,0.8804,0.8804,0.8804,0.8804,0.8804,0.8593,0.0,0.0,0.0,0.761,0.761,0.7396,0.7128,0.7128,0.6912,0.6642,0.7074,0.7182,0.7182,0.0,0.0,0.0,0.0,0.0,0.0,0.0,0.0,0.0,0.0,0.0,0.0,0.0,0.0,0.0,0.0,0.0,0.0,0.0,0.0,0.0,0.0,0.0,0.7329,0.7841,0.8115,0.8384,0.8513,0.787,0.6905,0.5595,0.5117,0.4599,0.4164,0.5691,0.6916,0.0,0.0,0.0,0.0,1.7225,0.0,0.0,0.0,0.0,0.0,0.0,0.0,0.0,2.1074,1.9829,1.8995,1.9736,0.0,0.0,0.0,0.0,0.0,1.9867,2.0019,1.9799,1.6944,1.6564,1.6618,1.5694,1.6373,1.7564,1.8959,2.1354,2.4014,2.6558,2.9411,3.1204,3.0472,3.1263,3.1825,3.1514,2.9941,2.8556,2.7906,2.4944,0.0,2.1447,1.9813,0.0,0.0,0.0,1.5137,1.4223,1.3187,1.2087,1.0963,1.019,0.9458,0.8811,0.8804,0.8804,0.8804,0.8804,0.8804,0.8804,0.8804,0.8804,0.8804,0.0,0.0,0.8804,0.8804,0.8427,0.7883,0.7883,0.7509,0.6912,0.6912,0.6912,0.6912,0.0,0.0,0.0,0.0,0.0,0.0,0.0,0.0,0.0,0.0,0.0,0.0,0.0,0.0,0.0,0.0,0.0,0.0,0.0,0.0,0.0,0.0,0.8667,0.8624,0.935,0.956,1.0136,1.0954,0.97,0.8674,0.7936,0.6233,0.5094,0.4547,0.5579,0.7052,0.888,0.0,0.0,0.0,1.8334,0.0,0.0,0.0,0.0,0.0,0.0,0.0,0.0,2.177,2.0861,2.0054,2.0406,0.0,0.0,0.0,0.0,0.0,2.1275,2.1844,2.1815,2.0593,1.9723,1.8739,1.7346,1.8738,2.0692,2.2179,2.4229,2.6515,2.9009,3.1102,3.2942,3.443,3.473,3.4285,3.2659,3.172,3.0146,2.7227,0.0,2.401,2.1179,0.0,0.0,0.0,0.0,1.5586,1.4727,1.3606,1.2484,1.145,1.0366,0.9458,0.8811,0.8804,0.8804,0.8804,0.8804,0.8804,0.8804,0.8804,0.8804,0.0,0.0,0.8804,0.8804,0.8804,0.8752,0.8646,0.8646,0.8586,0.848,0.848,0.848,0.848,0.0,0.0,0.0,0.0,0.0,0.0,0.0,0.0,0.0,0.0,0.0,0.0,0.0,0.0,0.0,0.0,0.0,0.0,0.0,0.0,0.0,1.1162,1.1272,1.1195,1.0995,1.1458,1.1821,1.1939,1.0943,0.9614,0.8075,0.6145,0.5032,0.4688,0.5507,0.6718,0.826,1.0039,1.2023,0.0,0.0,0.0,0.0,0.0,0.0,0.0,0.0,0.0,0.0,0.0,2.1114,2.1042,2.0759,0.0,0.0,0.0,0.0,0.0,2.2206,2.3607,2.5313,2.6975,2.4762,2.2328,2.2572,2.4141,2.5535,2.5662,2.6931,2.9273,3.3337,3.5362,3.6519,3.6708,3.6142,3.5007,3.3245,3.1233,2.9372,0.0,0.0,2.3763,2.1772,0.0,0.0,0.0,0.0,0.0,1.4834,1.4304,1.3506,1.2385,1.1882,1.1157,1.0295,0.9877,0.9432,0.8804,0.8804,0.8891,0.9031,0.8878,0.8891,0.9031,0.0,0.8804,0.8804,0.8804,0.8804,0.8804,0.8804,0.8804,0.8804,0.8804,0.8804,0.8804,0.0,0.0,0.0,0.0,0.0,0.0,0.0,0.0,0.0,0.0,0.0,0.0,0.0,0.0,0.0,0.0,0.0,0.0,0.0,0.0,1.2071,1.2813,1.3637,1.3617,1.272,1.3245,1.3267,1.2714,1.1767,0.9892,0.7343,0.552,0.4495,0.409,0.5271,0.6312,0.7474,0.9858,1.1616,0.0,0.0,0.0,0.0,0.0,0.0,0.0,0.0,0.0,0.0,0.0,0.0,0.0,0.0,0.0,0.0,2.1508,2.2273,2.2911,2.3395,2.5164,2.7724,3.1281,2.8793,2.6078,2.8381,2.94,2.9762,2.9438,3.0422,3.2602,3.6877,3.8605,3.8933,3.7673,3.6663,3.5439,3.3672,3.0841,2.8806,2.8538,2.5853,2.3443,0.0,0.0,0.0,0.0,0.0,0.0,1.4971,1.4834,1.4342,1.3295,1.305,1.2422,1.126,1.0654,0.9916,0.9008,0.8857,0.8958,0.9176,0.8938,0.8965,0.917,0.8931,0.8804,0.8804,0.8804,0.8804,0.8804,0.8804,0.8804,0.8804,0.8804,0.8804,0.8804,0.0,0.0,0.0,0.0,0.0,0.0,0.0,0.0,0.0,0.0,0.0,0.0,0.0,0.0,0.0,0.0,0.0,0.0,0.0,0.0,1.2093,1.3901,1.4639,1.4818,1.4426,1.4475,1.4357,1.3985,1.204,0.9381,0.5992,0.4543,0.3203,0.2139,0.4425,0.6005,0.7196,1.1446,1.2657,1.2202,1.773,0.0,0.0,0.0,0.0,0.0,0.0,0.0,0.0,0.0,0.0,0.0,0.0,0.0,2.1636,2.1896,2.2376,2.3249,2.5349,2.6184,2.7162,3.0102,2.9641,2.9496,3.3355,3.2805,3.1948,3.3724,3.5462,3.6903,3.7714,3.8304,3.8248,3.6996,3.6694,3.5982,3.4185,0.0,3.0017,2.804,2.5974,0.0,0.0,0.0,0.0,0.0,0.0,0.0,1.5371,1.5,1.4486,1.3761,1.2986,1.1885,1.0578,1.0106,0.9784,0.971,0.9113,0.8958,0.9176,0.8938,0.8965,0.917,0.8931,0.8804,0.8804,0.8804,0.8804,0.8804,0.8804,0.8804,0.8804,0.8804,0.8804,0.8804,0.0,0.0,0.0,0.0,0.0,0.0,0.0,0.0,0.0,0.0,0.0,0.0,0.0,0.0,0.0,0.0,0.0,0.0,0.0,1.2672,1.3195,1.3674,1.5103,1.631,1.7288,1.6944,1.6262,1.5164,1.199,0.9246,0.6981,0.5471,0.3542,0.14,0.28,0.4334,0.6256,1.0511,1.476,1.8748,2.0431,0.0,0.0,0.0,0.0,0.0,0.0,0.0,0.0,0.0,2.2238,2.2073,2.1749,2.1801,2.1985,2.2474,2.3541,2.4802,2.605,2.8588,3.1124,3.2029,3.3373,3.4645,3.5332,3.5614,3.6217,3.8008,3.9374,4.0146,3.9762,4.0574,4.0452,3.7919,3.7799,3.7175,3.4669,3.2425,3.0408,2.8729,2.6336,0.0,0.0,0.0,0.0,0.0,0.0,0.0,1.541,1.5264,1.4935,1.4449,1.4079,1.3558,1.2753,1.1886,1.1272,1.0846,0.9453,0.8958,0.9176,0.8938,0.8965,0.917,0.8931,0.8804,0.8804,0.8804,0.8804,0.8804,0.8804,0.8804,0.8804,0.8804,0.8804,0.8804,0.0,0.0,0.0,0.0,0.0,0.0,0.0,0.0,0.0,0.0,0.0,0.0,0.0,0.0,0.0,0.0,0.0,0.0,1.2104,1.2764,1.3218,1.3483,1.5581,1.7289,1.8488,1.8782,1.7867,1.5695,1.1856,0.9135,0.7512,0.6531,0.4698,0.228,0.1952,0.277,0.475,1.0193,1.6253,2.2236,2.247,2.2817,0.0,0.0,0.0,0.0,0.0,0.0,0.0,0.0,2.263,2.2697,2.2251,2.2495,2.3002,2.3338,2.4997,2.6907,2.7727,3.0961,3.4186,3.4632,3.6491,3.8155,3.8099,3.8596,3.9648,4.1696,4.2124,4.1896,4.1024,4.1357,4.0856,3.8095,3.7953,3.7291,3.4557,3.2177,3.0179,2.8671,0.0,0.0,0.0,0.0,0.0,0.0,0.0,0.0,0.0,1.5283,1.5078,1.4795,1.4648,1.4324,1.3809,1.2917,1.2237,1.1693,1.0128,0.9372,0.9176,0.9031,0.9051,0.9176,0.9031,0.8891,0.8804,0.8804,0.8804,0.8804,0.8804,0.8804,0.8804,0.8804,0.8804,0.8804,0.0,0.0,0.0,0.0,0.0,0.0,0.0,0.0,0.0,0.0,0.0,0.0,0.0,0.0,0.0,0.0,0.0,0.0,1.1341,1.1227,1.1871,1.3433,1.6104,1.7531,1.7468,1.9531,1.8895,1.5345,1.1776,0.9067,0.7236,0.7437,0.6595,0.4791,0.2279,0.1538,0.2817,1.1027,1.6928,2.0913,2.3316,2.4028,2.3599,0.0,0.0,0.0,0.0,0.0,0.0,0.0,2.3185,2.364,2.2546,2.3452,2.4862,2.4515,2.6657,2.9403,3.0764,3.3094,3.5605,3.76,3.8471,3.9547,4.2276,4.1869,4.1713,4.461,4.3634,4.2028,4.1082,4.0081,3.8851,3.7059,3.6814,3.6026,3.3804,3.1467,2.9337,2.7478,0.0,0.0,0.0,0.0,0.0,0.0,0.0,0.0,0.0,1.501,1.4785,1.4775,1.4355,1.38,1.3141,1.2697,1.2387,1.2095,1.1229,1.024,0.9239,0.9183,0.9183,0.9183,0.9183,0.9017,0.8804,0.8804,0.8804,0.8804,0.8804,0.8804,0.8804,0.8804,0.8804,0.8804,0.0,0.0,0.0,0.0,0.0,0.0,0.0,0.0,0.0,0.0,0.0,0.0,0.0,0.0,0.0,0.0,0.0,0.0,1.3415,1.2095,1.1786,1.3014,1.4976,1.6236,1.6708,1.5369,1.3943,1.2516,1.0564,0.9118,0.8088,0.8162,0.8945,1.0086,0.599,0.5332,0.776,1.3498,1.7508,2.0256,2.3142,2.3767,2.2966,0.0,0.0,0.0,0.0,0.0,0.0,0.0,0.0,0.0,2.374,2.4954,2.6434,2.6382,2.8386,3.0792,3.1803,3.4409,3.6994,3.7546,3.9757,4.195,4.2507,4.2448,4.2785,4.4433,4.3693,4.2341,4.1149,4.0654,3.9512,3.662,3.6509,3.5853,3.3171,3.0793,2.8837,2.7436,0.0,0.0,0.0,0.0,0.0,0.0,0.0,0.0,0.0,1.501,1.4648,1.4336,1.3916,1.3723,1.38,1.3399,1.3224,1.3277,1.2142,1.1074,1.0089,0.9756,0.9344,0.8938,0.8938,0.8884,0.8804,0.8804,0.8804,0.8804,0.8804,0.8804,0.8804,0.8804,0.8804,0.8804,0.0,0.0,0.0,0.0,0.0,0.0,0.0,0.0,0.0,0.0,0.0,0.0,0.0,0.0,0.0,0.0,0.0,0.0,0.0,1.0508,1.0722,1.2485,1.3566,1.4218,1.4499,1.3557,1.3153,1.3348,1.1075,1.0158,1.0543,1.2212,1.4842,1.8044,1.3778,1.2792,1.4425,1.6921,1.8897,2.0429,2.1474,2.1966,2.2122,0.0,0.0,0.0,0.0,0.0,0.0,0.0,0.0,0.0,2.5307,2.6762,2.8505,2.9224,3.117,3.3465,3.5117,3.7395,3.9442,4.0058,4.1908,4.3478,4.3094,4.3441,4.3905,4.4296,4.355,4.2425,4.1047,4.0342,0.0,3.6291,3.5674,3.4676,3.205,2.9736,2.7884,0.0,0.0,0.0,0.0,0.0,0.0,0.0,0.0,0.0,0.0,1.501,1.4668,1.4404,1.415,1.4053,1.4077,1.3887,1.3792,1.3895,1.2641,1.1635,1.0885,1.0132,0.9542,0.9159,0.891,0.8871,0.8971,0.8851,0.8804,0.8804,0.8804,0.8804,0.8804,0.8804,0.8804,0.8804,0.0,0.0,0.0,0.0,0.0,0.0,0.0,0.0,0.0,0.0,0.0,0.0,0.0,0.0,0.0,0.0,0.0,0.0,0.0,0.0,0.9025,1.1987,1.2155,1.2056,1.1801,1.3639,1.5289,1.6809,1.3241,1.2327,1.4131,1.8055,2.2175,2.6193,2.2984,2.1359,2.0918,2.0308,2.0338,2.0648,1.8719,1.913,2.0955,2.1292,0.0,0.0,0.0,0.0,0.0,0.0,0.0,0.0,2.7051,2.8718,3.0867,3.2409,3.443,3.6747,3.9374,4.0984,4.2268,4.3814,4.4263,4.4249,4.3912,4.439,4.4699,4.3881,4.3082,4.2121,4.076,3.9338,3.7738,3.5808,3.4402,3.2745,3.0558,2.8443,2.664,0.0,0.0,0.0,0.0,0.0,0.0,0.0,0.0,0.0,0.0,1.498,1.4727,1.4727,1.4648,1.4443,1.4029,1.4058,1.4077,0.0,1.2982,1.2158,1.1584,1.0355,0.9716,0.9666,0.9088,0.8978,0.913,0.8945,0.8831,0.8804,0.8804,0.8804,0.8804,0.8804,0.8804,0.8804,0.0,0.0,0.0,0.0,0.0,0.0,0.0,0.0,0.0,0.0,0.0,0.0,0.0,0.0,0.0,0.0,0.0,0.0,0.0,0.0,0.7793,1.229,1.2764,1.305,1.3178,1.4655,1.6599,1.8946,1.8466,1.8108,1.8007,1.9759,2.1639,2.346,2.0962,1.9214,1.8144,1.8248,1.7839,1.7063,1.6303,1.6777,1.795,1.829,1.9452,0.0,0.0,0.0,0.0,0.0,0.0,0.0,2.8091,3.0173,3.2683,3.3259,3.5322,3.7687,3.9001,4.0559,4.2082,4.3104,4.3959,4.4423,4.4036,4.3429,4.264,4.1696,4.1307,4.0724,3.9363,3.7672,3.5958,3.4368,3.3002,3.1374,2.9157,2.7526,2.6082,0.0,0.0,0.0,0.0,0.0,0.0,0.0,0.0,0.0,1.541,1.4687,1.4277,1.4277,1.3633,1.3398,1.3643,1.3912,1.4077,0.0,1.3543,1.3046,1.2562,1.0934,0.9724,0.9022,0.9099,0.9051,0.8911,0.9078,0.9011,0.8804,0.8804,0.8804,0.8804,0.8804,0.8804,0.8804,0.0,0.0,0.0,0.0,0.0,0.0,0.0,0.0,0.0,0.0,0.0,0.0,0.0,0.0,0.0,0.0,0.0,0.0,0.0,0.0,0.6774,1.2923,1.323,1.3645,1.4473,1.5308,1.6879,1.9221,2.0022,2.0703,2.118,2.1227,2.1007,2.0462,1.9394,1.8003,1.6445,1.6431,1.6109,1.5573,1.5852,1.6545,1.7491,1.772,1.8843,2.046,2.1782,0.0,0.0,0.0,0.0,0.0,0.0,0.0,3.3982,3.5488,3.6749,3.8136,4.0538,4.1608,4.2316,4.3516,4.4064,4.4261,4.4046,4.2912,4.1613,4.0474,4.0173,3.9617,3.7962,3.6378,3.4726,3.2933,3.1552,2.9938,2.7753,2.6316,2.4954,0.0,0.0,0.0,0.0,0.0,0.0,0.0,0.0,1.541,1.541,1.499,1.4746,1.4746,1.4326,1.4004,1.3809,1.397,1.3936,1.3535,1.3148,1.2514,1.16,1.0709,0.9847,0.9018,0.9025,0.9025,0.9018,0.9025,0.8945,0.8804,0.8804,0.8804,0.8804,0.8804,0.8804,0.8804,0.0,0.0,0.0,0.0,0.0,0.0,0.0,0.0,0.0,0.0,0.0,0.0,0.0,0.0,0.0,0.0,0.0,0.0,0.0,0.0,0.0,1.278,1.3233,1.3972,1.5423,1.5902,1.7051,1.9028,2.0174,2.1599,2.3165,2.2253,2.0669,1.8559,1.8548,1.7534,1.576,1.5478,1.5274,1.5181,1.6078,1.7098,1.8028,1.8092,1.9002,2.0444,2.2096,2.3133,2.4064,2.6234,0.0,0.0,0.0,0.0,3.4778,3.748,3.7955,3.8417,4.2082,4.2801,4.2815,4.415,4.4252,4.3937,4.3812,4.2496,4.0921,3.9696,3.9199,3.8362,3.6374,3.4903,3.3353,3.1486,3.0002,2.8369,2.6357,2.5066,0.0,0.0,0.0,0.0,0.0,0.0,0.0,0.0,0.0,1.541,1.541,1.5273,1.5195,1.5195,1.5049,1.4629,1.3926,1.3941,1.3643,1.2881,1.2479,1.1667,1.0539,1.0393,0.9857,0.9097,0.8965,0.8991,0.9097,0.8958,0.8851,0.8804,0.8804,0.8804,0.8804,0.8804,0.8804,0.8804,0.0,0.0,0.0,0.0,0.0,0.0,0.0,0.0,0.0,0.0,0.0,0.0,0.0,0.0,0.0,0.0,0.0,0.0,0.6514,0.0,0.0,0.9989,1.2148,1.3938,1.5371,1.6764,1.8251,1.986,2.092,2.1925,2.2753,2.2246,2.1372,2.0287,1.9304,1.811,1.6864,1.6581,1.5979,1.5269,1.6028,1.7016,1.8096,1.8229,1.9192,2.0699,2.2593,2.3753,2.4703,2.6847,2.9076,0.0,0.0,0.0,3.4836,3.6801,3.7872,3.8845,4.081,4.2323,4.3454,4.3951,4.4028,4.3812,4.3032,4.1614,4.0143,3.9038,3.7805,3.6298,3.432,3.2371,3.0782,3.0002,2.825,2.645,2.4961,2.418,0.0,0.0,0.0,0.0,0.0,0.0,0.0,0.0,1.5806,1.541,1.541,1.4707,1.4253,1.4253,1.3594,1.3164,1.3047,1.3408,1.335,1.2881,1.2479,1.205,1.1554,1.0698,0.9789,0.8878,0.9037,0.901,0.8884,0.9044,0.9031,0.8804,0.8804,0.8804,0.8804,0.8804,0.8804,0.8804,0.0,0.0,0.0,0.0,0.0,0.0,0.0,0.0,0.0,0.0,0.0,0.0,0.0,0.0,0.0,1.118,1.0288,0.8909,0.6881,0.7263,0.8049,0.9313,1.2342,1.4851,1.6748,1.7745,1.9002,2.0555,2.1256,2.1807,2.2198,2.1936,2.1247,2.0115,1.9375,1.829,1.7035,1.7168,1.7014,1.6773,1.7595,1.8389,1.9081,1.9508,2.0239,2.1336,2.3485,2.4635,2.549,2.7528,2.9566,3.1219,3.0954,0.0,0.0,0.0,3.6474,3.7689,4.0244,4.1882,4.3018,4.3587,4.3726,4.3413,4.2285,4.0937,3.9548,3.8353,3.6054,3.3977,3.3143,3.1957,3.0544,2.8716,2.7418,2.5982,2.4225,2.345,0.0,0.0,0.0,0.0,0.0,0.0,0.0,0.0,1.5806,1.5312,1.5078,1.4707,1.4385,1.4087,1.3779,1.3467,1.3232,1.3418,1.3301,1.2881,1.2947,1.2716,1.2184,1.1506,1.0615,0.9624,0.9166,0.9018,0.9045,0.9011,0.8925,0.8804,0.8804,0.8804,0.8804,0.8804,0.8804,0.8804,0.0,0.0,0.0,0.0,0.0,0.0,0.0,0.0,0.0,0.0,0.0,0.0,0.0,0.0,0.0,0.0,1.2656,1.0697,0.6676,0.7644,0.8453,0.8741,1.2177,1.5365,1.7984,1.8693,1.9752,2.1232,2.1609,2.1707,2.1632,2.1486,2.0801,1.9719,1.952,1.8717,1.7477,1.7984,1.8318,1.8622,1.9644,2.0413,2.0999,2.1647,2.2255,2.2977,2.4933,2.5946,2.664,2.85,3.0171,3.1426,3.0907,3.2062,0.0,0.0,0.0,3.6936,3.978,4.1104,4.1867,4.2702,4.3068,4.2832,4.1402,4.0184,3.8995,3.7655,3.4908,3.2665,3.2331,3.1481,3.0006,2.7643,2.6758,2.5644,2.364,2.2865,0.0,0.0,0.0,0.0,0.0,0.0,0.0,0.0,1.5706,1.5117,1.4805,1.458,1.4316,1.3984,1.3877,1.3662,1.335,1.335,1.3193,1.2881,1.3311,1.324,1.2724,1.2175,1.1535,1.076,0.9444,0.9038,0.9163,0.8925,0.8804,0.8804,0.8804,0.8804,0.8804,0.8804,0.8804,0.8804,0.0,0.0,0.0,0.0,0.0,0.0,0.0,0.0,0.0,0.0,0.0,0.0,1.2512,1.324,1.3936,1.4451,1.4172,1.1767,0.6531,1.0059,1.0785,0.7436,1.0937,0.0,1.8365,1.9364,2.0506,2.1857,2.2123,2.1866,2.113,2.0827,2.0345,1.9798,2.002,1.9596,1.8759,1.9456,1.9983,2.0401,2.1856,2.3035,2.4051,2.4835,2.5529,2.6189,2.726,2.7862,2.8404,2.9983,3.1066,3.1864,3.233,3.2985,3.3915,0.0,0.0,0.0,3.9137,3.9595,3.9926,4.1027,4.1902,4.2002,4.0263,3.9276,3.8399,3.7075,3.5061,3.3132,3.1901,2.999,2.8229,2.6853,2.6111,2.4967,2.3035,2.2152,2.1272,0.0,0.0,0.0,0.0,0.0,0.0,0.0,1.5491,1.4805,1.4785,1.4014,1.3564,1.3545,1.3154,1.2939,1.291,1.291,1.29,1.2881,1.3311,1.3455,1.3413,1.2392,1.2028,1.2149,1.0073,0.917,0.9163,0.8925,0.8804,0.8804,0.8804,0.8804,0.8804,0.8804,0.8804,0.8804,0.0,0.0,0.0,0.0,0.0,0.0,0.0,0.0,0.0,0.0,0.0,0.0,0.0,1.4788,1.5856,1.6338,1.4291,1.1352,0.7614,0.8484,0.868,0.7629,1.1181,1.4759,1.8216,1.9531,2.0289,2.0538,2.1375,2.1458,2.0844,2.1022,2.0935,2.0623,2.0114,2.02,2.0789,2.1014,2.1928,2.3254,2.3564,2.4444,2.5566,2.5634,2.6136,2.693,2.7802,2.8747,2.9701,3.053,0.0,0.0,3.1792,3.2363,3.3485,3.451,3.5717,3.6991,3.8162,3.8865,3.9516,4.0473,4.0735,4.0406,3.894,3.8303,3.7646,3.6299,3.4038,3.2174,3.1678,3.029,2.8506,2.6294,2.5449,2.4317,2.2325,2.1526,2.0769,0.0,0.0,0.0,0.0,0.0,0.0,0.0,0.0,1.4551,1.3994,1.3672,1.3379,1.3115,1.2959,1.2881,1.2881,1.2881,1.2881,1.2891,1.3584,1.3916,1.3873,1.3539,1.3313,1.3084,1.1156,1.0017,0.9486,0.9005,0.8804,0.8804,0.8804,0.8804,0.8804,0.8804,0.8804,0.8804,0.0,0.0,0.0,0.0,0.0,0.0,0.0,0.0,0.0,0.0,0.0,0.0,0.0,0.0,1.7596,1.8232,1.5781,1.2539,0.8743,0.8217,0.7878,0.7504,1.0901,1.4402,1.7818,1.9562,2.032,2.0094,2.1185,2.1328,2.0578,2.0907,2.0967,2.0734,2.0175,2.0667,2.192,2.2358,2.345,2.496,2.5582,2.642,2.7307,2.7535,2.8068,2.8779,2.9455,3.024,3.1013,0.0,0.0,0.0,3.1774,3.2421,3.3566,3.4273,3.522,3.6273,3.7399,3.8097,3.8725,3.9383,3.9605,3.9363,3.8258,3.7542,3.6819,3.5816,3.3321,3.1244,3.1244,2.9964,2.8201,2.5978,2.5096,2.3975,2.1971,2.1161,2.0547,0.0,0.0,0.0,0.0,0.0,0.0,0.0,0.0,0.0,1.3965,1.3662,1.3311,1.2891,1.2881,1.2881,1.2881,1.2881,1.2881,1.2891,1.3584,1.3941,1.4107,1.4004,1.387,1.3495,1.1898,1.0733,0.9826,0.9113,0.8804,0.8804,0.8804,0.8804,0.8804,0.8804,0.8804,0.8804,0.0,0.0,0.0,0.0,0.0,0.0,0.0,0.0,0.0,1.7377,0.0,0.0,0.0,0.0,0.0,1.9924,1.8673,1.5472,0.9863,0.9644,0.8912,0.7047,1.0131,1.3574,1.7269,1.9553,2.0701,2.0683,2.168,2.1541,2.0305,2.0391,2.0316,2.012,2.0345,2.0982,2.2023,2.34,2.4459,2.5396,2.7876,2.9015,2.9381,3.0686,3.1431,3.187,3.2299,3.2358,0.0,3.2785,0.0,0.0,3.2371,3.3336,3.4222,3.4936,3.5099,3.5368,0.0,0.0,0.0,3.7672,3.8363,3.886,3.8283,3.7084,3.599,3.5696,3.3008,3.0658,3.0627,2.8941,2.7171,2.5807,2.5062,2.3975,2.1999,2.1175,2.0547,0.0,0.0,0.0,0.0,0.0,0.0,0.0,1.6515,1.5564,1.4821,1.3965,1.332,1.291,1.2891,1.2881,1.2881,1.2881,1.2881,1.2881,1.3311,1.3721,1.4077,1.3774,1.3609,1.3516,1.2436,1.1296,1.0223,0.9231,0.8804,0.8804,0.8804,0.8804,0.8804,0.8804,0.8804,0.8804,0.0,0.0,0.0,0.0,0.0,0.0,2.1242,2.0397,1.9538,0.0,0.0,0.0,1.9473,2.0242,2.0572,2.011,1.7805,1.4439,0.9798,0.919,0.8983,0.8846,1.1675,1.4935,1.8594,2.0111,2.0645,2.0194,2.1168,2.1119,2.0243,2.0729,2.0955,2.0892,2.1315,2.1936,2.2752,2.3566,2.5216,2.7322,2.7981,2.9098,3.038,3.0612,3.1309,3.2076,0.0,3.179,3.2471,0.0,3.2224,3.2995,0.0,3.3247,3.3259,3.3473,3.3702,3.4092,3.5076,0.0,0.0,0.0,0.0,0.0,3.659,3.6061,3.5448,3.4874,3.332,3.1756,3.0798,2.9352,2.7705,2.5842,2.4669,2.3624,2.2595,2.1083,2.0003,0.0,0.0,0.0,0.0,0.0,0.0,0.0,1.5865,1.4859,1.4326,1.3799,1.3457,1.334,1.3037,1.2881,1.2881,1.2881,1.2881,1.2881,1.3311,1.3574,1.3691,1.3844,1.3819,1.347,1.2706,1.1686,1.0601,0.9851,0.9263,0.8804,0.8804,0.8804,0.8804,0.8804,0.8804,0.8804,0.0,0.0,0.0,0.0,0.0,2.2145,2.2892,2.1621,2.05,0.0,0.0,0.0,2.1133,2.1495,2.1348,2.0377,1.7895,1.4983,1.1801,1.0971,1.0995,1.191,1.4239,1.6852,1.9625,2.094,2.1211,2.045,2.1384,2.1431,2.0708,2.1238,2.1509,2.1598,2.2062,2.2898,2.4003,2.4516,2.5874,2.7787,2.8995,3.0079,3.102,3.148,3.1955,0.0,0.0,0.0,3.284,3.1744,3.2069,0.0,0.0,3.2625,3.3145,3.3277,3.3616,3.4071,3.4728,3.5163,3.5565,3.6071,0.0,0.0,3.5915,3.533,3.457,0.0,3.2848,3.1411,3.0394,2.9327,2.8025,2.6211,2.4859,2.3713,2.2712,2.1212,2.0162,0.0,0.0,0.0,0.0,1.8715,1.7836,1.7283,1.6195,1.5189,1.4424,1.4004,1.3691,1.3516,1.3096,1.2881,1.2881,1.2881,1.2881,1.2881,1.3135,1.334,1.3516,1.376,1.374,1.3455,1.3086,1.2109,1.0771,1.0364,0.9666,0.8804,0.8804,0.8804,0.8804,0.8804,0.8804,0.8804,0.0,0.0,2.1796,2.2082,2.216,2.2752,2.4396,2.3033,2.1937,0.0,2.2054,2.2078,2.2556,2.2272,2.1691,2.0767,1.8651,1.6613,1.4881,1.414,1.4303,1.5546,1.7349,1.9087,2.0715,2.194,2.2193,2.1361,2.2088,2.2113,2.1462,2.1794,2.2039,2.2203,2.2785,2.3912,2.5405,2.5986,2.6663,2.7569,3.0266,3.1269,3.1305,3.2574,3.2852,3.2646,3.324,3.3349,3.3042,3.2054,3.175,0.0,0.0,0.0,0.0,0.0,3.4041,3.4456,3.4918,3.5397,3.5745,3.563,3.5681,0.0,3.5773,3.4741,3.3738,0.0,3.2028,3.0492,2.9714,2.9107,2.8261,2.6827,2.557,2.4231,2.2722,2.1514,2.0806,0.0,0.0,0.0,1.9911,1.9177,1.8402,1.7644,1.681,1.592,1.4929,1.4443,1.4033,1.3662,1.3193,1.2949,1.2949,1.29,1.2881,1.2881,1.2881,1.3076,1.3437,1.3437,1.3437,1.3437,1.3437,1.2429,1.0813,1.0813,1.002,0.8804,0.8804,0.8804,0.8804,0.8804,0.8804,0.8804,2.2927,2.3028,2.396,2.6702,2.5108,2.3642,2.4212,2.5852,2.7208,2.7699,2.6091,2.4849,2.4581,2.3602,2.2462,2.1275,1.9815,1.8268,1.6692,1.6712,1.7151,1.8051,1.9657,2.1233,2.2779,2.3024,2.3071,2.2959,2.275,2.2422,2.1982,2.2192,2.2398,2.2625,2.392,2.4982,2.5881,2.7593,2.8535,2.8957,3.0032,3.07,3.113,3.1987,3.2315,3.2253,3.2011,3.195,3.1884,3.1467,3.1504,3.174,0.0,0.0,0.0,3.3126,0.0,0.0,0.0,0.0,0.0,0.0,0.0,0.0,3.4952,3.4586,3.3927,3.2594,3.2318,3.1685,2.9714,2.9478,2.9071,2.7568,2.6707,2.554,2.3477,2.2146,2.133,2.133,0.0,0.0,2.0592,1.9625,1.8611,1.7689,1.6358,1.5545,1.5293,1.4893,1.4619,1.4541,1.3789,1.3389,1.3389,1.3047,1.2881,1.2881,1.2881,1.293,1.2998,1.2998,1.2998,1.2998,1.2998,1.2172,1.0813,1.0813,1.002,0.8804,0.8804,0.8804,0.8804,0.8804,0.8804,0.8804,2.3961,2.4085,2.5232,2.8781,2.8122,2.7138,2.7279,2.8436,2.9,2.8154,2.6466,2.5189,2.4872,2.4132,2.3303,2.2459,2.1426,2.0567,1.9991,2.0096,2.0497,2.121,2.2392,2.3433,2.4271,2.4454,2.421,2.3555,2.3613,2.3239,2.2512,2.2853,2.3369,2.4039,2.5088,2.6263,2.755,2.9081,2.9835,3.0044,3.0546,0.0,3.1287,3.206,3.2134,3.184,3.1778,3.1412,3.1031,3.1576,3.1819,0.0,3.2287,3.2726,3.3082,0.0,3.2685,3.2424,0.0,0.0,0.0,3.3351,0.0,0.0,0.0,3.3387,3.3045,3.1903,3.1369,3.0777,2.9662,2.9373,2.8843,2.7572,2.6969,2.6129,2.4451,2.3116,2.2309,2.2309,0.0,0.0,2.1104,2.0268,1.909,1.7606,1.642,1.5644,1.542,1.501,1.4785,1.4785,1.3955,1.3506,1.3506,1.3301,1.3086,1.2881,1.3096,1.3086,1.2881,1.2881,1.2881,1.2881,1.2881,1.2304,1.1266,1.0965,1.0218,0.9263,0.8903,0.8804,0.8804,0.8804,0.8804,0.8804,2.5405,2.5409,2.6318,2.9616,3.0239,3.0317,3.0394,3.0208,2.9353,2.7407,2.6193,2.5463,2.5313,2.5012,2.4756,2.4613,2.3603,2.3152,2.3583,2.327,2.3293,2.3821,2.4551,2.5007,2.5148,2.5611,2.5272,2.4128,2.4723,2.4544,2.3596,2.4031,2.4857,2.5947,2.6669,2.7947,2.9632,3.0641,3.1129,3.1213,3.1347,3.145,3.1549,3.2023,3.1969,3.1604,3.1711,3.1155,3.0548,3.1722,3.2136,3.2201,3.2422,3.2858,0.0,0.0,0.0,0.0,0.0,0.0,0.0,0.0,0.0,3.2901,0.0,0.0,0.0,3.0899,3.0029,2.9363,2.9204,2.8828,0.0,0.0,0.0,0.0,0.0,2.4141,0.0,2.3318,0.0,0.0,0.0,2.1113,1.9796,1.7803,1.694,1.6227,1.5557,1.5215,1.499,1.4912,1.416,1.3721,1.3633,1.3545,1.334,1.3008,1.3262,1.3252,1.2998,1.292,1.2881,1.2881,1.2881,1.2501,1.1765,1.1216,1.0618,0.9909,0.9106,0.8804,0.8804,0.8804,0.8804,0.8804,2.7236,2.7466,2.7962,2.987,3.0022,2.9991,3.035,3.0141,2.956,2.852,2.8217,2.8008,2.7815,2.7539,2.7704,2.8489,2.6831,2.5977,2.6481,2.4981,2.4149,2.4412,2.4613,2.4807,2.4924,2.5625,2.5875,2.5652,2.6251,2.6391,2.6093,2.6394,2.7091,2.8182,2.9329,3.0474,3.1634,3.2455,3.2888,3.2942,3.2151,3.1833,0.0,3.1096,3.1294,3.185,3.1113,3.0728,3.0651,0.0,3.1844,3.241,0.0,3.2849,3.2924,3.3268,0.0,0.0,0.0,0.0,0.0,0.0,3.1925,0.0,0.0,0.0,3.0241,2.8981,0.0,2.8565,2.7763,0.0,0.0,0.0,0.0,0.0,2.603,2.4965,2.4179,2.4008,2.3369,0.0,0.0,2.2132,2.0542,1.8638,1.8122,1.7388,1.6066,1.6007,1.5742,1.5352,1.4883,1.4453,1.4009,1.3691,1.3486,1.3437,1.3105,1.3125,1.3418,1.3047,1.2881,1.2881,1.2881,1.2501,1.1814,1.1715,1.1316,1.0568,0.9309,0.8804,0.8804,0.8804,0.8804,0.8804,2.6351,2.8058,2.9368,2.9337,2.9774,3.0185,3.0275,2.9825,2.9395,2.9157,2.8173,2.7963,2.9119,2.7829,2.7643,2.9553,2.7139,2.5708,0.0,0.0,2.429,2.4867,2.4813,2.4978,2.5473,2.6364,2.668,2.6411,2.7344,2.7494,2.6977,2.7252,2.8193,2.9674,3.0222,3.1326,3.2829,3.3599,3.3409,0.0,0.0,3.243,0.0,3.1003,3.0894,3.1191,3.0798,3.0606,3.061,0.0,3.1752,0.0,0.0,0.0,0.0,3.2651,0.0,0.0,0.0,0.0,0.0,0.0,0.0,0.0,3.0037,0.0,2.9454,0.0,0.0,0.0,0.0,0.0,0.0,0.0,2.6404,0.0,0.0,0.0,2.4425,0.0,0.0,0.0,0.0,0.0,0.0,0.0,1.886,1.7846,1.7257,1.6745,1.625,1.5801,1.5371,1.4824,1.4087,1.3902,1.3623,1.3145,1.3213,1.3213,1.3135,1.2959,1.2881,1.2881,1.2881,1.2715,1.2403,1.1972,1.1616,1.1266,0.9917,0.9361,0.9309,0.8962,0.8804,0.8804,2.5746,2.8012,2.9655,2.8914,2.9651,3.0318,3.0232,3.0059,2.9881,2.9802,2.8664,2.8366,2.9731,2.8598,2.839,3.0058,2.764,2.5963,0.0,0.0,2.4011,2.399,2.4241,2.4515,2.4775,2.6188,2.6848,2.6712,2.8092,2.8541,2.8126,2.8377,2.935,3.0891,3.1208,3.2224,3.375,3.4286,3.3843,3.2821,3.2924,3.2461,3.1633,3.0968,3.0546,3.0303,3.0003,3.0009,3.0211,3.0562,3.1362,0.0,3.1652,0.0,3.1738,0.0,0.0,0.0,3.1809,0.0,0.0,0.0,0.0,0.0,0.0,0.0,0.0,0.0,0.0,0.0,0.0,0.0,2.5819,2.5915,0.0,2.4987,0.0,2.4218,0.0,0.0,0.0,0.0,0.0,0.0,0.0,2.1768,1.9876,1.869,1.8428,1.7574,1.6768,1.6145,1.5752,1.5176,1.4326,1.4136,1.3828,1.3223,1.3301,1.3232,1.3047,1.293,1.2881,1.2881,1.2881,1.2881,1.2881,1.2344,1.208,1.1981,1.0618,1.0125,1.009,0.9141,0.8804,0.8818,2.6372,2.738,2.8277,2.8867,2.966,3.0225,3.0283,3.1094,3.1445,3.0674,3.0513,0.0,0.0,0.0,0.0,0.0,0.0,2.7968,2.6486,0.0,2.3364,0.0,0.0,2.2902,0.0,2.4454,2.6005,2.6502,2.8496,2.9725,3.0199,3.0399,3.0984,3.1894,3.2814,3.3723,3.456,3.4516,3.4555,3.4461,3.2809,3.1581,3.074,0.0,3.0189,2.9322,2.8403,0.0,0.0,2.978,3.0522,0.0,0.0,0.0,0.0,0.0,0.0,0.0,0.0,0.0,0.0,3.053,0.0,0.0,0.0,0.0,2.6422,0.0,0.0,0.0,0.0,0.0,2.4691,2.4242,2.4184,0.0,0.0,0.0,0.0,0.0,0.0,0.0,0.0,0.0,0.0,2.3187,2.1636,2.035,1.9518,1.8489,1.7383,1.6164,1.6115,1.5635,1.4775,1.4346,1.4068,1.4029,1.3281,1.3105,1.3477,1.3066,1.2881,1.2881,1.2881,1.2881,1.2881,1.2881,1.2871,1.2725,1.1334,1.0984,1.1043,0.9422,0.8804,0.8844,2.6664,2.7889,2.9179,2.9938,3.0754,3.1491,3.2017,3.1731,0.0,0.0,3.0371,0.0,0.0,2.9963,2.9558,0.0,0.0,2.6995,2.6461,2.4946,0.0,0.0,0.0,2.3158,0.0,0.0,2.548,2.6829,2.8173,2.9406,3.0504,3.0618,3.1155,3.2063,3.2915,3.3782,3.4599,3.4524,3.4213,3.3628,0.0,3.0923,3.0578,0.0,0.0,2.9152,2.8241,2.8097,0.0,2.816,2.8717,2.9363,2.8606,2.8364,2.8358,2.8334,2.7886,0.0,0.0,0.0,2.8103,2.9303,0.0,0.0,0.0,0.0,0.0,0.0,0.0,0.0,0.0,2.4894,2.4496,2.3734,2.2989,2.2555,0.0,0.0,0.0,0.0,0.0,0.0,0.0,0.0,0.0,2.3527,2.125,2.0184,2.1103,1.9379,1.8096,1.7373,1.6797,1.6084,1.5205,1.4775,1.4277,1.3721,1.3437,1.3223,1.3086,1.2939,1.2881,1.2881,1.2881,1.2881,1.2881,1.2881,1.2881,1.2852,1.2199,1.1687,1.1137,0.9601,0.9092,0.9024,2.7479,2.8754,2.9851,3.006,3.128,3.2394,0.0,0.0,0.0,0.0,3.0577,0.0,3.0352,0.0,2.8888,0.0,2.7998,2.6992,2.6176,2.5344,0.0,2.3578,2.3433,2.2714,0.0,0.0,0.0,0.0,2.6935,2.8934,3.0636,3.0699,3.1053,3.1688,3.282,3.3459,3.3691,3.3965,3.3587,3.2662,0.0,3.0372,0.0,0.0,2.8751,2.8614,0.0,2.7127,2.7278,2.6896,2.732,2.7821,2.6749,2.6535,2.6613,2.6436,2.6076,2.5971,2.7062,2.6828,0.0,2.8062,2.7203,0.0,2.6868,0.0,0.0,0.0,0.0,0.0,0.0,0.0,2.3476,2.2723,2.1897,2.166,0.0,2.306,0.0,0.0,2.4835,2.4958,0.0,2.32,2.3121,2.4195,2.1908,2.1058,0.0,0.0,1.8944,1.8027,1.7178,1.6387,1.5654,1.5068,1.4512,1.3965,1.3809,1.3584,1.333,1.333,1.333,1.333,1.333,1.3242,1.3105,1.3105,1.3018,1.2871,1.261,1.2018,1.1169,1.0166,0.9679,0.9512,2.8753,2.9922,3.0411,2.9647,3.1406,0.0,0.0,0.0,3.3316,0.0,3.1137,3.0389,2.8815,2.9312,2.9272,2.8084,2.8489,2.7925,2.5869,2.6301,0.0,0.0,2.3565,2.1593,1.6732,0.0,0.0,0.0,2.4958,2.8395,3.0709,3.0776,3.082,3.0935,3.265,3.2891,3.2101,3.2934,3.2713,3.1741,3.0851,2.9976,2.9096,2.8212,2.7903,2.7691,2.5929,2.5688,2.6199,2.5989,2.6291,2.6674,2.6158,2.5696,2.5323,2.508,2.47,2.463,2.5866,2.587,2.5793,2.667,0.0,0.0,0.0,0.0,2.3909,0.0,0.0,0.0,0.0,0.0,0.0,2.1225,2.0998,2.1215,2.2101,2.2234,2.2447,2.3025,2.3491,2.3904,2.4331,2.3433,2.3491,2.5163,2.3735,2.2797,0.0,0.0,2.0038,1.8096,1.7246,1.6572,1.6103,1.5264,1.4824,1.4775,1.4365,1.4107,1.4077,1.4058,1.4048,1.4048,1.4029,1.3848,1.3477,1.3477,1.3242,1.2871,1.2661,1.2044,1.1296,1.0961,1.0537,1.0053,2.9425,3.1424,3.3114,0.0,3.4204,3.4593,0.0,0.0,0.0,0.0,3.0889,2.9544,2.9359,2.8334,2.8009,2.8871,2.7828,0.0,0.0,0.0,0.0,2.4269,2.328,2.0813,1.6733,1.9845,2.1094,2.0251,0.0,2.812,3.0628,3.0757,3.1125,3.1736,3.2836,3.3152,3.2892,3.3089,3.2241,3.0751,3.0516,2.993,0.0,0.0,2.7321,2.6657,2.5485,2.5114,2.5149,2.4957,2.4834,2.4688,2.4399,2.391,2.3415,2.3337,2.2847,2.2462,2.3013,2.2796,2.2682,2.3538,2.3466,2.3363,0.0,0.0,0.0,0.0,0.0,0.0,0.0,0.0,0.0,2.2052,2.1517,2.1238,2.1377,2.1873,0.0,2.2725,2.2184,2.1992,2.2703,2.2897,2.3423,2.4449,2.3895,2.3395,0.0,0.0,0.0,1.9046,1.8125,1.7324,1.6562,1.6006,1.541,1.4785,1.4678,1.4453,1.4068,1.3809,1.3662,1.3652,1.334,1.3145,1.3037,1.3037,1.2978,1.292,1.3138,1.2753,1.1947,1.0523,0.9894,0.9753,3.0073,3.2308,3.4594,3.5974,0.0,0.0,3.5627,3.4965,0.0,3.3265,3.121,0.0,2.9697,2.8016,2.7325,2.8407,2.7473,0.0,2.7573,0.0,0.0,2.5566,2.4399,2.1563,1.6818,1.9574,0.0,1.9244,0.0,2.749,3.0464,3.0669,3.1205,3.203,3.2911,3.3244,3.3133,3.2684,3.1921,3.0983,3.0575,2.964,0.0,2.7835,2.6746,2.5511,2.4974,2.4723,2.4639,2.4371,2.41,2.3787,2.3397,2.2996,2.2669,2.2563,2.2079,2.1655,2.1921,2.1654,2.1439,2.2049,2.2189,2.2422,2.3348,2.3577,2.3693,0.0,0.0,0.0,0.0,0.0,0.0,2.0976,2.0928,2.0929,0.0,0.0,0.0,0.0,2.1716,2.1572,2.2031,2.2293,2.2965,2.4455,2.4583,0.0,0.0,0.0,0.0,1.9768,1.8735,1.7783,1.6685,1.6484,1.5918,1.5059,1.5059,1.4834,1.4414,1.417,1.3965,1.3769,1.3525,1.332,1.3154,1.3154,1.3047,1.2871,1.2651,1.2488,1.2198,1.0363,0.9846,1.0027,3.115,3.3283,3.5534,0.0,0.0,0.0,0.0,3.5941,0.0,3.3011,0.0,3.0075,2.9387,2.7711,2.6862,2.735,0.0,2.6866,2.6729,2.7108,2.7161,2.6702,2.5931,2.2866,1.7287,1.9957,2.0451,0.0,0.0,2.7079,3.0508,3.076,3.1383,3.2358,3.313,3.3329,3.3042,3.2113,3.1692,3.1549,3.0698,2.9245,2.7586,2.7527,2.6254,2.4495,2.4461,2.4461,2.4408,2.4062,2.3826,2.3522,2.2898,2.2643,2.2529,2.2287,2.184,2.1499,2.1693,2.1443,2.1136,2.13,2.1345,2.1528,2.2197,2.2353,2.2412,2.2543,2.2161,2.139,0.0,0.0,0.0,1.9251,0.0,0.0,0.0,0.0,0.0,0.0,0.0,0.0,2.1836,2.1946,2.2826,2.4752,0.0,0.0,0.0,0.0,0.0,2.0249,1.9224,0.0,1.6914,0.0,1.6318,1.5498,1.5439,1.5186,1.4785,1.4727,1.4463,1.4,1.3994,1.376,1.3428,1.3428,1.3213,1.2763,1.1705,1.1707,1.2068,1.0335,1.0007,1.0408,3.4333,3.6006,3.7314,0.0,0.0,3.7629,3.6788,3.5397,3.3608,3.1259,2.9556,2.8073,2.6814,2.5873,2.5711,2.6683,2.5925,0.0,0.0,0.0,0.0,2.7122,2.5397,2.2888,1.9723,2.2004,2.2528,0.0,0.0,2.8673,3.1532,3.1699,3.2553,3.3988,3.4198,3.3846,3.3044,3.216,0.0,3.0602,3.024,2.9069,2.7559,2.7175,2.5961,2.4478,2.4321,2.4247,2.4209,2.386,2.3548,2.3212,2.2822,2.2296,2.1774,2.1748,2.1165,2.0532,2.059,2.0308,1.9906,1.9476,1.9407,1.9586,2.0259,2.0415,2.0725,2.1661,2.0962,2.0246,2.0694,0.0,0.0,0.0,0.0,0.0,0.0,0.0,0.0,0.0,0.0,2.0147,2.1525,2.3242,2.4481,2.5036,0.0,0.0,0.0,0.0,0.0,0.0,1.9429,0.0,0.0,0.0,1.6465,1.5947,1.5586,1.5186,1.4775,1.4414,1.4014,1.3603,1.3252,1.3057,1.2988,1.2988,1.2949,1.2763,1.1705,1.1387,1.1372,1.0108,0.9746,0.9833,3.6276,3.7229,3.7968,3.8869,0.0,0.0,0.0,3.4778,3.2943,3.1279,2.9492,2.7949,2.6858,2.569,2.526,2.5869,2.5444,2.5444,2.6162,2.628,2.6468,2.6752,2.6488,2.5164,2.2738,2.3821,2.4393,2.452,0.0,0.0,3.2308,3.2104,3.2907,3.4529,3.4933,3.4855,0.0,0.0,0.0,3.1469,2.9989,2.8521,2.7185,2.6519,2.5466,2.4303,2.4037,2.3937,2.3896,2.3544,2.3212,2.2848,2.2307,2.189,2.1552,2.1337,2.0813,2.0314,2.0314,2.0,1.9566,1.9043,1.9173,1.9431,1.9461,1.9987,2.0508,2.0793,2.0224,1.9544,1.8936,1.8708,0.0,0.0,0.0,0.0,0.0,0.0,1.9192,0.0,0.0,0.0,0.0,0.0,0.0,0.0,0.0,0.0,0.0,0.0,0.0,0.0,0.0,0.0,0.0,0.0,0.0,1.6115,1.54,1.4863,1.4434,1.4004,1.3584,1.3174,1.2969,1.2881,1.2881,1.2881,1.2881,1.2792,1.1858,1.1529,1.1335,1.0129,0.9686,0.9686,3.7748,3.7932,0.0,0.0,3.8196,0.0,3.5966,3.3838,3.203,3.1058,2.9437,2.7983,2.6996,2.5793,2.5141,2.5293,2.5303,2.5224,2.5057,2.6422,2.705,2.6615,2.7826,2.7741,2.6016,2.6079,2.6766,0.0,0.0,0.0,0.0,3.2901,3.361,0.0,0.0,0.0,0.0,0.0,3.2724,3.2178,2.966,2.7956,2.6804,2.5948,2.4986,2.4074,2.3795,2.361,2.3455,2.3189,2.2855,2.2468,2.1803,2.146,2.1259,2.0943,2.0532,2.0193,2.0193,1.9929,1.9566,1.9043,1.9204,1.9407,1.899,1.956,2.0011,1.9525,1.907,1.8291,1.6791,1.6979,0.0,0.0,0.0,0.0,0.0,0.0,0.0,0.0,0.0,0.0,1.8655,0.0,0.0,0.0,0.0,0.0,0.0,0.0,0.0,0.0,0.0,1.987,1.8354,0.0,1.7076,0.0,1.5332,1.4648,1.4068,1.3789,1.3359,1.2881,1.2881,1.2881,1.2881,1.2881,1.293,1.2918,1.1995,1.1662,1.1551,1.0108,0.9626,0.9679,0.0,0.0,0.0,0.0,0.0,0.0,3.4926,3.2289,2.9886,2.8832,2.8066,2.6993,2.5406,2.5248,2.5274,2.5303,2.5303,2.5284,2.5274,2.5998,2.6756,2.7539,2.8467,2.9152,2.9613,2.9815,3.0272,0.0,0.0,0.0,0.0,0.0,0.0,0.0,0.0,0.0,0.0,3.3217,3.223,3.1238,2.9042,2.7643,2.6786,2.5799,2.4712,2.3735,2.3714,2.3323,2.2797,2.2772,2.2478,2.2096,2.1715,2.107,2.04,2.0382,2.007,1.9747,1.9747,1.9726,1.9566,1.9043,1.8577,1.826,1.8291,1.8007,1.7697,1.7593,1.6496,1.5636,1.5641,1.6029,1.665,0.0,0.0,0.0,0.0,0.0,1.7564,1.5439,0.0,0.0,1.6862,1.9317,2.1446,0.0,2.4343,0.0,0.0,0.0,0.0,2.4237,0.0,2.2332,2.1393,1.9105,0.0,1.666,1.5771,1.4922,1.4077,1.4038,1.3643,1.2881,1.2881,1.2881,1.2881,1.2881,1.3105,1.3295,1.1868,1.1559,1.1686,0.9917,0.9452,0.9646,0.0,0.0,0.0,0.0,0.0,0.0,0.0,3.1268,2.9355,2.7542,2.7108,2.6462,2.5137,2.5173,2.5303,2.5303,2.5303,2.5303,2.5303,2.6049,2.6817,2.7563,2.861,2.974,3.0963,3.0921,3.1635,0.0,0.0,0.0,0.0,0.0,0.0,0.0,0.0,3.5436,3.4166,3.3097,3.2057,3.0909,2.839,2.7101,2.6574,2.5203,2.4269,2.3671,2.3459,2.3093,2.2643,2.2186,2.1931,2.1728,2.1368,2.0813,2.0246,2.0,1.9854,1.969,1.969,1.9442,1.9095,1.8535,1.8027,1.7529,1.726,1.7302,1.7289,1.6846,1.5941,1.5112,1.4883,1.5914,1.683,0.0,0.0,0.0,0.0,0.0,0.0,1.4361,0.0,1.533,1.6514,1.9246,2.1901,2.424,0.0,0.0,0.0,0.0,0.0,2.579,0.0,2.2343,2.207,1.9772,1.828,1.744,1.6246,1.528,1.4502,1.3994,1.3437,1.2881,1.2881,1.2881,1.2881,1.2881,1.2978,1.3005,1.1756,1.1472,1.1599,1.0038,0.9693,0.99,3.8779,0.0,3.7281,0.0,3.4871,3.336,3.1946,3.0436,2.8868,2.7257,2.6599,2.5976,2.5187,2.5214,2.5303,2.5303,2.5303,2.5399,2.5668,2.6255,2.6968,2.7826,2.9169,0.0,3.1752,3.2074,3.2999,3.4526,3.3657,0.0,0.0,0.0,0.0,0.0,3.5763,3.5024,3.4005,3.2676,3.1648,3.0641,2.7904,2.6742,2.6408,2.4697,2.3837,2.3522,2.3165,2.2754,2.2296,2.1774,2.143,2.1165,2.0878,2.0499,2.007,1.9782,1.969,1.969,1.953,1.9207,1.8727,1.8027,1.7585,1.7146,1.6637,1.6691,1.6687,1.5951,1.5132,1.448,1.4432,1.5672,1.6633,1.6443,0.0,0.0,0.0,1.5205,0.0,1.3867,1.3929,1.4793,1.6717,1.9509,2.2287,0.0,0.0,0.0,0.0,0.0,0.0,0.0,0.0,0.0,0.0,2.0646,1.8992,1.7975,1.6701,1.5653,1.4756,1.3896,1.335,1.3066,1.3066,1.2998,1.29,1.3154,1.3174,1.2947,1.1912,1.1636,1.172,1.0278,0.992,1.0194,3.8861,3.6873,3.5223,3.5465,3.3473,3.1825,3.1796,2.9705,2.811,2.809,2.6578,2.5453,2.5313,2.5303,2.5303,2.5303,2.5303,2.5668,2.6524,2.6601,2.7236,0.0,0.0,3.1564,3.2185,3.3806,3.4813,3.5088,0.0,0.0,3.5721,0.0,3.7042,3.6947,3.6004,3.4936,3.3688,3.1819,3.0847,3.0365,2.7698,2.6594,2.6387,2.4454,2.35,2.3165,2.2822,2.2241,2.1612,2.1612,2.1023,2.0314,2.0314,2.0035,1.9726,1.969,1.969,1.9566,1.9043,1.8893,1.865,1.7585,1.7312,1.7146,1.6637,1.6051,1.537,1.459,1.3638,1.3253,1.4219,1.5013,1.5706,1.6312,0.0,0.0,0.0,0.0,0.0,1.4317,1.4704,1.5529,1.7219,1.9748,0.0,0.0,0.0,0.0,0.0,0.0,0.0,2.8776,2.6804,0.0,2.4464,2.174,1.9597,1.7975,1.6979,1.5915,1.4756,1.3896,1.3506,1.3496,1.3496,1.3262,1.2939,1.3779,1.3877,1.3381,1.2301,1.2125,1.2198,1.0363,1.0053,1.0537,3.6749,3.5562,3.4284,3.3227,3.2396,3.128,2.9551,2.8618,2.7668,2.6481,2.5839,2.5473,2.5441,2.5398,2.5379,0.0,2.5371,2.5495,0.0,2.6377,2.7212,2.8272,2.9395,3.0635,3.196,3.31,3.3721,3.379,0.0,0.0,0.0,3.4495,3.4607,3.5122,3.4174,3.3134,3.2054,3.1309,3.0189,2.876,2.7216,2.6264,2.5638,2.4236,2.35,2.3165,2.2822,2.2241,2.1552,2.1275,2.0781,2.0246,1.9965,1.9818,1.969,1.969,1.969,1.9566,1.9043,1.8612,1.8185,1.7463,1.7034,1.6625,1.5996,1.5096,1.4316,1.4042,1.3425,1.324,1.4385,1.5108,1.5708,1.636,1.6579,0.0,0.0,0.0,1.265,1.3684,1.4236,1.5282,0.0,2.0558,0.0,0.0,0.0,0.0,0.0,0.0,0.0,0.0,2.6488,0.0,2.4705,2.2337,2.0366,1.8873,1.7774,1.6398,1.4766,1.4189,1.3779,1.3506,1.3506,1.3437,1.333,1.3603,1.3633,1.3384,1.2256,1.1754,1.1573,1.0699,1.0328,1.0261,3.5262,3.4229,3.3135,3.2072,3.1654,3.0818,2.8909,2.8361,2.7674,2.6253,2.5785,2.5587,2.5587,2.5526,0.0,2.5441,2.5441,2.5577,2.59,2.6465,2.7323,2.8499,2.9399,3.0489,3.1858,0.0,0.0,3.3193,3.3756,3.4171,3.4488,3.3498,3.3333,3.379,3.275,3.1895,3.1143,3.0279,2.9157,2.7875,2.6659,2.5841,2.5271,2.3981,2.3392,2.3141,2.2704,2.2034,2.1337,2.1086,2.0599,2.0035,1.9782,1.969,1.969,1.969,1.9566,1.9281,1.8727,1.8224,1.7666,1.7105,1.657,1.5964,1.5096,1.4318,1.3732,1.3505,1.3152,1.3296,1.4479,1.5139,1.5704,1.6411,1.6232,1.5824,1.5195,0.0,0.0,0.0,0.0,0.0,0.0,2.2361,2.5106,0.0,0.0,0.0,0.0,0.0,0.0,2.8816,2.6496,0.0,2.4506,2.2698,2.11,1.9703,1.8002,1.6437,1.501,1.458,1.4238,1.3994,1.3994,1.3896,1.375,1.3916,1.3799,1.3445,1.2628,1.1861,1.1247,1.089,1.0414,0.9967,3.4236,3.2934,0.0,0.0,3.1161,0.0,2.9591,2.8747,2.7909,2.7089,2.623,2.5683,2.5683,2.5638,2.5573,2.5526,0.0,0.0,0.0,2.6826,2.761,2.9152,3.013,3.1006,3.1818,3.2674,3.3108,3.3114,3.3037,3.3459,3.4283,3.335,3.2919,3.2919,3.173,3.1067,3.0676,2.8877,2.7914,2.7493,2.6009,2.5346,2.5139,2.3746,2.3189,2.3087,2.2508,2.1751,2.0991,2.0991,2.0413,1.969,1.969,1.969,1.969,1.969,1.9332,1.8779,1.8263,1.7706,1.7146,1.6637,1.6008,1.5219,1.405,1.3779,1.36,1.3017,1.2881,1.3296,1.4479,1.5106,1.566,1.6324,1.5872,1.5262,1.4789,0.0,0.0,0.0,0.0,0.0,0.0,2.4766,2.6503,0.0,0.0,0.0,0.0,0.0,3.028,2.8232,2.6789,2.5383,2.3941,2.2862,2.1592,2.0237,1.7707,1.6093,1.54,1.498,1.4785,1.4785,1.4785,1.4531,1.4107,1.457,1.4248,1.3484,1.3199,1.2342,1.126,1.1019,1.0372,0.9619,0.0,0.0,3.111,3.0995,3.0328,2.9697,2.939,2.8092,2.7075,2.6868,2.6119,2.5611,2.5611,2.5663,2.5662,2.5659,2.5603,2.5665,2.5879,2.7175,2.812,2.8528,3.0012,3.093,3.1125,3.1894,3.2259,3.2218,3.1485,3.1584,3.2421,3.1486,3.1275,3.1684,3.0725,2.9737,2.8764,2.8296,2.7266,2.5935,2.555,2.4878,2.4049,2.344,2.3045,2.2772,2.2426,2.1751,2.0991,2.0991,2.0413,1.969,1.969,1.969,1.969,1.969,1.9332,1.8779,1.8263,1.7706,1.7146,1.6637,1.57,1.4744,1.3956,1.342,1.3065,1.2929,1.2881,1.3296,1.4479,1.4778,1.5084,1.572,1.5276,1.4869,1.4698,1.3814,0.0,0.0,1.8248,2.0592,2.2876,2.5102,2.7291,0.0,0.0,0.0,0.0,3.1013,2.9774,2.7551,2.6109,2.4663,2.3351,2.2648,2.1165,1.8908,1.727,1.6093,1.54,1.498,1.4785,1.4785,1.4785,1.4531,1.4087,1.4248,1.3975,1.3486,1.3111,1.2117,1.0935,1.1145,1.0419,0.9365,3.1424,3.0781,3.0224,3.0127,2.973,2.9156,2.8296,2.7726,2.7103,2.6301,2.5827,2.5554,2.5554,2.5595,2.5625,2.5644,2.5644,2.5813,2.6205,2.7538,2.8456,2.8823,3.0111,3.079,3.0757,3.1164,3.1529,3.1848,3.0939,3.0936,3.1727,3.081,3.0503,3.0681,2.9734,2.8846,2.8053,2.7231,2.6297,2.5384,2.5017,2.4379,2.3671,2.3346,2.2996,2.2643,2.2415,2.1751,2.0991,2.0991,2.0413,1.969,1.969,1.969,1.9639,1.9406,1.8968,1.8419,1.7867,1.7353,1.674,1.5876,1.5197,1.4468,1.36,1.3152,1.2881,1.2881,1.3104,1.361,1.4525,1.4926,1.5231,1.5543,1.5775,1.5801,1.5401,1.5599,0.0,1.8121,2.0279,2.2518,2.4846,2.6775,2.8596,3.0421,0.0,0.0,3.1098,3.0245,2.897,2.7374,2.6249,2.486,2.3138,2.2334,2.0803,1.8509,1.7487,1.6415,1.54,1.5176,1.5068,1.5068,1.5068,1.4941,1.4707,1.4512,1.4297,1.4043,1.3623,1.2693,1.1567,1.145,1.0577,0.9484,3.0498,2.9851,2.9276,2.921,2.9077,2.8532,2.7179,2.7368,2.7187,2.5846,2.5565,2.5498,2.5498,2.5503,2.5532,2.5591,2.5642,2.5994,2.6736,2.7712,2.8566,2.926,3.0196,3.0665,3.0606,3.0594,3.0909,3.1594,3.0858,3.0839,3.1487,3.0701,3.0138,2.9726,2.8836,2.8163,2.7585,2.6055,2.5329,2.5164,2.4483,2.3976,2.3588,2.3323,2.2972,2.2599,2.2287,2.1675,2.0991,2.0926,2.0379,1.969,1.969,1.969,1.9566,1.8968,1.8458,1.7987,1.7463,1.6909,1.6207,1.5017,1.4698,1.4387,1.3152,1.2881,1.2881,1.2881,1.3372,1.3956,1.4606,1.5186,1.5688,1.5988,1.6773,1.725,1.6937,0.0,1.9394,2.1272,2.2798,2.476,2.7308,2.8697,2.9832,3.0803,3.0368,3.0192,0.0,2.9158,2.8096,2.7351,2.6634,2.5222,2.3138,2.2046,2.0604,1.8783,1.7969,1.6912,1.5584,1.5468,1.541,1.541,1.541,1.5381,1.5293,1.4932,1.4746,1.4648,1.4277,1.3484,1.2483,1.1763,1.0809,0.9784,2.9465,2.8905,2.8301,2.8228,2.7612,2.7253,2.7663,2.6583,2.5909,2.6371,2.584,2.5434,2.5492,2.5554,2.5571,2.5513,2.5526,2.5617,2.5792,2.7268,2.8199,2.8306,2.9785,3.0617,3.0606,3.0533,3.054,3.0617,3.0483,3.0491,3.059,3.024,2.9593,2.8723,2.8333,2.7288,2.5794,2.5533,2.5017,2.4373,2.4245,2.3816,2.3259,2.3212,2.2857,2.2304,2.1853,2.1399,2.0926,2.055,2.0089,1.969,1.969,1.969,1.953,1.8496,1.8185,1.7987,1.7463,1.6909,1.6207,1.5017,1.4698,1.4387,1.3152,1.2881,1.2881,1.2881,1.3372,1.3956,1.4606,1.5186,1.6132,1.7712,1.7489,1.7972,2.0333,0.0,2.1372,2.3446,2.516,2.6841,2.8658,2.8976,2.9793,3.1478,2.9749,2.9154,3.0336,2.8732,2.7646,2.7451,2.6245,2.4748,2.3138,2.2046,2.1038,2.0062,1.8406,1.7135,1.6322,1.569,1.541,1.541,1.541,1.5215,1.4873,1.4814,1.457,1.4175,1.4107,1.3654,1.2896,1.1856,1.1014,1.0249,2.867,2.7951,2.7323,2.7265,2.691,2.6621,2.6515,2.6115,2.5811,2.5746,2.5351,2.5091,2.5122,2.5178,2.5522,2.6235,2.5746,2.5662,2.6308,2.7446,2.8287,2.8669,2.9873,3.0529,3.0481,3.0462,3.0439,3.0398,3.0398,3.0093,2.9551,2.9402,2.8738,2.7619,2.7063,2.6265,2.5384,2.4944,2.4441,2.3917,2.3917,2.3522,2.2923,2.2923,2.2669,2.2237,2.1764,2.1337,2.0926,2.0449,2.0035,1.969,1.969,1.969,1.9566,1.8765,1.7907,1.7188,1.6951,1.668,1.6207,1.5017,1.4698,1.4387,1.3152,1.2881,1.2968,1.3334,1.3873,1.4468,1.505,1.5928,1.6769,1.7584,1.8921,0.0,0.0,2.2758,2.4139,2.5436,2.6239,2.7483,2.9503,2.9453,2.9983,3.1721,3.0022,2.9154,2.9809,2.8424,2.7388,2.6982,2.555,2.3975,2.2259,2.1744,2.0835,1.944,1.8178,1.7191,1.6492,1.5758,1.541,1.541,1.541,1.5303,1.5117,1.5117,1.5,1.4805,1.457,1.4318,1.3838,1.2556,1.1631,1.0891,2.7779,2.697,2.6329,2.6254,2.6233,2.5981,2.5297,2.5614,2.571,2.5044,2.485,2.4785,2.4766,2.4815,2.5273,2.6346,2.5669,2.5554,2.6454,2.7103,2.7826,2.8644,2.9834,3.0442,3.041,3.0198,3.0059,3.0035,3.0023,2.95,2.8441,2.8589,2.7916,2.6599,2.593,2.5449,2.5071,2.4388,2.3955,2.3692,2.3628,2.3212,2.2695,2.2695,2.2537,2.2225,2.1658,2.1244,2.0926,2.0364,1.998,1.969,1.969,1.969,1.9566,1.8893,1.7666,1.6522,1.6522,1.6522,1.6207,1.5017,1.4698,1.4387,1.3152,1.3017,1.3238,1.3684,1.4503,1.5264,1.5835,1.6873,1.7813,1.8341,0.0,0.0,0.0,2.4386,2.5984,2.6712,2.6924,2.7776,2.9832,2.9721,2.9989,3.1222,2.9955,2.9042,2.8732,2.7699,2.6804,2.6054,2.4883,2.3527,2.1882,2.1619,2.0766,1.9353,1.8173,1.7302,1.6698,1.5806,1.541,1.541,1.541,1.541,1.541,1.541,1.541,1.5381,1.5059,1.4932,1.4778,1.3312,1.2334,1.1494,2.6564,2.5996,2.534,2.5141,2.5118,2.505,2.4874,2.4889,2.4894,2.4818,2.4804,2.4747,2.4639,2.4615,2.4653,2.478,2.4814,2.4913,2.5047,2.5333,2.6002,2.711,2.9236,3.041,3.0398,2.9602,2.9102,2.8924,2.8916,2.8394,2.7434,2.792,2.7307,2.5795,2.5541,2.5,2.4262,2.3894,2.3714,2.3671,2.3369,2.3021,2.2695,2.2695,2.2537,2.218,2.1354,2.1039,2.0862,2.0015,1.9711,1.969,1.969,1.969,1.9479,1.8458,1.7394,1.6522,1.6522,1.6522,1.6207,1.5017,1.4698,1.4387,1.3152,1.3324,1.3732,1.3779,1.5106,1.6426,1.6896,1.7901,1.9471,2.1905,0.0,0.0,2.5076,2.5305,2.5582,2.6676,2.7412,2.8252,2.9433,2.9522,2.952,2.948,2.8858,2.7969,2.6798,2.6092,2.5409,2.4553,2.4386,2.3904,2.3012,2.1995,2.1443,2.1231,1.8794,1.7578,1.7468,1.6026,1.541,1.541,1.541,1.541,1.541,1.541,1.541,1.541,1.5381,1.5371,1.5245,1.4109,1.3023,1.1892,2.552,2.5216,2.4962,2.4896,2.4883,2.4869,2.4818,2.47,2.4607,2.4607,2.4512,2.4409,2.4353,2.4342,2.4607,2.5223,2.4919,2.494,2.5533,2.6393,2.7146,2.7774,2.9306,2.986,2.9246,2.9014,2.905,2.9355,2.8859,2.8067,2.7076,2.7774,2.6916,2.4783,2.4986,2.4641,2.3876,2.3522,2.3259,2.3069,2.2947,2.273,2.2436,2.2436,2.2215,2.1794,2.1229,2.0829,2.0499,1.9909,1.969,1.969,1.969,1.969,1.9479,1.8419,1.7585,1.6909,1.6595,1.6522,1.6293,1.5466,1.5276,1.505,1.4201,1.4201,1.4549,1.5285,1.5935,1.6777,1.7954,1.8801,1.9783,2.1294,0.0,2.2907,2.4462,2.4916,2.5425,2.6324,2.6467,2.6997,2.8305,2.8459,2.8501,2.8616,2.807,2.7354,2.6539,2.594,2.5228,2.4431,2.4368,2.3781,2.2623,2.187,2.1317,2.0966,1.9125,1.8058,1.7578,1.6528,1.5806,1.541,1.541,1.541,1.541,1.541,1.541,1.541,1.541,1.5254,1.4971,1.4256,1.3286,1.2183,2.5337,2.5393,2.5363,2.481,2.4907,2.497,2.466,2.4495,2.441,2.441,2.4284,2.419,2.419,2.421,2.4484,2.517,2.5067,2.5246,2.5901,2.7341,2.833,2.8666,2.9425,2.9542,2.8881,2.8742,2.8843,2.9212,2.8629,2.7847,2.6803,2.7619,2.6722,2.4417,2.4755,2.4388,2.3522,2.3189,2.2923,2.2695,2.2625,2.2463,2.231,2.231,2.2106,2.1764,2.1197,2.0797,2.0431,1.9874,1.969,1.969,1.969,1.9566,1.9281,1.838,1.7706,1.7188,1.6637,1.6522,1.638,1.5764,1.5588,1.5454,1.4835,1.496,1.5443,1.625,1.6718,1.7407,1.8681,1.9254,1.9859,2.0891,2.1948,2.2846,2.3492,2.4147,2.4821,2.5596,2.563,2.6184,2.7654,2.7789,2.776,2.7623,2.7203,2.6572,2.5641,2.5395,2.4936,2.4102,2.4295,2.37,2.2309,2.1933,2.1468,2.0916,1.9618,1.8612,1.7895,1.6922,1.6208,1.5748,1.5526,1.541,1.541,1.541,1.541,1.541,1.541,1.5156,1.4746,1.4453,1.355,1.2409,2.6139,2.6648,2.662,2.4808,2.5167,2.5356,2.4357,2.4208,2.4208,2.419,2.419,2.419,2.419,2.4208,2.4208,2.4208,2.5184,2.5807,2.5832,2.7816,2.9132,2.9472,2.949,2.9564,2.9677,2.8848,2.8311,2.8109,2.8108,2.7579,2.6612,2.742,2.6753,2.4883,2.4883,2.4257,2.3165,2.2848,2.2695,2.2669,2.2415,2.231,2.231,2.231,2.2282,2.218,2.1323,2.1007,2.0878,1.998,1.969,1.969,1.969,1.9332,1.8779,1.8263,1.7706,1.7188,1.6637,1.6522,1.638,1.5776,1.5588,1.5454,1.488,1.5608,1.6421,1.6421,1.7474,1.8553,1.9006,1.9265,1.9874,2.1349,2.1379,2.1547,2.2557,2.3095,2.3663,2.4421,2.5152,2.6184,2.7637,2.7772,2.7381,2.6358,2.6278,2.5475,2.3726,2.4253,2.4232,2.343,2.4035,2.37,2.2309,2.2309,2.2033,2.1481,2.0232,1.9292,1.8661,1.7202,1.6492,1.6436,1.57,1.541,1.541,1.541,1.541,1.541,1.541,1.5156,1.4775,1.4775,1.3796,1.2498,2.5634,2.5782,2.5782,2.5226,2.5335,2.539,2.509,2.5054,2.4832,2.4263,2.419,2.419,2.419,2.4685,2.5054,2.5054,2.5862,2.6594,2.7178,2.7805,2.8441,2.9132,2.9319,2.8817,2.7542,2.796,2.8368,2.8747,2.8175,2.7325,2.6272,2.7077,2.6116,2.372,2.4113,2.3743,2.2822,2.2554,2.2426,2.2398,2.2321,2.231,2.231,2.231,2.1915,2.1354,2.1086,2.0599,2.005,1.9782,1.969,1.969,1.969,1.9332,1.8779,1.8263,1.7706,1.7188,1.6637,1.6522,1.6479,1.6281,1.6238,1.6269,1.6489,1.6408,1.6626,1.7614,1.7766,1.8074,1.9106,1.9784,2.0417,2.1198,2.1698,2.2067,2.2364,2.2536,2.3088,2.4371,2.4678,2.5406,2.6894,2.7029,2.6614,2.5619,2.4823,2.4161,2.3653,2.4253,2.4232,2.343,2.4035,2.37,2.2309,2.1933,2.1455,2.0903,2.0101,1.9373,1.8661,1.7688,1.6978,1.6436,1.57,1.541,1.541,1.541,1.541,1.541,1.541,1.4961,1.4326,1.4326,1.3685,1.27,2.5674,2.5894,2.5926,2.5081,2.5972,2.6609,2.5978,2.5335,2.4746,2.4244,2.4215,2.4283,2.4494,2.5135,2.5588,2.5637,2.653,2.742,2.8227,2.8283,2.8492,2.8997,2.9173,2.8699,2.7585,2.8144,2.8559,2.8773,2.8281,2.7483,2.6372,2.6864,2.5811,2.353,2.3859,2.3465,2.2537,2.236,2.231,2.231,2.231,2.231,2.2282,2.2106,2.1705,2.1181,2.0846,2.0398,1.9909,1.9747,1.969,1.969,1.969,1.9479,1.908,1.8341,1.7867,1.7504,1.6951,1.6837,1.6879,1.7076,1.6951,1.6909,1.7229,1.7303,1.7547,1.8247,1.845,1.8547,1.8898,1.969,2.0404,2.0694,2.1363,2.1972,2.226,2.231,2.275,2.3917,2.4337,2.4949,2.615,2.6337,2.598,2.4973,2.4074,2.3595,2.3595,2.4253,2.4116,2.3137,2.3744,2.3313,2.1656,2.133,2.0991,2.0718,2.0313,1.9803,1.9097,1.807,1.7357,1.6866,1.5864,1.541,1.541,1.541,1.541,1.5391,1.5225,1.4746,1.4058,1.3945,1.3457,1.2822,2.6111,2.6775,2.6886,2.479,2.6772,2.8208,2.6716,2.533,2.4352,2.4211,2.4293,2.4513,2.4901,2.5499,2.5917,2.6057,2.7154,2.8137,2.8868,2.8978,2.8967,2.8905,2.8876,2.8855,2.8863,2.8929,2.8749,2.8368,2.8368,2.778,2.6658,2.6658,2.5639,2.3848,2.3848,2.3268,2.231,2.231,2.231,2.231,2.231,2.231,2.2237,2.1823,2.1628,2.146,2.0649,2.0314,2.0177,1.9803,1.969,1.969,1.969,1.969,1.9479,1.8458,1.8185,1.8066,1.7504,1.7394,1.7504,1.7987,1.7787,1.7422,1.7422,1.8129,1.8745,1.8579,1.9151,1.9436,1.8598,1.9302,2.0018,2.0086,2.0788,2.1515,2.2226,2.231,2.2598,2.3393,2.4069,2.4814,2.5625,2.5844,2.5486,2.4471,2.3906,2.3595,2.3595,2.4253,2.4017,2.2732,2.334,2.2761,2.0794,2.0794,2.0743,2.0643,2.0643,2.0313,1.9747,1.8328,1.7688,1.7633,1.614,1.5526,1.5468,1.5371,1.5352,1.5312,1.4893,1.4463,1.398,1.3652,1.3242,1.2881,2.6472,2.7637,2.812,2.6366,2.618,2.6145,2.5871,2.5976,2.5631,2.4382,2.4977,2.5285,2.4603,2.5703,2.6508,2.6535,2.7504,2.8192,2.8353,2.8764,2.8737,2.8164,2.7921,2.7814,2.7843,2.8296,2.8342,2.7992,2.7992,2.7144,2.5474,2.5474,2.4452,2.2671,2.2671,2.253,2.231,2.231,2.231,2.231,2.231,2.231,2.2282,2.218,2.1705,2.1118,2.0926,2.0398,1.9818,1.9726,1.969,1.969,1.969,1.969,1.9566,1.893,1.8727,1.8612,1.8066,1.7947,1.7947,1.8066,1.8341,1.8535,1.8535,1.8318,1.8373,1.9355,1.8865,1.8538,1.9469,1.9833,2.0204,2.0839,2.1566,2.2124,2.2293,2.231,2.2801,2.4117,2.4421,2.5,2.6319,2.5809,2.5089,2.4471,2.3906,2.3595,2.3595,2.4253,2.4174,2.3238,2.3895,2.3286,2.1373,2.1305,2.0865,1.9987,1.9987,1.9924,1.9747,1.8874,1.8436,1.8382,1.6912,1.6265,1.6177,1.5276,1.4922,1.4883,1.4443,1.4014,1.3633,1.3545,1.3242,1.2881,2.5592,2.6124,2.6707,2.6656,2.633,2.6085,2.6109,2.6426,2.6349,2.5488,2.5918,2.6083,2.5557,2.644,2.7155,2.7419,2.7819,2.805,2.805,2.82,2.7994,2.7367,2.742,2.7395,2.713,2.7607,2.7776,2.7619,2.7268,2.6324,2.4802,2.4459,2.3591,2.231,2.231,2.231,2.231,2.231,2.231,2.231,2.231,2.231,2.2237,2.1857,2.1401,2.0942,2.0532,2.0085,1.969,1.969,1.969,1.969,1.969,1.969,1.9603,1.9043,1.8893,1.8855,1.8574,1.8496,1.8535,1.8817,1.908,1.9207,1.8968,1.8833,1.8962,1.9752,1.9434,1.9217,1.9881,2.0401,2.086,2.1133,2.182,2.231,2.231,2.231,2.2733,2.3833,2.4303,2.4891,2.5867,2.5281,2.4592,2.4074,2.3752,2.3595,2.3595,2.3939,2.3652,2.26,2.2931,2.2333,2.069,2.069,2.0388,1.9798,1.9798,1.9798,1.9747,1.9044,1.8715,1.8608,1.7135,1.6492,1.6394,1.5289,1.4785,1.4717,1.4082,1.3701,1.3486,1.3281,1.3253,1.3334,2.489,2.4626,2.5074,2.6478,2.6709,2.6684,2.6705,2.6688,2.6713,2.6688,2.6688,2.6701,2.6707,2.7112,2.7517,2.79,2.7795,2.7678,2.7678,2.7496,2.7144,2.6705,2.7126,2.7154,2.6691,2.7036,2.721,2.721,2.6467,2.5527,2.4489,2.3748,2.3004,2.231,2.231,2.231,2.231,2.231,2.231,2.231,2.231,2.231,2.2209,2.1415,2.1055,2.0894,2.007,1.9747,1.969,1.969,1.969,1.969,1.969,1.969,1.9603,1.9169,1.9043,1.9043,1.9043,1.9043,1.9132,1.9603,1.969,1.9566,1.9132,1.9369,1.9758,1.9909,2.0031,2.0145,2.025,2.0837,2.1328,2.1393,2.1832,2.2209,2.2282,2.231,2.2632,2.3477,2.4278,2.4879,2.5192,2.4845,2.4388,2.3968,2.3939,2.3939,2.3939,2.3939,2.3361,2.2076,2.2111,2.1448,1.9949,2.0037,1.9999,1.9798,1.9798,1.9798,1.9798,1.915,1.8874,1.8821,1.7468,1.681,1.661,1.5447,1.4848,1.46,1.3818,1.3467,1.3359,1.3008,1.3334,1.3956,2.6401,2.6367,2.6419,2.6656,2.6707,2.669,2.6707,2.6706,2.6706,2.6707,2.6706,2.669,2.6691,2.6774,2.6841,2.6908,2.6891,2.6873,2.6873,2.6825,2.6791,2.669,2.6774,2.6758,2.6691,2.6758,2.6791,2.6791,2.6044,2.5283,2.4489,2.3748,2.3004,2.231,2.231,2.231,2.231,2.231,2.231,2.231,2.231,2.231,2.2237,2.1735,2.1306,2.0926,2.0431,2.0,1.969,1.969,1.969,1.969,1.969,1.969,1.969,1.9603,1.9603,1.9603,1.9603,1.9603,1.9603,1.969,1.969,1.969,1.9603,1.9639,1.9788,2.0172,1.977,1.9765,2.1114,2.0689,2.0562,2.1945,2.189,2.184,2.2237,2.231,2.2818,2.4201,2.5213,2.5701,2.5394,2.5304,2.5264,2.5347,2.533,2.533,2.533,2.533,2.4736,2.3391,2.3771,2.291,2.0605,2.1029,2.0778,1.9798,1.9798,1.9798,1.9798,1.9695,1.9643,1.9579,1.8768,1.8058,1.7379,1.6243,1.5131,1.418,1.3691,1.3281,1.2959,1.29,1.361,1.4514,2.6691,2.6691,2.6691,2.6691,2.6691,2.6691,2.6691,2.6691,2.6691,2.6691,2.6691,2.6691,2.6691,2.6691,2.6691,2.6691,2.6691,2.6691,2.6691,2.6691,2.6691,2.6691,2.6691,2.6691,2.6691,2.6691,2.6691,2.6691,2.5964,2.5439,2.5084,2.3934,2.3224,2.2902,2.2496,2.231,2.231,2.231,2.231,2.231,2.231,2.2135,2.1869,2.1446,2.0975,2.055,2.0139,1.9839,1.969,1.969,1.969,1.969,1.969,1.969,1.969,1.969,1.969,1.969,1.969,1.969,1.969,1.969,1.969,1.969,1.969,1.969,1.9803,2.0212,1.9859,1.9854,2.1054,2.0845,2.0811,2.1761,2.1974,2.2061,2.2282,2.231,2.2748,2.3912,2.495,2.5509,2.5423,2.5114,2.5153,2.5555,2.5615,2.5615,2.5615,2.5615,2.5014,2.3654,2.3851,2.3031,2.1184,2.1368,2.1242,2.074,2.074,2.0413,1.9798,1.9798,1.9798,1.9747,1.9044,1.8501,1.8132,1.6989,1.5988,1.5096,1.4744,1.4333,1.3836,1.3515,1.4143,1.5141]}]]